[[{"header":{"parameterUnit":"m.s-1","parameterCategory":1,"la1":31.0,"la2":29.5877,"lo1":-88.7671,"lo2":-86.6584,"dx":0.0162,"dy":0.0185,"nx":115,"ny":88,"refTime":"2023-02-01T06:00:00:Z","depth":0,"parameterNumber":2,"parameterNumberName":"U-component_of_WINDS"},"data":[0.0,0.0,0.0,0.0,0.0,0.0,0.0,0.0,0.0,0.0,0.0,0.0,0.0,0.0,0.0,0.0,0.0,0.0,0.0,0.0,0.0,0.0,0.0,0.0,0.0,0.0,0.0,0.0,0.0,0.0,0.0,0.0,0.0,0.0,0.0,0.0,0.0,0.0,0.0,0.0,0.0,0.0,0.0,0.0,0.0,0.0,0.0,0.0,0.0,0.0,0.0,0.0,0.0,0.0,0.0,0.0,0.0,0.0,0.0,0.0,0.0,0.0,0.0,0.0,0.0,0.0,0.0,0.0,0.0,0.0,0.0,0.0,0.0,0.0,0.0,0.0,0.0,0.0,0.0,0.0,0.0,0.0,0.0,0.0,0.0,0.0,0.0,0.0,0.0,0.0,0.0,0.0,0.0,0.0,0.0,0.0,0.0,0.0,0.0,0.0,0.0,0.0,0.0,0.0,0.0,0.0,0.0,0.0,0.0,0.0,0.0,0.0,0.0,0.0,0.0,0.0,0.0,0.0,0.0,0.0,0.0,0.0,0.0,0.0,0.0,0.0,0.0,0.0,0.0,0.0,0.0,0.0,0.0,0.0,0.0,0.0,0.0,0.0,0.0,0.0,0.0,0.0,0.0,0.0,0.0,0.0,0.0,0.0,0.0,0.0,0.0,0.0,0.0,0.0,0.0,0.0,0.0,0.0,0.0,0.0,0.0,0.0,0.0,0.0,0.0,0.0,0.0,0.0,0.0,0.0,0.0,0.0,0.0,0.0,0.0,0.0,0.0,0.0,0.0,0.0,0.0,0.0,0.0,0.0,0.0,0.0,0.0,0.0,0.0,0.0,0.0,0.0,0.0,0.0,0.0,0.0,0.0,0.0,0.0,0.0,0.0,0.0,0.0,0.0,0.0,0.0,0.0,0.0,0.0,0.0,0.0,0.0,0.0,0.0,0.0,0.0,0.0,0.0,0.0,0.0,0.0,0.0,0.0,0.0,0.0,0.0,0.0,0.0,0.0,0.0,0.0,0.0,0.0,0.0,0.0,0.0,0.0,0.0,0.0,0.0,0.0,0.0,0.0,0.0,0.0,0.0,0.0,0.0,0.0,0.0,0.0,0.0,0.0,0.0,0.0,0.0,0.0,0.0,0.0,0.0,0.0,0.0,0.0,0.0,0.0,0.0,0.0,0.0,0.0,0.0,0.0,0.0,0.0,0.0,0.0,0.0,0.0,0.0,0.0,0.0,0.0,0.0,0.0,0.0,0.0,0.0,0.0,0.0,0.0,0.0,0.0,0.0,0.0,0.0,0.0,0.0,0.0,0.0,0.0,0.0,0.0,0.0,0.0,0.0,0.0,0.0,0.0,0.0,0.0,0.0,0.0,0.0,0.0,0.0,0.0,0.0,0.0,0.0,0.0,0.0,0.0,0.0,0.0,0.0,0.0,0.0,0.0,0.0,0.0,0.0,0.0,0.0,0.0,0.0,0.0,0.0,0.0,0.0,0.0,0.0,0.0,0.0,0.0,0.0,0.0,0.0,0.0,0.0,0.0,0.0,0.0,0.0,0.0,0.0,0.0,0.0,0.0,0.0,0.0,0.0,0.0,0.0,0.0,0.0,0.0,0.0,0.0,0.0,0.0,0.0,0.0,0.0,0.0,0.0,0.0,0.0,0.0,0.0,0.0,0.0,0.0,0.0,0.0,0.0,0.0,0.0,0.0,0.0,0.0,0.0,0.0,0.0,0.0,0.0,0.0,0.0,0.0,0.0,0.0,0.0,0.0,0.0,0.0,0.0,0.0,0.0,0.0,0.0,0.0,0.0,0.0,0.0,0.0,0.0,0.0,0.0,0.0,0.0,0.0,0.0,0.0,0.0,0.0,0.0,0.0,0.0,0.0,0.0,0.0,0.0,0.0,0.0,0.0,0.0,0.0,0.0,0.0,0.0,0.0,0.0,0.0,0.0,0.0,0.0,0.0,0.0,0.0,0.0,0.0,0.0,0.0,0.0,0.0,0.0,0.0,0.0,0.0,0.0,0.0,0.0,0.0,0.0,0.0,0.0,0.0,0.0,0.0,0.0,0.0,0.0,0.0,0.0,0.0,0.0,0.0,0.0,0.0,0.0,0.0,0.0,0.0,0.0,0.0,0.0,0.0,0.0,0.0,0.0,0.0,0.0,0.0,0.0,0.0,0.0,0.0,0.0,0.0,0.0,0.0,0.0,0.0,0.0,0.0,0.0,0.0,0.0,0.0,0.0,0.0,0.0,0.0,0.0,0.0,0.0,0.0,0.0,0.0,0.0,0.0,0.0,0.0,0.0,0.0,0.0,0.0,0.0,0.0,0.0,0.0,0.0,0.0,0.0,0.0,0.0,0.0,0.0,0.0,0.0,0.0,0.0,0.0,0.0,0.0,0.0,0.0,0.0,0.0,0.0,0.0,0.0,0.0,0.0,0.0,0.0,0.0,0.0,0.0,0.0,0.0,0.0,0.0,0.0,0.0,0.0,0.0,0.0,0.0,0.0,0.0,0.0,0.0,0.0,0.0,0.0,0.0,0.0,0.0,0.0,0.0,0.0,0.0,0.0,0.0,0.0,0.0,0.0,0.0,0.0,0.0,0.0,0.0,0.0,0.0,0.0,0.0,0.0,0.0,0.0,0.0,0.0,0.0,0.0,0.0,0.0,0.0,0.0,0.0,0.0,0.0,0.0,0.0,0.0,0.0,0.0,0.0,0.0,0.0,0.0,0.0,0.0,0.0,0.0,0.0,0.0,0.0,0.0,0.0,0.0,0.0,0.0,0.0,0.0,0.0,0.0,0.0,0.0,0.0,0.0,0.0,0.0,0.0,0.0,0.0,0.0,0.0,0.0,0.0,0.0,0.0,0.0,0.0,0.0,0.0,0.0,0.0,0.0,0.0,0.0,0.0,0.0,0.0,0.0,0.0,0.0,0.0,0.0,0.0,0.0,0.0,0.0,0.0,0.0,0.0,0.0,0.0,0.0,0.0,0.0,0.0,0.0,0.0,0.0,0.0,0.0,0.0,0.0,0.0,0.0,0.0,0.0,0.0,0.0,0.0,0.0,0.0,0.0,0.0,0.0,0.0,0.0,0.0,0.0,0.0,0.0,0.0,0.0,0.0,0.0,0.0,0.0,0.0,0.0,0.0,0.0,0.0,0.0,0.0,0.0,0.0,0.0,0.0,0.0,0.0,0.0,0.0,0.0,0.0,0.0,0.0,0.0,0.0,0.0,0.0,0.0,0.0,0.0,0.0,0.0,0.0,0.0,0.0,0.0,0.0,0.0,0.0,0.0,0.0,0.0,0.0,0.0,0.0,0.0,0.0,0.0,0.0,0.0,0.0,0.0,0.0,0.0,0.0,0.0,0.0,0.0,0.0,0.0,0.0,0.0,0.0,0.0,0.0,0.0,0.0,0.0,0.0,0.0,0.0,0.0,0.0,0.0,0.0,0.0,0.0,0.0,0.0,0.0,0.0,0.0,0.0,0.0,0.0,0.0,0.0,0.0,0.0,0.0,0.0,0.0,0.0,0.0,0.0,0.0,0.0,0.0,0.0,0.0,0.0,0.0,0.0,0.0,0.0,0.0,0.0,0.0,0.0,0.0,0.0,0.0,0.0,0.0,0.0,0.0,0.0,0.0,0.0,0.0,0.0,0.0,0.0,0.0,0.0,0.0,0.0,0.0,0.0,0.0,0.0,0.0,0.0,0.0,0.0,0.0,0.0,0.0,0.0,0.0,0.0,0.0,0.0,0.0,0.0,0.0,0.0,0.0,0.0,0.0,0.0,0.0,0.0,0.0,0.0,0.0,0.0,0.0,0.0,0.0,0.0,0.0,0.0,0.0,0.0,0.0,0.0,0.0,0.0,0.0,0.0,0.0,0.0,0.0,0.0,0.0,0.0,0.0,0.0,0.0,0.0,0.0,0.0,0.0,0.0,0.0,0.0,0.0,0.0,0.0,0.0,0.0,0.0,0.0,0.0,0.0,0.0,0.0,0.0,0.0,0.0,0.0,0.0,0.0,0.0,0.0,0.0,0.0,0.0,0.0,0.0,0.0,0.0,0.0,0.0,0.0,0.0,0.0,0.0,0.0,0.0,0.0,0.0,0.0,0.0,0.0,0.0,0.0,0.0,0.0,0.0,0.0,0.0,0.0,0.0,0.0,0.0,0.0,0.0,0.0,0.0,0.0,0.0,0.0,0.0,0.0,0.0,0.0,0.0,0.0,0.0,0.0,0.0,0.0,0.0,0.0,0.0,0.0,0.0,0.0,6.0415,0.0,0.0,0.0,0.0,0.0,0.0,0.0,0.0,0.0,0.0,0.0,0.0,0.0,0.0,0.0,0.0,0.0,0.0,0.0,0.0,0.0,0.0,0.0,0.0,0.0,0.0,0.0,0.0,0.0,0.0,0.0,0.0,0.0,0.0,0.0,0.0,0.0,0.0,0.0,0.0,0.0,0.0,0.0,0.0,0.0,0.0,0.0,0.0,0.0,0.0,0.0,0.0,0.0,0.0,0.0,0.0,0.0,0.0,0.0,0.0,0.0,0.0,0.0,0.0,0.0,0.0,0.0,0.0,0.0,0.0,0.0,0.0,0.0,0.0,0.0,0.0,0.0,0.0,0.0,0.0,0.0,0.0,0.0,0.0,0.0,0.0,0.0,0.0,0.0,0.0,0.0,0.0,0.0,0.0,0.0,0.0,0.0,0.0,0.0,0.0,0.0,0.0,0.0,0.0,0.0,0.0,0.0,0.0,0.0,0.0,6.1061,6.1061,6.1061,6.0835,6.0415,0.0,0.0,0.0,0.0,0.0,0.0,0.0,0.0,0.0,0.0,0.0,0.0,0.0,0.0,0.0,0.0,0.0,0.0,0.0,0.0,0.0,0.0,0.0,0.0,0.0,0.0,0.0,0.0,0.0,0.0,0.0,0.0,0.0,0.0,0.0,0.0,0.0,0.0,0.0,0.0,0.0,0.0,0.0,0.0,0.0,0.0,0.0,0.0,0.0,0.0,0.0,0.0,0.0,0.0,0.0,0.0,0.0,0.0,0.0,0.0,0.0,0.0,0.0,0.0,0.0,0.0,0.0,0.0,0.0,0.0,0.0,0.0,0.0,0.0,0.0,0.0,0.0,0.0,0.0,0.0,0.0,0.0,0.0,0.0,0.0,0.0,0.0,0.0,0.0,0.0,0.0,0.0,0.0,0.0,0.0,0.0,0.0,0.0,0.0,0.0,0.0,0.0,0.0,0.0,0.0,0.0,0.0,0.0,0.0,0.0,0.0,0.0,6.1593,6.1211,6.0457,0.0,0.0,0.0,0.0,0.0,0.0,0.0,0.0,0.0,0.0,0.0,0.0,0.0,0.0,0.0,0.0,0.0,0.0,0.0,0.0,0.0,0.0,0.0,0.0,0.0,0.0,0.0,0.0,0.0,0.0,0.0,0.0,0.0,0.0,0.0,0.0,0.0,0.0,0.0,0.0,0.0,0.0,0.0,0.0,0.0,0.0,0.0,0.0,0.0,0.0,0.0,0.0,0.0,0.0,0.0,0.0,0.0,0.0,0.0,0.0,0.0,0.0,0.0,0.0,0.0,0.0,0.0,0.0,0.0,0.0,0.0,0.0,0.0,0.0,0.0,0.0,0.0,0.0,0.0,0.0,0.0,0.0,0.0,0.0,0.0,0.0,0.0,0.0,0.0,0.0,0.0,0.0,0.0,0.0,0.0,0.0,0.0,0.0,0.0,0.0,0.0,0.0,0.0,0.0,0.0,0.0,0.0,0.0,0.0,0.0,6.1593,6.1593,6.1593,0.0,6.0457,0.0,0.0,0.0,0.0,0.0,0.0,0.0,0.0,0.0,0.0,0.0,0.0,0.0,0.0,0.0,0.0,0.0,0.0,0.0,0.0,0.0,0.0,0.0,0.0,0.0,0.0,0.0,0.0,0.0,0.0,0.0,0.0,0.0,0.0,0.0,0.0,0.0,0.0,0.0,0.0,0.0,0.0,0.0,0.0,0.0,0.0,0.0,0.0,0.0,0.0,0.0,0.0,0.0,0.0,0.0,0.0,0.0,0.0,0.0,0.0,0.0,0.0,0.0,0.0,0.0,0.0,0.0,0.0,0.0,0.0,0.0,0.0,0.0,0.0,0.0,0.0,0.0,0.0,0.0,0.0,0.0,0.0,0.0,0.0,0.0,0.0,0.0,0.0,0.0,0.0,0.0,0.0,0.0,0.0,0.0,0.0,0.0,0.0,0.0,0.0,0.0,0.0,0.0,0.0,0.0,0.0,0.0,0.0,0.0,0.0,6.2391,6.2391,6.1402,6.0756,0.0,0.0,0.0,0.0,0.0,0.0,0.0,0.0,0.0,0.0,0.0,0.0,0.0,0.0,0.0,0.0,0.0,0.0,0.0,0.0,0.0,0.0,0.0,0.0,0.0,0.0,0.0,0.0,0.0,0.0,0.0,0.0,0.0,0.0,0.0,0.0,0.0,0.0,0.0,0.0,0.0,0.0,0.0,0.0,0.0,0.0,0.0,0.0,0.0,0.0,0.0,0.0,0.0,0.0,0.0,0.0,0.0,0.0,0.0,0.0,0.0,0.0,0.0,0.0,0.0,0.0,0.0,0.0,0.0,0.0,0.0,0.0,0.0,0.0,0.0,0.0,0.0,0.0,0.0,0.0,0.0,0.0,0.0,0.0,0.0,0.0,0.0,0.0,0.0,0.0,0.0,0.0,0.0,0.0,0.0,0.0,0.0,0.0,0.0,0.0,0.0,0.0,0.0,0.0,0.0,0.0,0.0,0.0,0.0,0.0,6.2544,6.2541,6.2468,6.1176,6.038,6.038,0.0,0.0,0.0,0.0,0.0,0.0,0.0,0.0,0.0,0.0,0.0,0.0,0.0,0.0,0.0,0.0,0.0,0.0,0.0,0.0,0.0,0.0,0.0,0.0,0.0,0.0,0.0,0.0,0.0,0.0,0.0,0.0,0.0,0.0,0.0,0.0,0.0,0.0,0.0,0.0,0.0,0.0,0.0,0.0,0.0,0.0,0.0,0.0,0.0,0.0,0.0,0.0,0.0,0.0,0.0,0.0,0.0,0.0,0.0,0.0,0.0,0.0,0.0,0.0,0.0,0.0,0.0,0.0,0.0,0.0,0.0,0.0,0.0,0.0,0.0,0.0,0.0,0.0,0.0,0.0,0.0,0.0,0.0,0.0,0.0,0.0,0.0,0.0,0.0,0.0,0.0,0.0,0.0,0.0,0.0,0.0,0.0,0.0,0.0,0.0,0.0,0.0,0.0,0.0,0.0,0.0,0.0,0.0,6.1631,6.1704,6.1669,6.1704,6.0832,6.038,0.0,0.0,0.0,0.0,0.0,0.0,0.0,0.0,0.0,0.0,0.0,0.0,0.0,0.0,0.0,0.0,0.0,0.0,0.0,0.0,0.0,0.0,0.0,0.0,0.0,0.0,0.0,0.0,0.0,0.0,0.0,0.0,0.0,0.0,0.0,0.0,0.0,0.0,0.0,0.0,0.0,0.0,0.0,0.0,0.0,0.0,0.0,0.0,0.0,0.0,0.0,0.0,0.0,0.0,0.0,0.0,0.0,0.0,0.0,0.0,0.0,0.0,0.0,0.0,0.0,0.0,0.0,0.0,0.0,0.0,0.0,0.0,0.0,0.0,0.0,0.0,0.0,0.0,0.0,0.0,0.0,0.0,0.0,0.0,0.0,0.0,0.0,0.0,0.0,0.0,0.0,0.0,0.0,0.0,0.0,0.0,0.0,0.0,0.0,0.0,0.0,0.0,0.0,0.0,0.0,0.0,0.0,0.0,0.0,6.2391,6.243,6.243,6.2391,6.1138,6.038,0.0,0.0,0.0,0.0,0.0,0.0,0.0,0.0,0.0,0.0,0.0,0.0,0.0,0.0,0.0,0.0,0.0,0.0,0.0,0.0,0.0,0.0,0.0,0.0,0.0,0.0,0.0,0.0,0.0,0.0,0.0,0.0,0.0,0.0,0.0,0.0,0.0,0.0,0.0,0.0,0.0,0.0,0.0,0.0,0.0,0.0,0.0,0.0,0.0,0.0,0.0,0.0,0.0,0.0,0.0,0.0,0.0,0.0,0.0,0.0,0.0,0.0,0.0,0.0,0.0,0.0,0.0,0.0,0.0,0.0,0.0,0.0,0.0,0.0,0.0,0.0,0.0,0.0,0.0,0.0,0.0,0.0,0.0,0.0,0.0,0.0,0.0,0.0,0.0,0.0,0.0,0.0,0.0,0.0,0.0,0.0,0.0,0.0,0.0,0.0,0.0,0.0,0.0,0.0,0.0,0.0,0.0,0.0,0.0,6.2426,0.0,6.2086,6.2051,6.0988,6.038,0.0,0.0,0.0,0.0,0.0,0.0,0.0,0.0,0.0,0.0,0.0,0.0,0.0,0.0,0.0,0.0,0.0,0.0,0.0,0.0,0.0,0.0,0.0,0.0,0.0,0.0,0.0,0.0,0.0,0.0,0.0,0.0,0.0,0.0,0.0,0.0,0.0,0.0,0.0,0.0,0.0,0.0,0.0,0.0,0.0,0.0,0.0,0.0,0.0,0.0,0.0,0.0,0.0,0.0,0.0,0.0,0.0,0.0,0.0,0.0,0.0,0.0,0.0,0.0,0.0,0.0,0.0,0.0,0.0,0.0,0.0,0.0,0.0,0.0,0.0,0.0,0.0,0.0,0.0,0.0,0.0,0.0,0.0,0.0,0.0,0.0,0.0,0.0,0.0,0.0,0.0,0.0,0.0,0.0,0.0,0.0,0.0,0.0,0.0,0.0,0.0,0.0,0.0,0.0,0.0,0.0,0.0,0.0,6.1631,6.1631,6.095,6.0721,6.0492,6.053,6.0457,0.0,0.0,0.0,0.0,0.0,0.0,0.0,0.0,0.0,0.0,0.0,0.0,0.0,0.0,0.0,0.0,0.0,0.0,0.0,0.0,0.0,0.0,0.0,0.0,0.0,0.0,0.0,0.0,0.0,0.0,0.0,0.0,0.0,0.0,0.0,0.0,0.0,0.0,0.0,0.0,0.0,0.0,0.0,0.0,0.0,0.0,0.0,0.0,0.0,0.0,0.0,0.0,0.0,0.0,0.0,0.0,0.0,0.0,0.0,0.0,0.0,0.0,0.0,0.0,0.0,0.0,0.0,0.0,0.0,0.0,0.0,0.0,0.0,0.0,0.0,0.0,0.0,0.0,0.0,0.0,0.0,0.0,0.0,0.0,0.0,0.0,0.0,0.0,0.0,0.0,0.0,0.0,0.0,0.0,0.0,0.0,0.0,0.0,0.0,0.0,0.0,0.0,0.0,0.0,0.0,0.0,0.0,0.0,0.0,6.3358,6.3128,6.3277,6.3774,6.2128,6.1516,0.0,0.0,0.0,0.0,0.0,0.0,0.0,0.0,0.0,0.0,0.0,0.0,0.0,0.0,0.0,0.0,0.0,0.0,0.0,0.0,0.0,0.0,0.0,0.0,0.0,0.0,0.0,0.0,0.0,0.0,0.0,0.0,0.0,0.0,0.0,0.0,0.0,0.0,0.0,0.0,0.0,0.0,0.0,0.0,0.0,0.0,0.0,0.0,0.0,0.0,0.0,0.0,0.0,0.0,0.0,0.0,0.0,0.0,0.0,0.0,0.0,0.0,0.0,0.0,0.0,0.0,0.0,0.0,0.0,0.0,0.0,0.0,0.0,0.0,0.0,0.0,0.0,0.0,0.0,0.0,0.0,0.0,0.0,0.0,0.0,0.0,0.0,0.0,0.0,0.0,0.0,0.0,0.0,0.0,0.0,0.0,0.0,0.0,0.0,0.0,0.0,0.0,0.0,0.0,0.0,0.0,0.0,0.0,0.0,6.5497,6.4347,6.3962,6.4458,6.2582,6.186,6.2353,0.0,0.0,0.0,0.0,0.0,0.0,0.0,0.0,0.0,0.0,0.0,0.0,0.0,0.0,0.0,0.0,0.0,0.0,0.0,0.0,0.0,0.0,0.0,0.0,0.0,0.0,0.0,0.0,0.0,0.0,0.0,0.0,0.0,0.0,0.0,0.0,0.0,0.0,0.0,0.0,0.0,0.0,0.0,0.0,0.0,0.0,0.0,0.0,0.0,0.0,0.0,0.0,0.0,0.0,0.0,0.0,0.0,0.0,0.0,0.0,0.0,0.0,0.0,0.0,0.0,0.0,0.0,0.0,0.0,0.0,0.0,0.0,0.0,0.0,0.0,0.0,0.0,0.0,0.0,0.0,0.0,0.0,0.0,0.0,0.0,0.0,0.0,0.0,0.0,0.0,0.0,0.0,0.0,0.0,0.0,0.0,0.0,0.0,0.0,0.0,0.0,0.0,0.0,0.0,0.0,0.0,0.0,0.0,6.7981,6.5031,6.3534,6.3423,6.2548,6.1898,0.0,0.0,0.0,0.0,0.0,0.0,0.0,0.0,0.0,0.0,0.0,0.0,0.0,0.0,0.0,0.0,0.0,0.0,0.0,0.0,0.0,0.0,0.0,0.0,0.0,0.0,0.0,0.0,0.0,0.0,0.0,0.0,0.0,0.0,0.0,0.0,0.0,0.0,0.0,0.0,0.0,0.0,0.0,0.0,0.0,0.0,0.0,0.0,0.0,0.0,0.0,0.0,0.0,0.0,0.0,0.0,0.0,0.0,0.0,0.0,0.0,0.0,0.0,0.0,0.0,0.0,0.0,0.0,0.0,0.0,0.0,0.0,0.0,0.0,0.0,0.0,0.0,0.0,0.0,0.0,0.0,0.0,0.0,0.0,0.0,0.0,0.0,0.0,0.0,0.0,0.0,0.0,0.0,0.0,0.0,0.0,0.0,0.0,0.0,0.0,0.0,0.0,0.0,0.0,0.0,0.0,0.0,0.0,0.0,6.8818,6.9807,6.9765,6.8462,6.7018,6.5383,0.0,0.0,0.0,0.0,0.0,0.0,0.0,0.0,0.0,0.0,0.0,0.0,0.0,0.0,0.0,0.0,0.0,0.0,0.0,0.0,0.0,0.0,0.0,0.0,0.0,0.0,0.0,0.0,0.0,0.0,0.0,0.0,0.0,0.0,0.0,0.0,0.0,0.0,0.0,0.0,0.0,0.0,0.0,0.0,0.0,0.0,0.0,0.0,0.0,0.0,0.0,0.0,0.0,0.0,0.0,0.0,0.0,0.0,0.0,0.0,0.0,0.0,0.0,0.0,0.0,0.0,0.0,0.0,0.0,0.0,0.0,0.0,0.0,0.0,0.0,0.0,0.0,0.0,0.0,0.0,0.0,0.0,0.0,0.0,0.0,0.0,0.0,0.0,0.0,0.0,0.0,0.0,0.0,0.0,0.0,0.0,0.0,0.0,0.0,0.0,0.0,0.0,0.0,0.0,0.0,0.0,0.0,0.0,7.0338,7.1332,7.4469,7.523,7.3295,7.0832,6.7981,0.0,0.0,0.0,0.0,0.0,0.0,0.0,0.0,0.0,0.0,0.0,0.0,0.0,0.0,0.0,0.0,0.0,0.0,0.0,0.0,0.0,0.0,0.0,0.0,0.0,0.0,0.0,0.0,0.0,0.0,0.0,0.0,0.0,0.0,0.0,0.0,0.0,0.0,0.0,0.0,0.0,0.0,0.0,0.0,0.0,0.0,0.0,0.0,0.0,0.0,0.0,0.0,0.0,0.0,0.0,0.0,0.0,0.0,0.0,0.0,0.0,0.0,0.0,0.0,0.0,0.0,0.0,0.0,0.0,0.0,0.0,0.0,0.0,0.0,0.0,0.0,0.0,0.0,0.0,0.0,0.0,0.0,0.0,0.0,0.0,0.0,0.0,0.0,0.0,0.0,0.0,0.0,0.0,0.0,0.0,0.0,0.0,0.0,0.0,0.0,0.0,0.0,0.0,0.0,0.0,0.0,0.0,0.0,7.4017,7.4395,7.834,7.9465,7.7455,7.3847,6.9911,0.0,0.0,0.0,0.0,0.0,0.0,0.0,0.0,0.0,0.0,0.0,0.0,0.0,0.0,0.0,0.0,0.0,0.0,0.0,0.0,0.0,0.0,0.0,0.0,0.0,0.0,0.0,0.0,0.0,0.0,0.0,0.0,0.0,0.0,0.0,0.0,0.0,0.0,0.0,0.0,0.0,0.0,0.0,0.0,0.0,0.0,0.0,0.0,0.0,0.0,0.0,0.0,0.0,0.0,0.0,0.0,0.0,0.0,0.0,0.0,0.0,0.0,0.0,0.0,0.0,0.0,0.0,0.0,0.0,0.0,0.0,0.0,0.0,0.0,0.0,0.0,0.0,0.0,0.0,0.0,0.0,0.0,0.0,0.0,0.0,0.0,0.0,0.0,0.0,0.0,0.0,0.0,0.0,0.0,0.0,0.0,0.0,0.0,0.0,0.0,0.0,0.0,0.0,0.0,0.0,0.0,0.0,0.0,7.2888,7.5506,7.8351,7.9648,7.9156,7.5276,7.1171,0.0,0.0,0.0,0.0,0.0,0.0,0.0,0.0,0.0,0.0,0.0,0.0,0.0,0.0,0.0,0.0,0.0,0.0,0.0,0.0,0.0,0.0,0.0,0.0,0.0,0.0,0.0,0.0,0.0,0.0,0.0,0.0,0.0,0.0,0.0,0.0,0.0,0.0,0.0,0.0,0.0,0.0,0.0,0.0,0.0,0.0,0.0,0.0,6.038,0.0,0.0,0.0,0.0,0.0,0.0,0.0,0.0,0.0,0.0,0.0,0.0,0.0,0.0,0.0,0.0,0.0,0.0,0.0,0.0,0.0,0.0,0.0,0.0,0.0,0.0,0.0,0.0,0.0,0.0,0.0,0.0,0.0,0.0,0.0,0.0,0.0,0.0,0.0,0.0,0.0,0.0,0.0,0.0,0.0,0.0,0.0,0.0,0.0,0.0,0.0,0.0,0.0,0.0,0.0,0.0,0.0,0.0,0.0,7.3339,7.6657,7.9558,8.0745,8.0023,7.6201,7.2385,0.0,0.0,0.0,0.0,0.0,0.0,0.0,0.0,0.0,0.0,0.0,0.0,0.0,0.0,0.0,0.0,0.0,0.0,0.0,0.0,0.0,0.0,0.0,0.0,0.0,0.0,0.0,0.0,0.0,0.0,0.0,0.0,0.0,0.0,0.0,0.0,0.0,0.0,0.0,0.0,0.0,0.0,0.0,0.0,0.0,0.0,0.0,0.0,0.0,0.0,0.0,0.0,0.0,0.0,0.0,0.0,0.0,0.0,0.0,0.0,0.0,0.0,0.0,0.0,0.0,0.0,0.0,0.0,0.0,0.0,0.0,0.0,0.0,0.0,0.0,0.0,0.0,0.0,0.0,0.0,0.0,0.0,0.0,0.0,0.0,0.0,0.0,0.0,0.0,0.0,0.0,0.0,0.0,0.0,0.0,0.0,0.0,0.0,0.0,0.0,0.0,0.0,0.0,0.0,0.0,0.0,0.0,7.1041,7.4435,7.7617,8.0565,8.1601,8.0578,7.6598,7.3198,7.0648,0.0,0.0,0.0,0.0,0.0,0.0,0.0,0.0,0.0,0.0,0.0,0.0,0.0,0.0,0.0,0.0,0.0,0.0,0.0,0.0,0.0,0.0,0.0,0.0,0.0,0.0,0.0,0.0,0.0,0.0,0.0,0.0,0.0,0.0,0.0,0.0,0.0,0.0,5.8988,5.9759,0.0,0.0,0.0,0.0,0.0,0.0,0.0,0.0,6.0339,0.0,0.0,0.0,0.0,0.0,0.0,0.0,0.0,0.0,0.0,0.0,0.0,0.0,0.0,0.0,0.0,0.0,0.0,0.0,0.0,0.0,0.0,0.0,0.0,0.0,0.0,0.0,0.0,0.0,0.0,0.0,0.0,0.0,0.0,0.0,0.0,0.0,0.0,0.0,0.0,0.0,0.0,0.0,0.0,0.0,0.0,0.0,0.0,0.0,0.0,0.0,0.0,0.0,0.0,0.0,0.0,6.9247,7.2142,7.5029,7.7855,7.9161,8.007,8.0454,7.6006,7.285,7.1202,0.0,0.0,0.0,0.0,0.0,0.0,0.0,0.0,0.0,0.0,0.0,0.0,0.0,0.0,0.0,0.0,0.0,0.0,0.0,0.0,0.0,0.0,0.0,0.0,0.0,0.0,0.0,0.0,0.0,0.0,0.0,0.0,0.0,0.0,0.0,0.0,0.0,0.0,0.0,5.9217,5.9568,0.0,0.0,0.0,0.0,0.0,0.0,0.0,0.0,6.0144,0.0,0.0,0.0,0.0,0.0,0.0,0.0,0.0,0.0,0.0,0.0,0.0,0.0,0.0,0.0,0.0,0.0,0.0,0.0,0.0,0.0,0.0,0.0,0.0,0.0,0.0,0.0,0.0,0.0,0.0,0.0,0.0,0.0,0.0,0.0,0.0,0.0,0.0,0.0,0.0,0.0,0.0,0.0,0.0,0.0,0.0,0.0,0.0,0.0,0.0,0.0,0.0,0.0,0.0,0.0,7.0422,7.2665,7.5646,7.9408,8.036,8.0597,8.0117,7.5863,7.2757,0.0,0.0,0.0,0.0,0.0,0.0,0.0,0.0,0.0,0.0,0.0,0.0,0.0,0.0,0.0,0.0,0.0,0.0,0.0,0.0,0.0,0.0,0.0,0.0,0.0,0.0,0.0,0.0,0.0,0.0,0.0,0.0,0.0,0.0,0.0,0.0,0.0,0.0,0.0,0.0,5.9828,6.0557,6.0985,0.0,0.0,0.0,0.0,0.0,0.0,6.1131,6.1551,0.0,0.0,0.0,0.0,0.0,0.0,0.0,0.0,0.0,0.0,0.0,0.0,0.0,0.0,0.0,0.0,0.0,0.0,0.0,0.0,0.0,0.0,0.0,0.0,0.0,0.0,0.0,0.0,0.0,0.0,0.0,0.0,0.0,0.0,0.0,0.0,0.0,0.0,0.0,0.0,0.0,0.0,0.0,0.0,0.0,0.0,0.0,0.0,0.0,0.0,0.0,0.0,0.0,0.0,0.0,7.1037,7.3098,7.6301,8.0706,8.1403,8.1029,7.9676,7.5745,7.2654,0.0,0.0,0.0,0.0,0.0,0.0,0.0,0.0,0.0,0.0,0.0,0.0,0.0,0.0,0.0,0.0,0.0,0.0,0.0,0.0,0.0,0.0,0.0,0.0,0.0,0.0,0.0,0.0,0.0,0.0,0.0,0.0,0.0,0.0,0.0,0.0,0.0,0.0,0.0,0.0,0.0,6.1525,6.1723,6.1869,0.0,0.0,0.0,0.0,6.1665,6.2735,0.0,0.0,0.0,0.0,0.0,0.0,0.0,0.0,0.0,0.0,0.0,0.0,0.0,0.0,0.0,0.0,0.0,0.0,0.0,0.0,0.0,0.0,0.0,0.0,0.0,0.0,0.0,0.0,0.0,0.0,0.0,0.0,0.0,0.0,0.0,0.0,0.0,0.0,0.0,0.0,0.0,0.0,0.0,0.0,0.0,0.0,0.0,0.0,0.0,0.0,0.0,0.0,0.0,0.0,0.0,0.0,7.0716,7.3798,7.7097,8.0487,8.0125,7.9658,7.9238,7.5369,7.2203,0.0,0.0,0.0,0.0,0.0,0.0,0.0,0.0,0.0,0.0,0.0,0.0,0.0,0.0,0.0,0.0,0.0,0.0,0.0,0.0,0.0,0.0,0.0,0.0,0.0,0.0,0.0,0.0,0.0,0.0,0.0,0.0,0.0,0.0,0.0,0.0,0.0,0.0,0.0,0.0,0.0,6.1258,6.2088,6.2825,6.3044,0.0,0.0,6.3358,6.1822,6.4225,0.0,0.0,0.0,0.0,0.0,0.0,0.0,0.0,0.0,0.0,0.0,0.0,0.0,0.0,0.0,0.0,0.0,0.0,0.0,0.0,0.0,0.0,0.0,0.0,0.0,0.0,0.0,0.0,0.0,0.0,0.0,0.0,0.0,0.0,0.0,0.0,0.0,0.0,0.0,0.0,0.0,0.0,0.0,0.0,0.0,0.0,0.0,0.0,0.0,0.0,0.0,0.0,0.0,0.0,0.0,6.7844,7.056,7.4335,7.7659,8.0383,8.0192,7.9757,7.9217,7.4876,7.1616,0.0,0.0,0.0,0.0,0.0,0.0,0.0,0.0,0.0,0.0,0.0,0.0,0.0,0.0,0.0,0.0,0.0,0.0,0.0,0.0,0.0,0.0,0.0,0.0,0.0,0.0,0.0,0.0,0.0,0.0,0.0,0.0,0.0,0.0,0.0,0.0,0.0,0.0,0.0,0.0,0.0,0.0,6.2972,6.3679,0.0,0.0,0.0,6.4668,6.3247,0.0,0.0,0.0,0.0,0.0,0.0,0.0,0.0,0.0,0.0,0.0,0.0,0.0,0.0,0.0,0.0,0.0,0.0,0.0,0.0,0.0,0.0,0.0,0.0,0.0,0.0,0.0,0.0,0.0,0.0,0.0,0.0,0.0,0.0,0.0,0.0,0.0,0.0,0.0,0.0,0.0,0.0,0.0,0.0,0.0,0.0,0.0,0.0,0.0,0.0,0.0,0.0,0.0,0.0,0.0,0.0,0.0,7.0545,7.4466,7.7834,8.0526,8.0445,7.9946,7.901,7.456,0.0,0.0,0.0,0.0,0.0,0.0,0.0,0.0,0.0,0.0,0.0,0.0,0.0,0.0,0.0,0.0,0.0,0.0,0.0,0.0,0.0,0.0,0.0,0.0,0.0,0.0,0.0,5.8192,0.0,0.0,0.0,0.0,0.0,0.0,0.0,0.0,0.0,0.0,0.0,0.0,0.0,0.0,6.4813,6.3936,6.4667,6.4889,0.0,0.0,6.5671,6.4585,6.5933,6.6399,0.0,0.0,0.0,0.0,0.0,0.0,0.0,0.0,0.0,0.0,0.0,0.0,0.0,0.0,0.0,0.0,0.0,0.0,0.0,0.0,0.0,0.0,0.0,0.0,0.0,0.0,0.0,0.0,0.0,0.0,0.0,0.0,0.0,0.0,0.0,0.0,0.0,0.0,0.0,0.0,0.0,0.0,0.0,0.0,0.0,0.0,0.0,0.0,0.0,0.0,0.0,0.0,0.0,0.0,0.0,7.0923,7.4092,7.7542,8.1128,8.0601,7.9752,7.8709,7.4779,7.1687,0.0,0.0,0.0,0.0,0.0,0.0,0.0,0.0,0.0,0.0,0.0,0.0,0.0,0.0,0.0,0.0,0.0,0.0,0.0,0.0,0.0,0.0,0.0,0.0,0.0,0.0,0.0,0.0,0.0,0.0,0.0,0.0,0.0,0.0,0.0,0.0,0.0,0.0,0.0,0.0,0.0,6.5945,6.4767,6.5957,6.6652,0.0,0.0,6.6257,6.5353,6.7299,6.7598,6.3643,0.0,0.0,0.0,0.0,0.0,0.0,0.0,0.0,0.0,0.0,0.0,0.0,0.0,0.0,0.0,0.0,0.0,0.0,0.0,0.0,0.0,0.0,0.0,0.0,0.0,0.0,0.0,0.0,0.0,0.0,0.0,0.0,0.0,0.0,0.0,0.0,0.0,0.0,0.0,0.0,0.0,0.0,0.0,0.0,0.0,0.0,0.0,0.0,0.0,0.0,0.0,0.0,0.0,6.8508,7.0865,7.5273,7.8475,8.0374,8.0184,7.9605,7.8738,7.5289,7.2375,0.0,0.0,0.0,0.0,0.0,0.0,0.0,0.0,0.0,0.0,0.0,0.0,0.0,0.0,0.0,0.0,0.0,0.0,0.0,0.0,0.0,0.0,0.0,0.0,0.0,0.0,0.0,0.0,6.1245,6.1478,6.2315,0.0,0.0,0.0,0.0,0.0,0.0,0.0,0.0,0.0,0.0,6.6502,6.5571,6.6758,0.0,0.0,6.7333,6.7616,6.6094,6.7524,6.7573,6.4017,6.3785,0.0,0.0,0.0,0.0,0.0,0.0,0.0,0.0,0.0,0.0,0.0,0.0,0.0,0.0,0.0,0.0,0.0,0.0,0.0,0.0,0.0,0.0,0.0,0.0,0.0,0.0,0.0,0.0,0.0,0.0,0.0,0.0,0.0,0.0,0.0,0.0,0.0,0.0,0.0,0.0,0.0,0.0,0.0,0.0,0.0,0.0,0.0,0.0,0.0,0.0,0.0,0.0,6.9114,7.1401,7.6002,7.9209,8.0947,8.073,8.0259,7.9345,7.6077,7.3168,0.0,0.0,0.0,0.0,0.0,0.0,0.0,0.0,0.0,0.0,0.0,0.0,0.0,0.0,0.0,0.0,0.0,0.0,0.0,0.0,0.0,0.0,0.0,0.0,0.0,0.0,0.0,0.0,6.2586,6.251,6.2884,0.0,0.0,0.0,0.0,0.0,0.0,0.0,0.0,0.0,0.0,6.6549,6.5416,6.6955,6.7932,6.6933,6.8065,6.8539,6.7199,6.7527,6.6987,6.4237,0.0,0.0,0.0,0.0,0.0,0.0,0.0,0.0,0.0,0.0,0.0,0.0,0.0,0.0,0.0,0.0,0.0,0.0,0.0,0.0,0.0,0.0,0.0,0.0,0.0,0.0,0.0,0.0,0.0,0.0,6.6189,0.0,0.0,0.0,0.0,0.0,0.0,0.0,0.0,0.0,0.0,0.0,0.0,0.0,0.0,0.0,0.0,0.0,0.0,0.0,0.0,0.0,0.0,6.8982,7.2811,7.5996,7.9471,8.3202,8.2632,8.1817,8.0975,7.7164,7.4042,7.1762,0.0,0.0,0.0,0.0,0.0,0.0,0.0,0.0,0.0,0.0,0.0,0.0,0.0,0.0,0.0,0.0,0.0,0.0,0.0,0.0,0.0,0.0,0.0,0.0,0.0,0.0,6.2867,6.3652,6.3763,0.0,0.0,0.0,0.0,0.0,0.0,0.0,0.0,0.0,0.0,6.5262,6.5972,6.4048,6.6567,6.8405,6.763,6.8332,6.8885,6.8798,6.7492,6.577,0.0,0.0,0.0,0.0,0.0,0.0,0.0,0.0,0.0,0.0,0.0,0.0,0.0,0.0,0.0,0.0,0.0,0.0,0.0,0.0,0.0,0.0,0.0,0.0,0.0,0.0,0.0,6.3691,6.3834,0.0,0.0,0.0,0.0,0.0,0.0,0.0,0.0,0.0,0.0,0.0,6.6064,6.7273,0.0,0.0,0.0,0.0,0.0,0.0,0.0,0.0,0.0,0.0,0.0,0.0,7.0013,7.2948,7.7003,8.0259,8.2586,8.245,8.1898,8.1083,7.8222,7.4634,7.0239,0.0,0.0,0.0,0.0,0.0,0.0,0.0,0.0,0.0,0.0,0.0,0.0,0.0,0.0,0.0,0.0,0.0,0.0,0.0,0.0,0.0,0.0,0.0,0.0,0.0,6.2136,0.0,0.0,0.0,0.0,0.0,0.0,0.0,0.0,0.0,0.0,0.0,6.3489,6.3195,6.4939,6.6182,6.5998,6.735,6.8677,0.0,0.0,0.0,0.0,0.0,0.0,0.0,0.0,0.0,0.0,0.0,0.0,0.0,0.0,6.3395,6.2274,6.2559,6.2959,6.2954,0.0,0.0,0.0,0.0,0.0,0.0,0.0,0.0,0.0,0.0,0.0,0.0,0.0,0.0,6.4266,0.0,6.3603,0.0,0.0,0.0,0.0,0.0,0.0,0.0,0.0,6.6706,6.7919,6.8728,6.9692,6.9765,0.0,6.8837,6.8153,0.0,0.0,0.0,0.0,0.0,0.0,0.0,0.0,7.1026,7.3732,7.8057,8.1346,8.3419,8.3274,8.2767,8.188,7.8521,7.4718,7.0561,6.809,6.6315,0.0,0.0,0.0,0.0,0.0,0.0,0.0,0.0,0.0,0.0,0.0,0.0,0.0,0.0,0.0,0.0,0.0,0.0,0.0,0.0,0.0,0.0,0.0,6.2558,0.0,0.0,0.0,0.0,0.0,0.0,0.0,0.0,0.0,6.4544,6.4147,6.3904,6.4037,6.4845,6.5824,6.6909,0.0,0.0,0.0,0.0,0.0,0.0,0.0,7.0319,6.8233,6.7869,6.7542,6.6517,6.6264,6.6206,6.6206,0.0,0.0,6.4654,6.4842,6.5273,6.5273,6.5661,6.6329,6.738,6.817,6.9008,0.0,0.0,0.0,0.0,0.0,0.0,0.0,0.0,6.732,6.8122,0.0,6.7735,0.0,0.0,0.0,0.0,0.0,6.6813,0.0,0.0,6.9036,7.017,7.1603,7.1748,7.2102,7.2754,7.2001,7.1603,7.1293,6.7222,0.0,0.0,0.0,0.0,0.0,0.0,7.2046,7.518,7.9119,8.264,8.5619,8.504,8.4252,8.3274,7.8114,7.4484,7.2754,6.9096,6.6967,6.6858,6.5337,0.0,0.0,0.0,0.0,0.0,0.0,0.0,0.0,0.0,0.0,0.0,0.0,0.0,0.0,0.0,0.0,0.0,0.0,0.0,0.0,6.3474,0.0,0.0,0.0,0.0,0.0,0.0,0.0,0.0,0.0,0.0,6.4566,6.493,6.5383,6.5796,0.0,0.0,0.0,0.0,6.8916,7.0544,7.2129,7.3379,7.4137,7.292,7.183,7.1728,0.0,0.0,6.9344,6.9344,6.9344,6.9344,6.9453,6.8685,6.6533,6.7237,6.8073,6.8139,6.8757,6.9468,6.9606,7.0338,7.0892,7.0017,0.0,0.0,0.0,0.0,6.864,6.985,7.0473,7.0488,7.0088,6.9353,6.7768,0.0,0.0,0.0,0.0,0.0,0.0,6.8481,7.0805,7.2102,7.3482,7.4943,7.6094,7.6167,7.5269,7.5052,7.4319,7.3189,7.1928,6.9855,6.7055,0.0,0.0,0.0,0.0,7.3587,7.6782,8.0196,8.2948,8.5004,8.4823,8.3772,8.1817,7.9128,7.6665,7.4484,7.2203,7.0227,6.8576,6.6975,0.0,0.0,0.0,0.0,0.0,0.0,0.0,0.0,0.0,0.0,0.0,0.0,0.0,0.0,0.0,0.0,0.0,0.0,0.0,6.3632,6.409,6.437,0.0,0.0,0.0,0.0,0.0,0.0,0.0,0.0,0.0,6.6249,6.5833,6.595,0.0,0.0,6.8395,6.9937,7.0374,7.113,7.2717,0.0,0.0,0.0,7.3257,7.2898,7.1783,7.1635,7.1893,7.2464,7.2537,7.2537,7.2537,7.3494,7.4002,7.3277,7.078,6.9107,6.9035,7.0405,7.1912,7.2556,7.409,7.5587,7.6059,7.2086,7.0323,6.95,6.9549,7.1355,7.2341,7.2628,7.2644,7.2434,7.2027,7.0438,6.9468,6.899,6.84,0.0,0.0,0.0,7.144,7.4087,7.4712,7.6113,7.8203,7.9209,7.9136,7.8276,7.8855,7.7977,7.5824,7.6114,7.4601,7.135,0.0,0.0,6.9929,7.3008,7.6013,7.8874,8.1789,8.3999,8.5583,8.4678,8.3519,8.207,7.9897,7.786,7.6122,7.4203,7.2255,7.0198,6.8931,6.7373,0.0,0.0,0.0,0.0,0.0,0.0,0.0,0.0,0.0,0.0,0.0,6.2163,6.2252,0.0,0.0,0.0,6.2832,6.3337,6.4131,6.4423,0.0,0.0,0.0,0.0,0.0,0.0,0.0,6.3782,6.5886,6.7506,6.784,6.7896,6.83,6.9241,6.9293,6.9989,7.2138,0.0,7.2175,7.4086,7.3985,7.3768,7.4102,7.4528,7.4492,7.3559,7.4058,7.4565,7.4782,7.4854,7.4863,7.4963,7.5623,7.6284,7.6284,7.3893,7.2118,7.2444,7.3595,7.4818,7.5651,7.7462,7.9064,8.2577,8.0204,7.5984,7.3836,7.3277,7.4293,7.4732,7.4665,7.471,7.5442,7.661,7.5035,7.4638,7.5184,7.3853,0.0,7.4567,7.4567,7.58,7.8014,7.7298,7.8557,8.1409,8.1482,8.1482,8.1509,8.2985,8.2188,7.9426,8.0042,7.9209,7.6972,7.4754,7.3515,7.337,7.6311,7.9064,8.1482,8.3736,8.5574,8.6904,8.4823,8.3637,8.3465,8.0558,7.8557,7.7579,7.5398,7.337,7.1675,7.0887,6.9401,6.7184,0.0,0.0,0.0,0.0,0.0,0.0,0.0,0.0,0.0,0.0,0.0,0.0,0.0,0.0,0.0,6.3184,0.0,6.4481,6.4646,0.0,0.0,0.0,6.494,6.4781,6.5596,6.6054,6.5823,0.0,0.0,6.9192,0.0,7.1631,7.1675,7.0524,7.0742,7.3659,7.2863,7.2682,7.4919,7.518,7.5426,7.5913,7.6139,7.6102,7.603,7.6936,7.6936,7.6465,7.6247,7.6284,7.6356,7.6392,7.6473,7.6501,7.6392,7.6718,7.7362,7.7507,7.776,7.8521,7.9816,8.0857,8.6759,8.6045,8.381,8.0728,7.7434,7.8836,8.0113,8.1201,8.121,8.1101,8.0748,7.8557,7.6328,7.426,7.3901,7.5162,7.763,7.763,7.957,8.2876,8.2804,8.341,8.475,8.475,8.475,8.4786,8.5149,8.4931,8.4207,8.4388,8.389,8.2731,8.2106,8.0295,7.7462,7.987,8.2333,8.475,8.5863,8.6614,8.694,8.5909,8.476,8.3537,8.2161,8.0485,7.8484,7.7298,7.5325,7.2573,7.1668,7.0416,6.8721,6.7474,0.0,0.0,0.0,0.0,0.0,0.0,0.0,0.0,0.0,6.3117,6.3295,0.0,6.3891,0.0,6.4675,6.5212,6.5577,6.5557,0.0,0.0,6.6466,6.6423,6.6308,6.8077,6.8816,6.7583,6.9314,7.0517,7.017,7.1458,7.2645,7.3217,7.3551,7.4203,7.5515,7.5442,7.5342,7.5885,7.5994,7.6102,7.6256,7.6284,7.632,7.6284,7.6465,7.6718,7.7153,7.669,7.6501,7.708,7.7225,7.7443,7.7941,7.8122,7.8412,7.91,7.8847,7.8666,7.9454,8.0431,8.1111,8.9811,8.9656,8.8118,8.5909,8.3456,8.3292,8.3736,8.4542,8.418,8.3963,8.3818,8.2115,8.0187,7.8222,7.8557,7.9671,8.1346,8.1744,8.3301,8.5656,8.5402,8.5619,8.6416,8.6769,8.6733,8.6443,8.7467,8.7259,8.6018,8.6588,8.6344,8.5267,8.5547,8.4777,8.3039,8.3591,8.4714,8.637,8.7131,8.7375,8.6986,8.5945,8.4931,8.4035,8.255,8.0802,7.8774,7.7588,7.5659,7.2863,7.2283,7.135,6.9808,6.8894,6.8242,0.0,0.0,0.0,0.0,0.0,0.0,0.0,0.0,0.0,0.0,0.0,6.5336,0.0,6.6431,0.0,6.7382,6.7353,6.7491,6.7941,6.8297,6.8332,6.7924,6.9655,7.0263,6.8749,7.0263,7.1342,7.0995,7.2255,7.3515,7.4339,7.5108,7.5804,7.6167,7.6284,7.6284,7.6284,7.6284,7.6284,7.6284,7.661,7.6682,7.6428,7.661,7.6899,7.6972,7.6618,7.6473,7.6855,7.7262,7.7615,7.8086,7.8476,7.8955,7.9598,7.9562,7.9562,8.0287,8.1337,8.2179,9.1849,9.1803,9.0328,8.9748,8.9712,8.7694,8.6634,8.6308,8.5593,8.5619,8.6163,8.5475,8.4651,8.3863,8.4542,8.4977,8.5185,8.5873,8.666,8.7375,8.6815,8.6887,8.7628,8.8217,8.8244,8.7882,8.9712,8.9314,8.6887,8.7964,8.7918,8.6851,8.724,8.7809,8.8425,8.7177,8.6805,8.7447,8.8135,8.8099,8.7312,8.5909,8.4895,8.4361,8.2251,8.0214,7.8295,7.6891,7.508,7.2863,7.2682,7.2038,7.0641,7.0452,7.0097,0.0,6.8597,0.0,0.0,0.0,0.0,0.0,0.0,0.0,0.0,6.5598,6.6641,6.8046,6.8162,6.8423,6.9119,6.9199,6.9199,6.9199,6.9916,7.0134,6.9481,7.0806,7.1241,6.9808,7.0987,7.1957,7.1921,7.3152,7.4339,7.4991,7.5732,7.6211,7.6284,7.6284,7.6284,7.6284,7.6284,7.632,7.6537,7.7044,7.7262,7.6682,7.7153,7.7406,7.6818,7.6827,7.6863,7.708,7.7732,7.8086,7.8086,7.8774,7.9426,8.0187,8.0404,8.0658,8.1201,8.2179,8.332,9.2165,9.2672,9.173,9.173,9.2273,9.1839,9.0545,8.8744,8.8599,8.8227,8.7773,8.7592,8.6769,8.5484,8.5583,8.637,8.752,8.7701,8.8543,8.9929,8.9785,9.011,9.0825,9.039,9.0752,9.1766,9.1016,9.098,9.1632,9.0618,9.0654,9.1585,9.0499,9.0002,9.0147,0.0,0.0,0.0,9.0074,8.9785,8.8951,8.8036,8.5972,8.2876,8.1672,0.0,7.6005,7.5498,7.452,7.2826,7.2682,0.0,0.0,0.0,0.0,0.0,0.0,0.0,0.0,0.0,0.0,0.0,6.8358,6.8025,6.7402,6.8061,6.8656,6.8938,6.8974,6.9047,6.9199,6.9199,6.9199,6.9236,6.9916,7.0351,7.0242,7.2102,7.3072,7.2211,7.3434,7.4158,7.3579,7.4303,7.4919,7.5136,7.5804,7.6247,7.6284,7.6284,7.6284,7.6284,7.632,7.6537,7.7181,7.7406,7.7362,7.7406,7.7941,7.8303,7.8195,7.8702,7.9426,7.9888,8.0332,8.0585,8.1182,8.1509,8.1572,8.1798,8.2333,8.2659,8.2188,8.2296,8.2704,9.3805,0.0,9.2899,9.2853,0.0,9.3179,9.231,9.1125,9.0338,8.9531,8.8833,8.9195,8.8724,8.7657,8.8046,8.8408,8.8833,8.9195,8.9811,9.0618,9.1026,9.1414,9.1803,9.1776,9.2211,9.2961,9.2165,9.2201,9.2925,9.2175,9.2211,9.2998,9.2165,9.1776,9.1776,9.1776,9.1585,9.1197,9.04,8.9794,8.9386,8.8217,8.6298,8.3564,0.0,0.0,0.0,0.0,0.0,0.0,0.0,0.0,0.0,0.0,0.0,7.0923,7.0561,7.0343,7.0343,7.0343,7.0351,7.0343,7.0698,7.0416,6.9293,6.9192,6.9699,7.0786,7.0242,7.0097,7.0814,7.0597,7.0335,7.0379,7.1068,7.1531,7.1675,7.2935,7.3724,7.3434,7.3977,7.4484,7.452,7.481,7.5244,7.5615,7.6022,7.6284,7.6284,7.6284,7.6392,7.6791,7.6501,7.6565,7.7262,7.7108,7.6936,7.7008,7.7579,7.805,7.8122,7.8774,7.9562,8.0332,8.0794,8.1373,8.2115,8.2595,8.2885,8.2948,8.3528,8.4108,8.3999,8.3782,8.3564,9.5481,9.5481,9.4012,9.3867,9.4555,9.3768,9.3324,9.3106,0.0,0.0,0.0,9.0726,9.0654,9.0074,9.0726,9.0654,9.0084,9.0726,9.1016,9.1052,9.1704,9.2092,9.2237,9.2754,9.3143,9.3396,9.3153,9.3153,9.3396,9.3143,9.3143,9.337,9.3153,9.2998,9.2998,9.2998,9.2744,9.2165,9.0618,8.9821,8.9785,8.8254,8.6552,8.476,8.264,8.0576,7.8521,7.5941,7.4094,7.3152,7.2356,7.1849,7.1712,7.1595,7.1494,7.1494,7.1631,7.1704,7.1704,7.1704,7.1639,7.1531,7.2247,7.2146,7.0887,7.0206,7.0561,7.2356,7.1357,7.1176,7.2545,7.1957,7.1639,7.1885,7.2392,7.279,7.308,7.3687,7.4194,7.4311,7.442,7.4565,7.5217,7.5317,7.5534,7.6139,7.6284,7.6284,7.6284,7.6284,7.6501,7.6963,7.6654,7.661,7.737,7.7289,7.6791,7.7189,7.776,7.8022,7.7905,7.8629,7.9454,8.0142,8.0866,8.1744,8.2405,8.3175,8.361,8.3537,8.4252,8.5112,8.5656,8.5366,8.4931,9.5854,9.6351,9.5445,9.5517,9.6206,9.5409,9.4674,9.3965,9.3034,9.2599,9.2501,9.2599,9.261,9.2491,9.2599,9.2599,9.2491,9.2599,9.2672,0.0,9.278,9.3179,9.3831,9.3287,9.3732,9.4865,9.366,9.3732,9.4793,9.3696,9.3696,9.4721,9.3696,9.2998,9.2998,9.2998,9.3287,9.3794,9.2273,9.1487,9.1451,8.9893,8.7657,8.4832,8.3709,8.1391,7.7833,7.7217,7.6303,7.4846,7.4013,7.3253,7.2573,7.1921,7.1494,7.1531,7.2138,7.2537,7.2537,7.2529,7.2247,7.1631,7.2247,7.2609,7.2392,7.2283,7.2066,7.1776,7.1567,7.1712,7.2537,7.2066,7.2175,7.3261,7.3008,7.3225,7.4484,7.4774,7.5136,7.5768,7.5949,7.5921,7.603,7.6058,7.6102,7.6247,7.6284,7.632,7.6356,7.6284,7.6356,7.6428,7.6401,7.6936,7.7941,7.8448,7.8448,7.9318,7.9816,7.9861,7.881,8.0187,8.1309,8.1056,8.2106,8.2985,8.332,8.3963,8.418,8.389,8.4796,8.5728,8.5982,8.5837,8.5909,9.8368,9.7908,9.7499,9.7329,9.7184,9.6387,9.559,9.4819,9.4457,9.3805,9.3034,9.2998,9.2998,9.2998,9.2998,9.2998,9.2998,9.2998,9.2998,9.3034,9.3468,9.3831,9.4182,9.4276,9.4674,9.5311,9.4684,9.4684,9.5264,9.4648,9.4684,9.53,9.4638,9.4276,9.4312,9.4322,9.4457,9.4783,9.3261,9.2247,9.1776,9.0654,8.8734,8.6018,8.4786,8.313,8.0848,7.9064,7.7796,7.7063,7.547,7.4593,7.4609,7.3913,7.3659,7.4066,7.4428,7.4645,7.4645,7.4645,7.4509,7.4138,7.4428,7.4456,7.405,7.3579,7.3362,7.3434,7.3434,7.3579,7.3977,7.3651,7.3587,7.3832,7.3543,7.3832,7.4846,7.51,7.5426,7.6139,7.6284,7.6284,7.6284,7.6284,7.6284,7.6284,7.6284,7.6428,7.6863,7.6972,7.6936,7.6927,7.6963,7.7217,7.7977,7.8448,7.8629,7.8666,7.9635,8.0214,7.9997,8.1427,8.2152,8.2441,8.3057,8.36,8.3999,8.4434,8.4651,8.5049,8.5656,8.6407,8.6479,8.6515,8.6479,10.0831,9.9563,9.9346,9.8694,9.7752,9.6956,9.6242,9.5673,9.5445,9.4684,9.366,9.3551,9.3443,9.3287,9.3443,9.3551,9.3551,9.3551,9.3541,9.3624,9.4167,9.4482,9.4519,9.5119,9.5481,9.5626,9.5481,9.559,9.588,9.5771,9.5771,9.588,9.559,9.559,9.5916,9.5771,9.5735,9.5843,9.471,9.3505,9.2346,9.1549,9.0064,8.7928,8.6489,8.523,8.3999,8.1463,7.9897,7.9435,7.7389,7.6375,7.6791,7.6086,7.5832,7.6284,7.6646,7.6754,7.661,7.6754,7.6682,7.632,7.6465,7.6275,7.5724,7.5244,7.4846,7.4846,7.4701,7.4882,7.518,7.4919,7.4846,7.4854,7.4456,7.4738,7.5679,7.5607,7.5687,7.6392,7.6437,7.6284,7.6284,7.6284,7.6284,7.6284,7.6428,7.6827,7.7362,7.7624,7.776,7.776,7.776,7.7905,7.8014,7.8593,7.881,7.8303,7.9571,8.0549,8.1128,8.1817,8.2559,8.3066,8.332,8.3537,8.4071,8.4506,8.4868,8.533,8.6189,8.695,8.695,8.7158,8.7013,10.2001,10.111,10.0385,9.9201,9.7789,9.7003,9.6604,9.6423,9.5735,9.5347,9.5155,9.5155,9.4746,9.4265,9.4829,9.5083,9.5119,9.5155,9.5155,9.5119,9.5264,9.5311,9.5336,9.5409,9.5771,9.6314,9.5807,9.6206,9.7365,9.6821,9.6858,9.7329,9.6133,9.6133,9.7292,9.6858,9.6858,9.7582,9.7437,9.6268,9.4084,9.3179,9.1984,9.0328,8.9386,8.7901,8.5764,8.4687,8.3456,8.2007,8.0332,7.9136,7.8521,7.776,7.7044,7.6537,7.7724,7.8159,7.7588,7.8086,7.7941,7.6537,7.7117,7.7443,7.7334,7.7833,7.7,7.4991,7.4158,7.4955,7.5877,7.5072,7.547,7.7498,7.6258,7.5868,7.757,7.7072,7.6501,7.7289,7.6863,7.632,7.6428,7.6392,7.6364,7.6437,7.7,7.7515,7.7769,7.8231,7.8666,7.8629,7.8629,7.8919,7.9354,7.968,7.9933,8.0504,8.1391,8.1753,8.1808,8.2468,8.3284,8.3175,8.3102,8.3356,8.3247,8.3564,8.4687,8.5049,8.5936,8.6977,8.7085,8.7375,8.7447,10.3221,10.211,10.1748,10.0407,9.8622,9.8658,9.8187,9.7282,9.6966,9.6568,9.6216,9.6604,9.6133,9.4927,9.5264,9.5409,9.5409,9.5409,9.5673,9.6061,9.6097,9.6351,9.6785,9.6821,9.6992,9.7256,9.6966,9.7147,9.7608,9.7473,9.7499,9.7727,9.7111,9.7147,9.7763,9.7934,9.8187,9.8488,9.8513,9.8006,9.6992,9.5336,9.3406,9.1487,9.0545,8.9241,8.7384,8.609,8.4895,8.3709,8.2188,8.1391,8.1536,8.0775,8.0413,8.0558,8.1137,8.1391,8.1065,8.1355,8.1029,7.9915,7.968,7.9462,7.8955,7.881,7.8086,7.71,7.7164,7.7607,7.7688,7.7534,7.7824,7.8484,7.7796,7.7643,7.8484,7.8131,7.7869,7.8159,7.7941,7.747,7.7153,7.7008,7.7008,7.7117,7.7688,7.8303,7.881,7.92,7.9562,8.0033,8.0476,8.0232,7.968,8.0069,8.0649,8.1128,8.1789,8.2188,8.3193,8.3591,8.4071,8.3718,8.3573,8.3419,8.3211,8.3383,8.4108,8.4687,8.5402,8.6334,8.6334,8.6588,8.6634,10.4127,10.2979,10.2701,10.1458,9.9708,10.0023,9.9419,9.8187,9.7897,9.7473,9.7039,9.7546,9.7184,9.6133,9.5843,9.5807,9.6025,9.5843,9.6169,9.6858,9.693,9.7245,9.7763,9.7799,9.8042,9.8368,9.8223,9.8223,9.8404,9.8441,9.8441,9.8404,9.8017,9.8006,9.8477,9.9056,9.9419,9.9661,9.9853,9.9781,9.9165,9.7618,9.5373,9.2672,9.1451,9.0173,8.857,8.724,8.6153,8.533,8.399,8.3419,8.3782,8.3284,8.3211,8.3745,8.3818,8.3709,8.3537,8.3709,8.3501,8.2704,8.207,8.1527,8.0947,8.0332,8.0042,8.0042,8.0549,8.0404,7.9281,7.9354,7.9417,7.9318,7.9064,7.8838,7.9309,7.9064,7.8738,7.8955,7.8738,7.8484,7.7977,7.7833,7.7841,7.7914,7.8521,7.9164,7.9861,8.0223,8.0802,8.1382,8.2079,8.1681,7.9933,8.0513,8.1273,8.1373,8.1889,8.3057,8.4216,8.4434,8.4687,8.418,8.3818,8.3573,8.3456,8.3564,8.4216,8.5112,8.5909,8.638,8.6489,8.6308,8.6163,10.4405,10.3584,10.2907,10.211,10.1254,10.0603,9.9806,9.9056,9.8296,9.7872,9.7934,9.7897,9.7789,9.7691,9.7039,9.7003,9.7463,9.6858,9.7003,9.7716,9.7727,9.7752,9.7799,9.7836,9.8622,9.9853,9.9455,9.9455,10.0059,10.007,10.0107,10.0023,9.873,9.8669,9.9889,10.0215,10.053,10.1291,10.1929,10.1675,10.0324,9.9998,9.785,9.4374,9.2563,9.1052,8.9459,8.8534,8.7701,8.6904,8.609,8.5412,8.476,8.4605,8.4578,8.4651,8.4651,8.4325,8.3818,8.4252,8.4325,8.3637,8.3419,8.3356,8.313,8.2912,8.284,8.3166,8.2948,8.2224,8.0368,7.9752,7.9788,8.0685,7.9635,7.9635,8.0794,7.968,7.92,7.9562,7.9245,7.881,7.8666,7.8666,7.8666,7.881,7.9345,7.9924,8.0142,8.121,8.2007,8.226,8.2731,8.2876,8.1418,8.1454,8.1681,8.178,8.2405,8.3419,8.3745,8.4071,8.4424,8.446,8.3782,8.3456,8.36,8.4216,8.5122,8.5982,8.6805,8.7203,8.6525,8.6786,8.6398,10.4405,10.3692,10.3414,10.2871,10.2207,10.2352,10.199,10.1313,10.0998,10.0842,10.077,10.0324,10.0096,10.0059,9.9274,9.8477,9.7825,9.751,9.7789,9.8513,9.8585,9.8839,9.9335,9.9842,10.036,10.0892,10.1204,10.1458,10.1603,10.1229,10.1229,10.1519,10.065,10.0686,10.1628,10.2207,10.2606,10.2859,10.3185,10.2798,10.1639,10.0252,9.8223,9.5869,9.4157,9.2346,9.0219,8.9386,8.858,8.7809,8.7483,8.6977,8.6226,8.5728,8.5484,8.5484,8.5475,8.533,8.5122,8.5303,8.5366,8.5049,8.4542,8.4289,8.418,8.3827,8.3501,8.3537,8.3501,8.2948,8.2514,8.1934,8.1789,8.1753,8.1391,8.1128,8.1491,8.0902,8.0359,8.0468,7.9961,7.949,7.9562,7.949,7.9462,7.9607,8.0594,8.1101,8.102,8.2034,8.2921,8.2668,8.3347,8.3709,8.2115,8.2043,8.2233,8.2305,8.274,8.3274,8.3709,8.4144,8.4542,8.394,8.3362,8.3161,8.3257,8.4093,8.5124,8.5904,8.6817,8.6509,8.638,8.5909,8.5313,10.4598,10.4127,10.4091,10.3667,10.3052,10.3475,10.3305,10.2653,10.2581,10.2581,10.2472,10.199,10.1773,10.17,10.1193,10.0444,9.9321,9.8875,9.9165,10.0034,9.9636,9.9962,10.0867,10.1254,10.1653,10.2196,10.2968,10.3233,10.2907,10.2425,10.2316,10.2508,10.2026,10.2026,10.2653,10.3341,10.3692,10.3728,10.3946,10.362,10.2545,10.1023,9.9248,9.7473,9.5833,9.3686,9.1125,9.0473,8.9676,8.8751,8.857,8.8099,8.7085,8.6552,8.6163,8.5945,8.5909,8.6018,8.6226,8.6226,8.6235,8.6235,8.5764,8.5366,8.5086,8.4578,8.4325,8.4289,8.4252,8.4216,8.3999,8.4071,8.3854,8.2958,8.2704,8.2695,8.2668,8.2224,8.1916,8.1853,8.1491,8.1165,8.1047,8.1092,8.1128,8.1047,8.2079,8.2369,8.2215,8.2939,8.3745,8.3347,8.4497,8.475,8.3859,8.3529,8.2755,8.2638,8.2836,8.3298,8.3659,8.4103,8.41,8.3445,8.3079,8.2893,8.3193,8.3993,8.4727,8.5475,8.5182,8.4823,8.464,8.4439,8.3915,10.4887,10.4851,10.4887,10.438,10.3765,10.3801,10.3341,10.2834,10.2773,10.2834,10.2907,10.2653,10.2581,10.2581,10.2508,10.2472,10.2037,10.0903,10.0976,10.2037,10.0903,10.1059,10.2327,10.1881,10.2377,10.3584,10.4453,10.4417,10.3728,10.3547,10.3221,10.2809,10.2689,10.2689,10.2689,10.3475,10.3765,10.391,10.4441,10.4091,10.2809,10.2302,10.1059,9.8959,9.7318,9.5109,9.2129,9.1813,9.1052,8.9794,8.9495,8.8652,8.7457,8.7049,8.6696,8.6226,8.6018,8.6334,8.6904,8.7013,8.7013,8.6877,8.6904,8.6479,8.5837,8.5701,8.5656,8.5619,8.5629,8.5475,8.4941,8.5257,8.5086,8.3818,8.3492,8.3492,8.3492,8.3465,8.3465,8.3311,8.313,8.3392,8.3428,8.3093,8.2948,8.3021,8.3173,8.3291,8.3137,8.3748,8.4419,8.4693,8.5057,8.5143,8.5127,8.4993,8.3788,8.2901,8.3123,8.3409,8.3523,8.3843,8.3602,8.3094,8.3167,8.3,8.3289,8.4,8.4324,8.4741,8.3996,8.3494,8.3393,8.3262,8.2676,10.4887,10.4887,10.4887,10.4767,10.4525,10.4525,10.438,10.4199,10.4199,10.4199,10.4091,10.3584,10.3366,10.3341,10.3378,10.3378,10.3294,10.2787,10.2642,10.2545,10.2074,10.2074,10.2581,10.2859,10.3536,10.4405,10.4767,10.4779,10.4453,10.3971,10.3801,10.403,10.3631,10.3667,10.4091,10.4417,10.4525,10.4561,10.4767,10.4163,10.2689,10.2062,10.0867,9.9129,9.797,9.663,9.5145,9.3515,9.2428,9.1839,9.1342,9.0328,8.8915,8.8145,8.7737,8.752,8.7483,8.7556,8.7773,8.7809,8.7592,8.7158,8.7022,8.666,8.6018,8.5909,8.5909,8.5909,8.5909,8.5728,8.5629,8.5728,8.5412,8.447,8.4325,8.4325,8.4252,8.3899,8.3537,8.3501,8.3501,8.3501,8.3528,8.3564,8.3637,8.3617,8.3523,8.3502,8.3602,8.3849,8.3565,8.3751,8.4481,8.529,8.4978,8.4936,8.4507,8.3607,8.3564,8.3432,8.3519,8.362,8.3283,8.3068,8.3115,8.324,8.3522,8.383,8.41,8.3948,8.3365,8.2983,8.2661,8.2118,8.1427,10.4802,10.483,10.4442,10.4525,10.4864,10.4887,10.4887,10.4887,10.4887,10.4887,10.4767,10.4369,10.4152,10.4127,10.4127,10.4127,10.4152,10.4127,10.391,10.3378,10.2762,10.2871,10.3378,10.3873,10.4333,10.4815,10.4887,10.4887,10.4887,10.4453,10.4405,10.4706,10.438,10.4344,10.4851,10.4864,10.476,10.4335,10.424,10.3639,10.2559,10.1899,10.1062,9.9957,9.9129,9.8296,9.7427,9.5724,9.4338,9.3432,9.2418,9.1306,9.0328,8.9557,8.9077,8.9077,8.9077,8.9113,8.9087,8.9113,8.8724,8.8073,8.7628,8.7131,8.6479,8.6126,8.5909,8.5909,8.5909,8.5909,8.5909,8.5909,8.5665,8.523,8.5158,8.5158,8.5086,8.4723,8.447,8.447,8.447,8.4397,8.4388,8.4397,8.4388,8.4376,8.454,8.4627,8.4713,8.4641,8.4373,8.4329,8.51,8.5272,8.4647,8.4702,8.5007,8.4495,8.4034,8.3723,8.3522,8.3795,8.3739,8.3276,8.3168,8.3016,8.3258,8.3458,8.3643,8.3176,8.2754,8.2061,8.1536,8.0703,8.0137,10.4463,10.4679,10.3648,10.3915,10.483,10.4887,10.4887,10.4887,10.4887,10.4887,10.4887,10.4815,10.4803,10.4851,10.4779,10.4779,10.4851,10.4779,10.4743,10.4344,10.3631,10.3559,10.4525,10.4706,10.4803,10.4887,10.4887,10.4818,10.4607,10.4535,10.476,10.4406,10.4299,10.4607,10.4383,10.4607,10.4048,10.3463,10.3327,10.291,10.2246,10.2015,10.1701,10.1186,10.0449,9.9751,9.9006,9.8136,9.6666,9.4555,9.3034,9.2247,9.1813,9.1161,9.0726,9.0762,9.0726,9.0654,9.0654,9.0545,9.011,8.9205,8.858,8.7882,8.7049,8.6407,8.6126,8.609,8.5982,8.5945,8.5982,8.6054,8.6054,8.6054,8.5909,8.5801,8.5873,8.5801,8.5619,8.5682,8.5827,8.5706,8.541,8.5372,8.5276,8.5335,8.5546,8.5414,8.5733,8.528,8.5987,8.5808,8.5088,8.4782,8.3973,8.4284,8.457,8.4414,8.4031,8.3704,8.3368,8.3576,8.3736,8.3335,8.316,8.3034,8.2857,8.3014,8.3027,8.2806,8.2087,8.115,8.0361,7.9685,7.9618,10.2798,10.3562,10.3291,10.3855,10.4818,10.4887,10.4876,10.4876,10.4876,10.4864,10.4864,10.4887,10.4866,10.4876,10.4853,10.4887,10.496,10.4924,10.4887,10.4851,10.4561,10.4453,10.4851,10.4864,10.4853,10.483,10.4702,10.4466,10.3721,10.3636,10.3264,10.2401,10.2582,10.2492,10.2388,10.2517,10.2749,10.3152,10.3154,10.3167,10.2993,10.2293,10.1646,10.0995,10.0709,10.0506,10.0303,9.9836,9.8441,9.6169,9.501,9.4141,9.3624,9.2817,9.2392,9.2428,9.2356,9.2066,9.1632,9.1487,9.0881,8.9567,8.9205,8.8471,8.7131,8.6877,8.6769,8.6624,8.6271,8.6163,8.6588,8.6696,8.694,8.7339,8.6576,8.5934,8.5945,8.5909,8.5909,8.5862,8.5261,8.4872,8.4701,8.4354,8.401,8.3862,8.3744,8.3606,8.4474,8.3891,8.3733,8.3866,8.3515,8.3546,8.3543,8.385,8.4068,8.4049,8.3818,8.3471,8.3131,8.2966,8.298,8.2837,8.3123,8.31,8.2617,8.2428,8.2381,8.2558,8.1175,8.0135,7.9661,7.9136,7.9575,10.2489,10.3567,10.2827,10.3152,10.4192,10.4665,10.4655,10.4335,10.4713,10.4583,10.4276,10.418,10.436,10.4648,10.4324,10.4694,10.5276,10.5057,10.4887,10.4795,10.4323,10.4406,10.4678,10.4513,10.4192,10.412,10.3708,10.3078,10.2582,10.2456,10.21,10.1715,10.15,10.15,10.1621,10.1514,10.1479,10.172,10.1725,10.1835,10.1933,10.142,10.1022,10.0585,10.061,10.063,10.0727,10.0721,9.9563,9.751,9.6351,9.5833,9.5641,9.4602,9.4167,9.442,9.4203,9.3551,9.2573,9.2284,9.1559,9.0219,8.9686,8.8988,8.8181,8.7783,8.7529,8.7457,8.7049,8.7121,8.7375,8.752,8.7737,8.7843,8.6758,8.5987,8.6267,8.5682,8.5346,8.5048,8.4462,8.3833,8.3823,8.3508,8.3244,8.3066,8.3319,8.338,8.352,8.22,8.1584,8.2319,8.2459,8.2487,8.2529,8.2771,8.2825,8.289,8.3055,8.2839,8.2968,8.2601,8.24,8.2508,8.2902,8.2994,8.2472,8.2231,8.2615,8.2145,8.0499,7.9787,7.9638,7.9557,7.9921,10.2706,10.3821,10.2221,10.2123,10.315,10.418,10.3926,10.3339,10.3915,10.3914,10.3319,10.3181,10.3644,10.4262,10.3787,10.4193,10.5669,10.4744,10.4576,10.4143,10.3645,10.3498,10.4215,10.34,10.3076,10.2901,10.1955,10.1581,10.1357,10.1289,10.1258,10.1039,10.1081,10.1163,10.0962,10.1073,10.0634,10.0107,10.0107,10.0341,10.0461,10.023,10.0057,10.0216,10.0246,10.0561,10.0936,10.1135,10.0435,9.8296,9.7318,9.7245,9.7582,9.6387,9.5916,9.6133,9.5626,9.471,9.3298,9.2853,9.2247,9.0762,8.9893,8.9468,8.9169,8.8652,8.8326,8.8316,8.8244,8.8021,8.7988,8.8084,8.8059,8.7838,8.6536,8.6056,8.6231,8.5263,8.4221,8.4112,8.3359,8.2865,8.2917,8.3107,8.3182,8.1649,8.1928,8.2058,8.213,8.161,8.1493,8.2114,8.1969,8.1531,8.1571,8.1591,8.151,8.1541,8.1776,8.1935,8.2688,8.2502,8.2086,8.2092,8.2624,8.2588,8.2112,8.2203,8.2643,8.225,8.0934,8.068,8.0578,8.0598,8.0782,10.1032,10.1654,10.1813,10.1855,10.202,10.2714,10.2665,10.195,10.2175,10.2643,10.2664,10.2729,10.3174,10.3816,10.3618,10.3873,10.4269,10.3698,10.3124,10.2979,10.2259,10.2343,10.2793,10.2131,10.1862,10.1755,10.1648,10.0961,10.0319,10.0096,9.9919,9.968,9.9762,9.9621,9.9674,9.9713,9.9744,9.966,9.9667,10.007,10.0481,9.9984,9.9679,9.9837,9.9872,10.0556,10.1505,10.1839,10.146,10.0488,9.9266,9.8477,9.8491,9.7727,9.7039,9.664,9.6387,9.529,9.3541,9.2961,9.2346,9.098,9.0509,9.0074,8.9422,8.935,8.9169,8.9024,8.8596,8.8286,8.7944,8.7968,8.7861,8.7422,8.6133,8.5077,8.5081,8.3972,8.3101,8.2763,8.2014,8.1261,8.1237,8.087,8.0687,8.0225,8.0336,8.0456,8.0557,8.0683,8.0918,8.1219,8.1042,8.0574,8.0574,8.0554,8.0487,8.0625,8.0873,8.1188,8.1926,8.2613,8.2278,8.2275,8.2451,8.2216,8.187,8.1984,8.2366,8.1865,8.1525,8.1208,8.1075,8.1293,8.1591,10.1,10.1445,10.1834,10.1489,10.0983,10.237,10.2371,10.159,10.2215,10.2441,10.2321,10.2306,10.2772,10.3385,10.3121,10.3314,10.3946,10.3454,10.284,10.2329,10.1575,10.1138,10.0704,10.0362,10.0076,10.0501,10.0428,9.9784,9.9184,9.9225,9.9163,9.8621,9.8645,9.8646,9.8578,9.8612,9.8707,9.8825,9.8898,9.9269,9.962,9.9264,9.9279,9.9595,9.9748,10.037,10.1578,10.1335,10.1109,10.0693,9.986,9.936,9.9305,9.8477,9.7608,9.722,9.6314,9.5398,9.3975,9.3468,9.307,9.1813,9.1414,9.1233,9.0943,9.0799,9.0545,9.0336,8.9713,8.8869,8.7739,8.7582,8.7454,8.6908,8.5315,8.4263,8.4181,8.2923,8.1735,8.1558,8.0846,8.0349,7.9913,7.9771,7.9541,7.9689,8.0066,8.0145,7.936,7.9449,7.9475,7.9628,7.9674,7.9558,7.9558,7.9539,7.9513,7.9804,8.0288,8.0664,8.1224,8.1973,8.2613,8.2533,8.2367,8.2135,8.1856,8.2003,8.2268,8.2287,8.2121,8.1671,8.1771,8.2486,8.2585,10.1709,10.1916,10.2019,10.1194,10.0284,10.2251,10.2301,10.117,10.2433,10.2407,10.208,10.1916,10.2343,10.284,10.2466,10.3121,10.3675,10.354,10.2493,10.1592,10.083,10.0143,9.9438,9.8867,9.8712,9.9347,9.939,9.8896,9.8868,9.8932,9.9343,9.8664,9.8427,9.8698,9.8495,9.8206,9.8267,9.8203,9.8184,9.8184,9.8261,9.8169,9.8587,9.9106,9.9308,9.9864,10.071,10.0634,10.0251,10.0236,9.9825,9.9706,9.9479,9.9038,9.7934,9.7836,9.6677,9.5471,9.441,9.4048,9.3758,9.307,9.2418,9.2151,9.2296,9.1779,9.1247,9.0712,8.9907,8.8674,8.7243,8.683,8.6625,8.5963,8.4204,8.3458,8.3343,8.2045,8.1132,8.0878,8.0559,8.0189,7.9924,7.9754,7.9461,7.9235,7.9622,7.9708,7.8949,7.855,7.8762,7.8795,7.8961,7.9027,7.9027,7.9126,7.9027,7.9358,7.9869,8.0399,8.0843,8.1572,8.2254,8.232,8.2188,8.2088,8.2154,8.2419,8.2651,8.285,8.2718,8.2301,8.2817,8.3745,8.3612,10.1987,10.1565,10.2145,10.15,10.0393,10.134,10.1334,10.0461,10.087,10.1089,10.1542,10.1529,10.2,10.2443,10.255,10.2366,10.2308,10.2078,10.1489,10.0635,9.9921,9.9272,9.9059,9.8492,9.8304,9.8372,9.8895,9.9405,9.9577,9.9983,10.0084,10.0472,9.9965,9.9645,9.9408,9.9221,9.8476,9.819,9.8123,9.8123,9.8123,9.8052,9.8184,9.8576,9.8591,9.9062,9.9797,9.994,9.9931,10.0208,9.9644,9.903,9.8765,9.9119,9.882,9.7792,9.7145,9.5939,9.4589,9.4206,9.3768,9.3215,9.2848,9.2311,9.1986,9.1534,9.096,8.9524,8.8486,8.7265,8.61,8.5735,8.518,8.4315,8.3389,8.2523,8.2402,8.1698,8.1003,8.1162,8.0735,8.0139,7.9887,7.9562,7.9196,7.9009,7.9195,7.9348,7.8995,7.8682,7.8696,7.8663,7.855,7.8583,7.8583,7.8749,7.8848,7.9226,7.9723,8.0399,8.0896,8.144,8.1837,8.2254,8.2519,8.2651,8.2751,8.2883,8.295,8.3082,8.2983,8.2883,8.3446,8.401,8.4308,10.2401,10.1503,10.2198,10.1606,10.0558,10.1487,10.1521,10.0946,10.1201,10.1606,10.1893,10.1995,10.213,10.2418,10.252,10.2096,10.1571,10.1402,10.0946,10.0186,9.9491,9.9101,9.9085,9.8679,9.8882,9.9254,9.9913,9.9915,9.9762,10.0472,10.0777,10.0456,9.9983,9.9627,9.9457,9.8815,9.8645,9.8461,9.8578,9.8544,9.851,9.824,9.8249,9.8637,9.8352,9.8618,9.9352,9.9017,9.8906,9.9029,9.8985,9.8451,9.8219,9.8239,9.8372,9.7017,9.6398,9.5768,9.4605,9.4368,9.4156,9.3823,9.3429,9.2985,9.2471,9.1976,9.0619,8.8767,8.7373,8.6135,8.4639,8.4419,8.3967,8.3393,8.2561,8.2292,8.227,8.1708,8.1664,8.1647,8.0748,8.0116,7.9644,7.9313,7.8908,7.8828,7.8881,7.898,7.908,7.908,7.906,7.9093,7.9093,7.9226,7.9226,7.9292,7.9259,7.9491,7.9935,8.0598,8.1161,8.179,8.2254,8.2684,8.2916,8.295,8.3181,8.3248,8.3281,8.3314,8.3347,8.3446,8.3792,8.4156,8.454,10.2671,10.1672,10.2231,10.1776,10.0964,10.1945,10.2164,10.1841,10.2198,10.2434,10.252,10.2502,10.2468,10.252,10.2468,10.2164,10.1589,10.1537,10.0946,10.0186,9.9457,9.9101,9.9085,9.9109,9.9249,9.9809,10.049,10.0699,10.054,10.1081,10.1149,10.0912,10.0032,9.9575,9.9559,9.9187,9.8984,9.9119,9.9322,9.9288,9.8984,9.8606,9.8515,9.922,9.847,9.844,9.9047,9.8591,9.8169,9.8187,9.8106,9.7915,9.7454,9.7453,9.6886,9.5698,9.4998,9.4751,9.4501,9.4494,9.4387,9.4149,9.3759,9.335,9.2339,9.1175,8.9894,8.7981,8.657,8.5316,8.3841,8.3299,8.3179,8.2958,8.2495,8.2202,8.2528,8.2434,8.2348,8.1865,8.0796,8.0286,8.0021,8.012,7.9954,7.9358,7.9425,7.9756,7.9822,7.9822,7.9822,7.9822,7.9888,8.0101,8.0167,8.0247,8.02,8.0167,8.0664,8.1293,8.179,8.2287,8.2651,8.2883,8.2883,8.2983,8.3281,8.3432,8.3248,8.3248,8.3612,8.3844,8.3943,8.454,8.5169,10.2536,10.2367,10.2452,10.2384,10.2215,10.2418,10.2468,10.2401,10.2418,10.2486,10.252,10.252,10.252,10.252,10.252,10.2434,10.2096,10.1574,10.0864,9.9987,9.9397,9.9111,9.9075,9.879,9.9285,9.9929,10.0341,10.114,10.1449,10.195,10.2217,10.1847,10.1204,10.1047,10.0646,9.9967,10.0017,10.0051,10.0051,9.9728,9.9153,9.8932,9.8631,9.8354,9.8123,9.8077,9.8364,9.8126,9.8003,9.795,9.743,9.7126,9.6839,9.6357,9.5729,9.5264,9.5135,9.5232,9.4534,9.4281,9.4164,9.3956,9.3712,9.2881,9.1421,8.9546,8.7968,8.6497,8.5404,8.4601,8.3751,8.3213,8.302,8.3077,8.3082,8.2916,8.3016,8.3082,8.2983,8.2684,8.1856,8.1161,8.073,8.0962,8.1094,8.0432,8.0034,8.0366,8.0564,8.0564,8.0564,8.0564,8.0631,8.0829,8.1128,8.1208,8.1174,8.1042,8.144,8.197,8.2221,8.2552,8.2718,8.2883,8.2883,8.2883,8.3049,8.3115,8.2983,8.3148,8.3413,8.3678,8.3943,8.4705,8.5567,10.2874,10.252,10.252,10.252,10.252,10.252,10.252,10.252,10.252,10.252,10.252,10.252,10.252,10.2486,10.252,10.1978,10.1372,10.1042,10.0389,9.9601,9.9184,9.914,9.9278,9.9434,9.9824,10.0043,10.0615,10.115,10.1766,10.1882,10.1899,10.1831,10.1387,10.098,10.1145,10.0496,10.0542,10.0608,10.0438,9.9814,9.9187,9.8713,9.8375,9.8037,9.8021,9.8021,9.7987,9.7987,9.7987,9.7953,9.7631,9.7292,9.6969,9.656,9.612,9.5401,9.4937,9.4461,9.3776,9.3591,9.3432,9.3133,9.279,9.1747,9.0104,8.8861,8.7499,8.6464,8.5825,8.5068,8.4475,8.4247,8.4171,8.4128,8.3896,8.3962,8.3863,8.3598,8.3498,8.3215,8.2883,8.2168,8.1473,8.1307,8.1326,8.0896,8.0763,8.1194,8.1326,8.1326,8.1326,8.1326,8.1393,8.1525,8.1923,8.2188,8.2154,8.2069,8.2088,8.2486,8.2519,8.2718,8.285,8.2883,8.2883,8.2883,8.2883,8.2916,8.2983,8.3082,8.3181,8.3678,8.4161,8.479,8.5765,10.3009,10.252,10.2689,10.2671,10.252,10.252,10.252,10.252,10.252,10.252,10.252,10.2486,10.2454,10.2271,10.207,10.1398,10.0339,10.0182,9.9614,9.9083,9.8887,9.9125,9.9494,10.0014,10.02,10.0434,10.0702,10.102,10.1053,10.1153,10.122,10.1387,10.1379,10.1109,10.0956,10.0994,10.1149,10.1183,10.1081,10.0423,9.9593,9.9187,9.8781,9.8442,9.8273,9.8172,9.8021,9.7987,9.7987,9.7987,9.7953,9.7664,9.7292,9.7099,9.6666,9.5933,9.5247,9.4286,9.3526,9.2984,9.2629,9.224,9.1718,9.094,9.0022,8.9227,8.8343,8.6898,8.6619,8.5989,8.5335,8.5037,8.4904,8.4856,8.489,8.5022,8.4989,8.4393,8.3896,8.3579,8.3248,8.295,8.2287,8.1724,8.1426,8.1194,8.1459,8.1956,8.2088,8.2121,8.2088,8.2088,8.2121,8.2188,8.2386,8.2751,8.285,8.2883,8.2883,8.285,8.2784,8.2784,8.285,8.2883,8.2883,8.2883,8.2883,8.295,8.3016,8.3115,8.3314,8.3976,8.4525,8.5221,8.6115,10.257,10.257,10.3212,10.3077,10.252,10.252,10.252,10.252,10.252,10.252,10.2486,10.2454,10.2258,10.186,10.1257,10.0724,10.0145,9.8889,9.8823,9.8807,9.8658,9.918,9.9733,10.0069,10.0202,10.0601,10.0699,10.053,10.0427,10.058,10.0868,10.1303,10.1351,10.1468,10.1549,10.1608,10.1544,10.1558,10.1557,10.1201,10.0558,10.0269,10.0134,9.9153,9.8916,9.8713,9.8055,9.7987,9.7987,9.7987,9.7987,9.7941,9.7658,9.7485,9.7005,9.6366,9.5574,9.4621,9.3757,9.2966,9.2431,9.1953,9.1323,9.0669,9.0036,8.9648,8.8711,8.761,8.7367,8.6674,8.5798,8.5121,8.5453,8.5533,8.5666,8.5666,8.5434,8.4805,8.4308,8.3943,8.3711,8.3579,8.3513,8.3016,8.2486,8.2254,8.232,8.2817,8.2916,8.2916,8.2883,8.2883,8.285,8.2817,8.2751,8.2883,8.2883,8.2883,8.2883,8.2883,8.285,8.2883,8.2883,8.2883,8.2883,8.2883,8.2883,8.2916,8.2983,8.3115,8.348,8.4241,8.56,8.6777,8.7473,10.2637,10.1943,10.3077,10.3179,10.252,10.252,10.252,10.252,10.252,10.252,10.247,10.2208,10.1775,10.1242,10.0694,9.9875,9.9143,9.9283,9.9033,9.9085,9.9286,9.9768,10.0216,10.0233,10.0263,10.0462,10.0359,10.0308,10.0325,10.0308,10.0393,10.0784,10.1137,10.1153,10.1354,10.1684,10.1624,10.1365,10.146,10.1201,10.0558,10.0355,10.0168,9.9254,9.9101,9.8713,9.8123,9.8021,9.7987,9.7972,9.7972,9.7879,9.7724,9.7552,9.7212,9.6672,9.5912,9.5121,9.436,9.3359,9.2239,9.1346,9.1044,9.09,9.0355,8.9957,8.9593,8.8846,8.8184,8.7554,8.7289,8.6726,8.6542,8.6476,8.6376,8.6295,8.603,8.5467,8.5235,8.5117,8.4771,8.4492,8.4459,8.4393,8.3844,8.338,8.3513,8.3579,8.3678,8.3745,8.3711,8.3546,8.348,8.3215,8.3115,8.3016,8.2916,8.295,8.2983,8.3115,8.3181,8.2916,8.2916,8.2916,8.2916,8.295,8.295,8.2916,8.3049,8.3413,8.3943,8.4653,8.6229,8.8102,8.8765,10.2484,10.1825,10.262,10.2773,10.252,10.252,10.252,10.252,10.252,10.2421,10.229,10.1979,10.1498,10.0881,10.0315,9.965,9.8934,9.8953,9.9036,9.9186,9.9516,10.0076,10.0242,10.0325,10.0293,10.0308,10.0308,10.0308,10.0308,10.0308,10.0342,10.0427,10.058,10.0699,10.0868,10.122,10.1282,10.0892,10.1054,10.098,10.0325,10.0572,10.0451,9.9857,9.9852,9.9338,9.8747,9.8427,9.8147,9.7965,9.7786,9.7628,9.7458,9.7254,9.7096,9.664,9.6135,9.5543,9.4915,9.394,9.2605,9.2091,9.2124,9.1596,9.09,9.0818,9.0767,8.9791,8.9195,8.8798,8.8548,8.772,8.7238,8.7072,8.6973,8.6906,8.684,8.6476,8.6457,8.6358,8.6045,8.5765,8.5798,8.5765,8.5169,8.4606,8.4275,8.4341,8.4374,8.4473,8.4558,8.4326,8.4043,8.3711,8.3347,8.3181,8.3115,8.3446,8.348,8.3645,8.3612,8.3413,8.3281,8.338,8.3347,8.3148,8.3148,8.3215,8.3513,8.3877,8.4771,8.5946,8.7322,8.9063,8.971,10.1893,10.2367,10.1808,10.1927,10.247,10.252,10.252,10.252,10.252,10.229,10.1996,10.1864,10.1452,10.0786,10.0085,9.9436,9.9003,9.8653,9.8719,9.9233,9.9531,9.9811,10.0109,10.0308,10.0308,10.0308,10.0341,10.0341,10.0407,10.0341,10.0341,10.0374,10.0476,10.0393,10.0359,10.0732,10.0736,10.05,10.1101,10.0916,10.0747,10.1161,10.1023,10.0616,10.0609,10.0063,9.8983,9.8679,9.8266,9.7653,9.7521,9.7348,9.7064,9.6793,9.6633,9.6471,9.6163,9.5636,9.5007,9.4229,9.3716,9.3318,9.3202,9.2937,9.2638,9.244,9.1993,9.0834,9.0273,8.9626,8.8963,8.8301,8.7985,8.7635,8.7536,8.747,8.7437,8.7403,8.7304,8.7536,8.7451,8.7253,8.7238,8.7105,8.6461,8.5898,8.5302,8.5103,8.5169,8.5335,8.55,8.5169,8.4805,8.444,8.4043,8.3446,8.3314,8.3711,8.4043,8.4161,8.4393,8.4426,8.4275,8.4076,8.3943,8.391,8.3711,8.3579,8.4308,8.5202,8.6527,8.772,8.8963,8.9891,9.0487,10.2265,10.2486,10.2231,10.2102,10.2143,10.2405,10.252,10.252,10.247,10.2274,10.1914,10.1667,10.1002,10.0269,9.9767,9.9234,9.8702,9.9099,9.9199,9.9298,9.9696,10.0043,10.0275,10.0308,10.0308,10.0291,10.0324,10.0655,10.107,10.0672,10.0739,10.0821,10.0456,10.0341,10.041,10.0682,10.0819,10.0803,10.1153,10.1269,10.1052,10.1335,10.1233,10.0563,10.071,10.0085,9.8807,9.8772,9.8257,9.7475,9.7342,9.7067,9.6812,9.6538,9.6375,9.6262,9.6018,9.5935,9.567,9.5273,9.4743,9.4279,9.393,9.3815,9.3451,9.2921,9.2424,9.1861,9.1083,9.0388,8.9891,8.9262,8.8813,8.8217,8.8018,8.8018,8.7985,8.8018,8.8051,8.8533,8.8714,8.8714,8.8696,8.853,8.7952,8.7521,8.7024,8.6244,8.6078,8.6376,8.656,8.6078,8.5647,8.525,8.4805,8.4341,8.4275,8.4738,8.4838,8.4757,8.4989,8.5519,8.5202,8.4937,8.4805,8.4658,8.4805,8.507,8.5846,8.6807,8.8084,8.8912,8.9692,9.0487,9.1132,10.1747,10.208,10.1951,10.187,10.1805,10.227,10.2437,10.2306,10.2274,10.2012,10.1569,10.127,10.0652,9.9901,9.9599,9.9265,9.8702,9.9298,9.9662,9.9679,10.0043,10.0242,10.0308,10.0308,10.0308,10.0374,10.0622,10.0986,10.1284,10.092,10.0788,10.0755,10.0573,10.0374,10.0393,10.0547,10.0648,10.065,10.0851,10.0902,10.0936,10.1036,10.1003,10.0702,10.0517,10.0164,9.9244,9.8709,9.841,9.7793,9.7312,9.7065,9.6772,9.6444,9.6247,9.6051,9.6001,9.6001,9.5935,9.5935,9.5372,9.4842,9.4577,9.4411,9.4213,9.3848,9.3202,9.2556,9.1728,9.105,9.052,8.9957,8.9526,8.8945,8.8747,8.8747,8.8798,8.8798,8.9195,8.9692,9.0056,9.0105,9.0006,8.9825,8.9493,8.9144,8.8747,8.79,8.6973,8.7039,8.7238,8.684,8.6391,8.5946,8.568,8.5449,8.5515,8.5798,8.5931,8.5983,8.6546,8.7142,8.6494,8.5832,8.5699,8.5732,8.6196,8.6726,8.7554,8.8515,8.9674,9.0255,9.052,9.0966,9.1545,10.0422,10.1254,10.0983,10.1082,10.1457,10.2085,10.2209,10.1897,10.1881,10.1536,10.0952,10.0969,10.0434,9.9681,9.9977,9.9877,9.9497,9.9977,10.0142,10.0209,10.0275,10.0308,10.0308,10.0308,10.0407,10.0639,10.092,10.1284,10.1417,10.1251,10.0953,10.0589,10.0474,10.0341,10.0342,10.0359,10.0393,10.0444,10.0479,10.053,10.058,10.0716,10.0784,10.0702,10.0752,10.0469,9.9967,9.9683,9.9284,9.8618,9.7887,9.7458,9.6961,9.6399,9.6118,9.6001,9.6001,9.6001,9.6001,9.6001,9.6001,9.5604,9.5736,9.5505,9.5107,9.4643,9.3948,9.3235,9.244,9.1596,9.0851,9.0553,9.0255,8.9891,8.9593,8.9626,8.9707,8.9957,9.0454,9.0884,9.1264,9.1331,9.1066,9.0867,9.0436,9.0237,8.9774,8.9195,8.8283,8.7271,8.7403,8.747,8.7006,8.6608,8.6476,8.6708,8.6925,8.7322,8.7687,8.7837,8.84,8.8467,8.787,8.7256,8.6741,8.6807,8.7422,8.8349,8.9409,9.0337,9.0801,9.0999,9.1066,9.1198,9.1611,10.0925,10.1016,10.1425,10.121,10.0793,10.1399,10.1767,10.1848,10.1668,10.127,10.0901,10.0901,10.0432,10.0093,10.0225,10.0109,10.0109,10.0175,10.0275,10.0308,10.0308,10.0308,10.0308,10.0341,10.0606,10.0953,10.1284,10.1616,10.1914,10.1748,10.1384,10.1086,10.049,10.0374,10.0308,10.0308,10.0308,10.0308,10.0308,10.0308,10.0308,10.0444,10.0546,10.058,10.0631,10.0334,9.9951,9.9751,9.9235,9.8521,9.7691,9.7177,9.7078,9.6416,9.6001,9.6001,9.6001,9.6001,9.6001,9.6001,9.6001,9.6001,9.6001,9.5968,9.5604,9.5173,9.4478,9.3699,9.3135,9.2391,9.1728,9.1364,9.1116,9.0884,9.0801,9.0966,9.1032,9.1032,9.1496,9.1761,9.2159,9.181,9.1611,9.1446,9.1032,9.0966,9.0701,9.0123,8.9427,8.8349,8.7867,8.7919,8.7919,8.7587,8.8117,8.8433,8.8614,8.8813,8.9111,8.9244,8.9262,8.9228,8.8997,8.868,8.815,8.8283,8.8747,8.9707,9.0569,9.0851,9.1282,9.1463,9.1644,9.1777,9.1909,10.0042,9.9997,10.0428,10.0232,9.9883,10.0452,10.0902,10.1051,10.1153,10.1019,10.0665,10.0349,10.0131,9.9878,9.9844,9.9844,9.9877,10.0175,10.0308,10.0308,10.0308,10.0308,10.0308,10.0341,10.049,10.092,10.1318,10.1583,10.198,10.1748,10.1318,10.0854,10.0423,10.0374,10.0308,10.0308,10.0308,10.0308,10.0308,10.0308,10.0308,10.0308,10.0308,10.0308,10.0308,10.0043,9.9745,9.9696,9.9397,9.8867,9.8188,9.7558,9.7327,9.6664,9.6035,9.6001,9.6001,9.6001,9.6001,9.6001,9.6001,9.6001,9.6001,9.6001,9.5902,9.5571,9.4743,9.3948,9.3649,9.3285,9.2722,9.2208,9.2059,9.1911,9.2192,9.244,9.234,9.2141,9.2324,9.2556,9.2391,9.2009,9.1777,9.1677,9.1512,9.1297,9.0966,9.0454,8.9875,8.9162,8.8747,8.8714,8.8765,8.8732,8.9328,8.9725,8.9725,8.9873,9.0237,9.0337,9.0204,8.9957,8.9725,8.9659,8.956,8.9758,8.999,9.0668,9.1397,9.1695,9.1977,9.2258,9.2406,9.234,9.2506,9.833,9.8606,9.8665,9.8919,9.8953,9.9635,9.9885,9.9902,10.0501,10.0598,10.0227,9.9713,9.9564,9.9679,9.9696,9.9662,9.9811,10.0109,10.0308,10.0308,10.0308,10.0308,10.0341,10.039,10.0821,10.0854,10.1284,10.2196,10.1814,10.1583,10.1152,10.0456,10.0324,10.0291,10.0308,10.0308,10.0308,10.0308,10.0308,10.0308,10.0308,10.0308,10.0308,10.0308,10.0308,10.0275,10.0275,10.0275,10.0308,9.9811,9.9082,9.8205,9.7343,9.673,9.6167,9.6134,9.6167,9.6101,9.6118,9.6151,9.6101,9.6068,9.6001,9.6001,9.5935,9.5869,9.5173,9.4478,9.4146,9.3749,9.3235,9.3102,9.2987,9.3053,9.3285,9.3484,9.3517,9.3153,9.2837,9.2921,9.2656,9.2274,9.2141,9.2108,9.2473,9.1927,9.1662,9.1249,9.0686,9.0123,8.9725,8.956,8.9493,8.9626,9.0023,9.0355,9.0553,9.0801,9.1099,9.1214,9.0949,9.0701,9.0454,9.0686,9.0999,9.1017,9.1264,9.2026,9.2523,9.2623,9.2921,9.3153,9.3235,9.3135,9.3268,9.836,9.8269,9.8567,9.9136,9.9848,9.9818,9.9934,10.0113,9.9798,9.9946,10.0226,10.0142,10.0043,9.9977,9.991,9.9877,10.0076,10.0142,10.0275,10.0308,10.0308,10.0308,10.044,10.0688,10.1185,10.2046,10.2693,10.2859,10.2859,10.2179,10.1583,10.1715,10.1053,10.0308,10.0308,10.0308,10.0308,10.0308,10.0308,10.0308,10.0308,10.0308,10.0308,10.0308,10.0308,10.0308,10.0308,10.0308,10.0308,10.0076,9.89,9.7741,9.6532,9.62,9.6035,9.6101,9.6432,9.6316,9.6233,9.6283,9.6349,9.6134,9.6001,9.6001,9.6001,9.6001,9.5703,9.5074,9.461,9.4213,9.3914,9.393,9.3997,9.4146,9.4312,9.4478,9.461,9.4014,9.3418,9.3102,9.287,9.2738,9.2605,9.2771,9.3168,9.3268,9.3268,9.2954,9.2291,9.1662,9.0818,9.0553,9.0288,9.0388,9.0734,9.09,9.1032,9.1165,9.1379,9.1512,9.1611,9.1728,9.1794,9.2225,9.2506,9.2358,9.2623,9.3616,9.3981,9.3716,9.3749,9.3981,9.4113,9.408,9.4246,9.7555,9.7446,9.7822,9.8123,9.8437,9.8853,9.9218,9.9315,9.9298,9.9679,10.0175,10.0043,10.001,10.0142,10.001,10.0142,10.0242,10.0308,10.0308,10.0308,10.0308,10.0308,10.054,10.0788,10.0854,10.1633,10.1898,10.2196,10.3024,10.2031,10.1152,10.1748,10.0887,10.0341,10.0341,10.0308,10.0308,10.0308,10.0308,10.0308,10.0308,10.0308,10.0308,10.0308,10.0308,10.0308,10.0308,10.0308,10.0308,9.9944,9.8933,9.784,9.683,9.625,9.6035,9.6101,9.6266,9.6432,9.63,9.6333,9.6482,9.6167,9.6001,9.6001,9.6001,9.5968,9.567,9.514,9.5372,9.5074,9.4776,9.4693,9.4941,9.5173,9.5173,9.5206,9.5008,9.4544,9.3948,9.3434,9.3318,9.3351,9.3268,9.3268,9.3583,9.3583,9.3749,9.3599,9.3135,9.297,9.2159,9.1481,9.1183,9.1032,9.1198,9.1346,9.1412,9.1545,9.1677,9.1876,9.2141,9.2771,9.3219,9.3318,9.3434,9.3467,9.3914,9.4544,9.4676,9.4345,9.4511,9.4776,9.4875,9.4941,9.5074,9.6588,9.6624,9.6961,9.6863,9.6532,9.7658,9.8321,9.852,9.905,9.9696,10.0209,9.9745,9.9844,9.991,9.9778,9.9977,10.0142,10.0275,10.0308,10.0308,10.0308,10.0308,10.0374,10.049,10.0887,10.1119,10.1434,10.1616,10.2031,10.1501,10.1467,10.1318,10.0887,10.039,10.0341,10.0308,10.0308,10.0308,10.0308,10.0308,10.0308,10.0308,10.0308,10.0308,10.0308,10.0308,10.0308,10.0308,10.0308,9.9877,9.9165,9.8205,9.7476,9.6863,9.6664,9.6664,9.6714,9.6598,9.6333,9.6366,9.6266,9.6068,9.6035,9.6001,9.6001,9.5869,9.5538,9.5571,9.5836,9.5803,9.5471,9.5405,9.5703,9.5869,9.5836,9.567,9.5273,9.4941,9.4411,9.3864,9.3848,9.3914,9.3981,9.3948,9.4047,9.4047,9.3881,9.355,9.3351,9.3467,9.3153,9.249,9.1993,9.1861,9.1677,9.1644,9.1677,9.1943,9.2108,9.234,9.2705,9.3418,9.3881,9.3981,9.408,9.4345,9.4378,9.471,9.4776,9.4908,9.514,9.5356,9.5505,9.5571,9.577,9.6692,9.6978,9.7078,9.7293,9.7741,9.8089,9.8503,9.9066,9.9249,9.9696,10.0142,10.0242,10.0242,10.0258,10.0209,10.0242,10.0242,10.0308,10.0308,10.0308,10.0308,10.0308,10.0407,10.0622,10.145,10.1781,10.2064,10.2561,10.2163,10.2428,10.2296,10.1417,10.1318,10.0821,10.0341,10.0308,10.0308,10.0308,10.0308,10.0308,10.0308,10.0308,10.0308,10.0308,10.0308,10.0308,10.0308,10.0308,10.0308,10.0043,9.953,9.8735,9.8138,9.7708,9.7476,9.7227,9.7277,9.6995,9.6763,9.6581,9.6399,9.6035,9.6001,9.6001,9.6001,9.6001,9.5836,9.5836,9.5968,9.5968,9.577,9.577,9.5968,9.5968,9.5935,9.5604,9.524,9.5008,9.471,9.4478,9.4445,9.4577,9.471,9.4908,9.5306,9.5273,9.524,9.4875,9.4246,9.4179,9.408,9.3418,9.2755,9.2174,9.1744,9.1777,9.1876,9.2208,9.2638,9.3069,9.3566,9.4213,9.4577,9.4676,9.5074,9.5438,9.5438,9.5107,9.5372,9.5571,9.5736,9.5886,9.6001,9.6001,9.6001]},{"header":{"parameterUnit":"m.s-1","parameterCategory":1,"la1":31.0,"la2":29.5877,"lo1":-88.7671,"lo2":-86.6584,"dx":0.0162,"dy":0.0185,"nx":115,"ny":88,"refTime":"2023-02-01T06:00:00:Z","depth":0,"parameterNumber":3,"parameterNumberName":"V-component_of_WINDS"},"data":[0.0,0.0,0.0,0.0,0.0,0.0,0.0,0.0,0.0,0.0,0.0,0.0,0.0,0.0,0.0,0.0,0.0,0.0,0.0,0.0,0.0,0.0,0.0,0.0,0.0,0.0,0.0,0.0,0.0,0.0,0.0,0.0,0.0,0.0,0.0,0.0,0.0,0.0,0.0,0.0,0.0,0.0,0.0,0.0,0.0,0.0,0.0,0.0,0.0,0.0,0.0,0.0,0.0,0.0,0.0,0.0,0.0,0.0,0.0,0.0,0.0,0.0,0.0,0.0,0.0,0.0,0.0,0.0,0.0,0.0,0.0,0.0,0.0,0.0,0.0,0.0,0.0,0.0,0.0,0.0,0.0,0.0,0.0,0.0,0.0,0.0,0.0,0.0,0.0,0.0,0.0,0.0,0.0,0.0,0.0,0.0,0.0,0.0,0.0,0.0,0.0,0.0,0.0,0.0,0.0,0.0,0.0,0.0,0.0,0.0,0.0,0.0,0.0,0.0,0.0,0.0,0.0,0.0,0.0,0.0,0.0,0.0,0.0,0.0,0.0,0.0,0.0,0.0,0.0,0.0,0.0,0.0,0.0,0.0,0.0,0.0,0.0,0.0,0.0,0.0,0.0,0.0,0.0,0.0,0.0,0.0,0.0,0.0,0.0,0.0,0.0,0.0,0.0,0.0,0.0,0.0,0.0,0.0,0.0,0.0,0.0,0.0,0.0,0.0,0.0,0.0,0.0,0.0,0.0,0.0,0.0,0.0,0.0,0.0,0.0,0.0,0.0,0.0,0.0,0.0,0.0,0.0,0.0,0.0,0.0,0.0,0.0,0.0,0.0,0.0,0.0,0.0,0.0,0.0,0.0,0.0,0.0,0.0,0.0,0.0,0.0,0.0,0.0,0.0,0.0,0.0,0.0,0.0,0.0,0.0,0.0,0.0,0.0,0.0,0.0,0.0,0.0,0.0,0.0,0.0,0.0,0.0,0.0,0.0,0.0,0.0,0.0,0.0,0.0,0.0,0.0,0.0,0.0,0.0,0.0,0.0,0.0,0.0,0.0,0.0,0.0,0.0,0.0,0.0,0.0,0.0,0.0,0.0,0.0,0.0,0.0,0.0,0.0,0.0,0.0,0.0,0.0,0.0,0.0,0.0,0.0,0.0,0.0,0.0,0.0,0.0,0.0,0.0,0.0,0.0,0.0,0.0,0.0,0.0,0.0,0.0,0.0,0.0,0.0,0.0,0.0,0.0,0.0,0.0,0.0,0.0,0.0,0.0,0.0,0.0,0.0,0.0,0.0,0.0,0.0,0.0,0.0,0.0,0.0,0.0,0.0,0.0,0.0,0.0,0.0,0.0,0.0,0.0,0.0,0.0,0.0,0.0,0.0,0.0,0.0,0.0,0.0,0.0,0.0,0.0,0.0,0.0,0.0,0.0,0.0,0.0,0.0,0.0,0.0,0.0,0.0,0.0,0.0,0.0,0.0,0.0,0.0,0.0,0.0,0.0,0.0,0.0,0.0,0.0,0.0,0.0,0.0,0.0,0.0,0.0,0.0,0.0,0.0,0.0,0.0,0.0,0.0,0.0,0.0,0.0,0.0,0.0,0.0,0.0,0.0,0.0,0.0,0.0,0.0,0.0,0.0,0.0,0.0,0.0,0.0,0.0,0.0,0.0,0.0,0.0,0.0,0.0,0.0,0.0,0.0,0.0,0.0,0.0,0.0,0.0,0.0,0.0,0.0,0.0,0.0,0.0,0.0,0.0,0.0,0.0,0.0,0.0,0.0,0.0,0.0,0.0,0.0,0.0,0.0,0.0,0.0,0.0,0.0,0.0,0.0,0.0,0.0,0.0,0.0,0.0,0.0,0.0,0.0,0.0,0.0,0.0,0.0,0.0,0.0,0.0,0.0,0.0,0.0,0.0,0.0,0.0,0.0,0.0,0.0,0.0,0.0,0.0,0.0,0.0,0.0,0.0,0.0,0.0,0.0,0.0,0.0,0.0,0.0,0.0,0.0,0.0,0.0,0.0,0.0,0.0,0.0,0.0,0.0,0.0,0.0,0.0,0.0,0.0,0.0,0.0,0.0,0.0,0.0,0.0,0.0,0.0,0.0,0.0,0.0,0.0,0.0,0.0,0.0,0.0,0.0,0.0,0.0,0.0,0.0,0.0,0.0,0.0,0.0,0.0,0.0,0.0,0.0,0.0,0.0,0.0,0.0,0.0,0.0,0.0,0.0,0.0,0.0,0.0,0.0,0.0,0.0,0.0,0.0,0.0,0.0,0.0,0.0,0.0,0.0,0.0,0.0,0.0,0.0,0.0,0.0,0.0,0.0,0.0,0.0,0.0,0.0,0.0,0.0,0.0,0.0,0.0,0.0,0.0,0.0,0.0,0.0,0.0,0.0,0.0,0.0,0.0,0.0,0.0,0.0,0.0,0.0,0.0,0.0,0.0,0.0,0.0,0.0,0.0,0.0,0.0,0.0,0.0,0.0,0.0,0.0,0.0,0.0,0.0,0.0,0.0,0.0,0.0,0.0,0.0,0.0,0.0,0.0,0.0,0.0,0.0,0.0,0.0,0.0,0.0,0.0,0.0,0.0,0.0,0.0,0.0,0.0,0.0,0.0,0.0,0.0,0.0,0.0,0.0,0.0,0.0,0.0,0.0,0.0,0.0,0.0,0.0,0.0,0.0,0.0,0.0,0.0,0.0,0.0,0.0,0.0,0.0,0.0,0.0,0.0,0.0,0.0,0.0,0.0,0.0,0.0,0.0,0.0,0.0,0.0,0.0,0.0,0.0,0.0,0.0,0.0,0.0,0.0,0.0,0.0,0.0,0.0,0.0,0.0,0.0,0.0,0.0,0.0,0.0,0.0,0.0,0.0,0.0,0.0,0.0,0.0,0.0,0.0,0.0,0.0,0.0,0.0,0.0,0.0,0.0,0.0,0.0,0.0,0.0,0.0,0.0,0.0,0.0,0.0,0.0,0.0,0.0,0.0,0.0,0.0,0.0,0.0,0.0,0.0,0.0,0.0,0.0,0.0,0.0,0.0,0.0,0.0,0.0,0.0,0.0,0.0,0.0,0.0,0.0,0.0,0.0,0.0,0.0,0.0,0.0,0.0,0.0,0.0,0.0,0.0,0.0,0.0,0.0,0.0,0.0,0.0,0.0,0.0,0.0,0.0,0.0,0.0,0.0,0.0,0.0,0.0,0.0,0.0,0.0,0.0,0.0,0.0,0.0,0.0,0.0,0.0,0.0,0.0,0.0,0.0,0.0,0.0,0.0,0.0,0.0,0.0,0.0,0.0,0.0,0.0,0.0,0.0,0.0,0.0,0.0,0.0,0.0,0.0,0.0,0.0,0.0,0.0,0.0,0.0,0.0,0.0,0.0,0.0,0.0,0.0,0.0,0.0,0.0,0.0,0.0,0.0,0.0,0.0,0.0,0.0,0.0,0.0,0.0,0.0,0.0,0.0,0.0,0.0,0.0,0.0,0.0,0.0,0.0,0.0,0.0,0.0,0.0,0.0,0.0,0.0,0.0,0.0,0.0,0.0,0.0,0.0,0.0,0.0,0.0,0.0,0.0,0.0,0.0,0.0,0.0,0.0,0.0,0.0,0.0,0.0,0.0,0.0,0.0,0.0,0.0,0.0,0.0,0.0,0.0,0.0,0.0,0.0,0.0,0.0,0.0,0.0,0.0,0.0,0.0,0.0,0.0,0.0,0.0,0.0,0.0,0.0,0.0,0.0,0.0,0.0,0.0,0.0,0.0,0.0,0.0,0.0,0.0,0.0,0.0,0.0,0.0,0.0,0.0,0.0,0.0,0.0,0.0,0.0,0.0,0.0,0.0,0.0,0.0,0.0,0.0,0.0,0.0,0.0,0.0,0.0,0.0,0.0,0.0,0.0,0.0,0.0,0.0,0.0,0.0,0.0,0.0,0.0,0.0,0.0,0.0,0.0,0.0,0.0,0.0,0.0,0.0,0.0,0.0,0.0,0.0,0.0,0.0,0.0,0.0,0.0,0.0,0.0,0.0,0.0,0.0,0.0,0.0,0.0,0.0,0.0,0.0,0.0,0.0,0.0,0.0,0.0,0.0,0.0,0.0,0.0,0.0,0.0,0.0,0.0,0.0,0.0,0.0,0.0,0.0,0.0,0.0,0.0,0.0,0.0,0.0,0.0,0.0,0.0,0.0,0.0,0.0,0.0,0.0,0.0,0.0,0.0,0.0,0.0,0.0,0.0,0.0,0.0,0.0,0.0,0.0,0.0,0.0,1.2807,0.0,0.0,0.0,0.0,0.0,0.0,0.0,0.0,0.0,0.0,0.0,0.0,0.0,0.0,0.0,0.0,0.0,0.0,0.0,0.0,0.0,0.0,0.0,0.0,0.0,0.0,0.0,0.0,0.0,0.0,0.0,0.0,0.0,0.0,0.0,0.0,0.0,0.0,0.0,0.0,0.0,0.0,0.0,0.0,0.0,0.0,0.0,0.0,0.0,0.0,0.0,0.0,0.0,0.0,0.0,0.0,0.0,0.0,0.0,0.0,0.0,0.0,0.0,0.0,0.0,0.0,0.0,0.0,0.0,0.0,0.0,0.0,0.0,0.0,0.0,0.0,0.0,0.0,0.0,0.0,0.0,0.0,0.0,0.0,0.0,0.0,0.0,0.0,0.0,0.0,0.0,0.0,0.0,0.0,0.0,0.0,0.0,0.0,0.0,0.0,0.0,0.0,0.0,0.0,0.0,0.0,0.0,0.0,0.0,0.0,1.2962,1.2962,1.2962,1.2896,1.2807,0.0,0.0,0.0,0.0,0.0,0.0,0.0,0.0,0.0,0.0,0.0,0.0,0.0,0.0,0.0,0.0,0.0,0.0,0.0,0.0,0.0,0.0,0.0,0.0,0.0,0.0,0.0,0.0,0.0,0.0,0.0,0.0,0.0,0.0,0.0,0.0,0.0,0.0,0.0,0.0,0.0,0.0,0.0,0.0,0.0,0.0,0.0,0.0,0.0,0.0,0.0,0.0,0.0,0.0,0.0,0.0,0.0,0.0,0.0,0.0,0.0,0.0,0.0,0.0,0.0,0.0,0.0,0.0,0.0,0.0,0.0,0.0,0.0,0.0,0.0,0.0,0.0,0.0,0.0,0.0,0.0,0.0,0.0,0.0,0.0,0.0,0.0,0.0,0.0,0.0,0.0,0.0,0.0,0.0,0.0,0.0,0.0,0.0,0.0,0.0,0.0,0.0,0.0,0.0,0.0,0.0,0.0,0.0,0.0,0.0,0.0,0.0,1.3092,1.3011,1.2799,0.0,0.0,0.0,0.0,0.0,0.0,0.0,0.0,0.0,0.0,0.0,0.0,0.0,0.0,0.0,0.0,0.0,0.0,0.0,0.0,0.0,0.0,0.0,0.0,0.0,0.0,0.0,0.0,0.0,0.0,0.0,0.0,0.0,0.0,0.0,0.0,0.0,0.0,0.0,0.0,0.0,0.0,0.0,0.0,0.0,0.0,0.0,0.0,0.0,0.0,0.0,0.0,0.0,0.0,0.0,0.0,0.0,0.0,0.0,0.0,0.0,0.0,0.0,0.0,0.0,0.0,0.0,0.0,0.0,0.0,0.0,0.0,0.0,0.0,0.0,0.0,0.0,0.0,0.0,0.0,0.0,0.0,0.0,0.0,0.0,0.0,0.0,0.0,0.0,0.0,0.0,0.0,0.0,0.0,0.0,0.0,0.0,0.0,0.0,0.0,0.0,0.0,0.0,0.0,0.0,0.0,0.0,0.0,0.0,0.0,1.3092,1.3092,1.3092,0.0,1.2799,0.0,0.0,0.0,0.0,0.0,0.0,0.0,0.0,0.0,0.0,0.0,0.0,0.0,0.0,0.0,0.0,0.0,0.0,0.0,0.0,0.0,0.0,0.0,0.0,0.0,0.0,0.0,0.0,0.0,0.0,0.0,0.0,0.0,0.0,0.0,0.0,0.0,0.0,0.0,0.0,0.0,0.0,0.0,0.0,0.0,0.0,0.0,0.0,0.0,0.0,0.0,0.0,0.0,0.0,0.0,0.0,0.0,0.0,0.0,0.0,0.0,0.0,0.0,0.0,0.0,0.0,0.0,0.0,0.0,0.0,0.0,0.0,0.0,0.0,0.0,0.0,0.0,0.0,0.0,0.0,0.0,0.0,0.0,0.0,0.0,0.0,0.0,0.0,0.0,0.0,0.0,0.0,0.0,0.0,0.0,0.0,0.0,0.0,0.0,0.0,0.0,0.0,0.0,0.0,0.0,0.0,0.0,0.0,0.0,0.0,1.3279,1.3279,1.3051,1.2897,0.0,0.0,0.0,0.0,0.0,0.0,0.0,0.0,0.0,0.0,0.0,0.0,0.0,0.0,0.0,0.0,0.0,0.0,0.0,0.0,0.0,0.0,0.0,0.0,0.0,0.0,0.0,0.0,0.0,0.0,0.0,0.0,0.0,0.0,0.0,0.0,0.0,0.0,0.0,0.0,0.0,0.0,0.0,0.0,0.0,0.0,0.0,0.0,0.0,0.0,0.0,0.0,0.0,0.0,0.0,0.0,0.0,0.0,0.0,0.0,0.0,0.0,0.0,0.0,0.0,0.0,0.0,0.0,0.0,0.0,0.0,0.0,0.0,0.0,0.0,0.0,0.0,0.0,0.0,0.0,0.0,0.0,0.0,0.0,0.0,0.0,0.0,0.0,0.0,0.0,0.0,0.0,0.0,0.0,0.0,0.0,0.0,0.0,0.0,0.0,0.0,0.0,0.0,0.0,0.0,0.0,0.0,0.0,0.0,0.0,1.3312,1.3329,1.3296,1.2986,1.2783,1.2783,0.0,0.0,0.0,0.0,0.0,0.0,0.0,0.0,0.0,0.0,0.0,0.0,0.0,0.0,0.0,0.0,0.0,0.0,0.0,0.0,0.0,0.0,0.0,0.0,0.0,0.0,0.0,0.0,0.0,0.0,0.0,0.0,0.0,0.0,0.0,0.0,0.0,0.0,0.0,0.0,0.0,0.0,0.0,0.0,0.0,0.0,0.0,0.0,0.0,0.0,0.0,0.0,0.0,0.0,0.0,0.0,0.0,0.0,0.0,0.0,0.0,0.0,0.0,0.0,0.0,0.0,0.0,0.0,0.0,0.0,0.0,0.0,0.0,0.0,0.0,0.0,0.0,0.0,0.0,0.0,0.0,0.0,0.0,0.0,0.0,0.0,0.0,0.0,0.0,0.0,0.0,0.0,0.0,0.0,0.0,0.0,0.0,0.0,0.0,0.0,0.0,0.0,0.0,0.0,0.0,0.0,0.0,0.0,1.31,1.3133,1.3108,1.3133,1.2913,1.2783,0.0,0.0,0.0,0.0,0.0,0.0,0.0,0.0,0.0,0.0,0.0,0.0,0.0,0.0,0.0,0.0,0.0,0.0,0.0,0.0,0.0,0.0,0.0,0.0,0.0,0.0,0.0,0.0,0.0,0.0,0.0,0.0,0.0,0.0,0.0,0.0,0.0,0.0,0.0,0.0,0.0,0.0,0.0,0.0,0.0,0.0,0.0,0.0,0.0,0.0,0.0,0.0,0.0,0.0,0.0,0.0,0.0,0.0,0.0,0.0,0.0,0.0,0.0,0.0,0.0,0.0,0.0,0.0,0.0,0.0,0.0,0.0,0.0,0.0,0.0,0.0,0.0,0.0,0.0,0.0,0.0,0.0,0.0,0.0,0.0,0.0,0.0,0.0,0.0,0.0,0.0,0.0,0.0,0.0,0.0,0.0,0.0,0.0,0.0,0.0,0.0,0.0,0.0,0.0,0.0,0.0,0.0,0.0,0.0,1.3279,1.3288,1.3288,1.3279,1.2978,1.2783,0.0,0.0,0.0,0.0,0.0,0.0,0.0,0.0,0.0,0.0,0.0,0.0,0.0,0.0,0.0,0.0,0.0,0.0,0.0,0.0,0.0,0.0,0.0,0.0,0.0,0.0,0.0,0.0,0.0,0.0,0.0,0.0,0.0,0.0,0.0,0.0,0.0,0.0,0.0,0.0,0.0,0.0,0.0,0.0,0.0,0.0,0.0,0.0,0.0,0.0,0.0,0.0,0.0,0.0,0.0,0.0,0.0,0.0,0.0,0.0,0.0,0.0,0.0,0.0,0.0,0.0,0.0,0.0,0.0,0.0,0.0,0.0,0.0,0.0,0.0,0.0,0.0,0.0,0.0,0.0,0.0,0.0,0.0,0.0,0.0,0.0,0.0,0.0,0.0,0.0,0.0,0.0,0.0,0.0,0.0,0.0,0.0,0.0,0.0,0.0,0.0,0.0,0.0,0.0,0.0,0.0,0.0,0.0,0.0,1.3305,0.0,1.3214,1.3189,1.2929,1.2783,0.0,0.0,0.0,0.0,0.0,0.0,0.0,0.0,0.0,0.0,0.0,0.0,0.0,0.0,0.0,0.0,0.0,0.0,0.0,0.0,0.0,0.0,0.0,0.0,0.0,0.0,0.0,0.0,0.0,0.0,0.0,0.0,0.0,0.0,0.0,0.0,0.0,0.0,0.0,0.0,0.0,0.0,0.0,0.0,0.0,0.0,0.0,0.0,0.0,0.0,0.0,0.0,0.0,0.0,0.0,0.0,0.0,0.0,0.0,0.0,0.0,0.0,0.0,0.0,0.0,0.0,0.0,0.0,0.0,0.0,0.0,0.0,0.0,0.0,0.0,0.0,0.0,0.0,0.0,0.0,0.0,0.0,0.0,0.0,0.0,0.0,0.0,0.0,0.0,0.0,0.0,0.0,0.0,0.0,0.0,0.0,0.0,0.0,0.0,0.0,0.0,0.0,0.0,0.0,0.0,0.0,0.0,0.0,1.31,1.31,1.2921,1.2872,1.2823,1.2831,1.2799,0.0,0.0,0.0,0.0,0.0,0.0,0.0,0.0,0.0,0.0,0.0,0.0,0.0,0.0,0.0,0.0,0.0,0.0,0.0,0.0,0.0,0.0,0.0,0.0,0.0,0.0,0.0,0.0,0.0,0.0,0.0,0.0,0.0,0.0,0.0,0.0,0.0,0.0,0.0,0.0,0.0,0.0,0.0,0.0,0.0,0.0,0.0,0.0,0.0,0.0,0.0,0.0,0.0,0.0,0.0,0.0,0.0,0.0,0.0,0.0,0.0,0.0,0.0,0.0,0.0,0.0,0.0,0.0,0.0,0.0,0.0,0.0,0.0,0.0,0.0,0.0,0.0,0.0,0.0,0.0,0.0,0.0,0.0,0.0,0.0,0.0,0.0,0.0,0.0,0.0,0.0,0.0,0.0,0.0,0.0,0.0,0.0,0.0,0.0,0.0,0.0,0.0,0.0,0.0,0.0,0.0,0.0,0.0,0.0,1.3431,1.3382,1.3432,1.3537,1.3206,1.3076,0.0,0.0,0.0,0.0,0.0,0.0,0.0,0.0,0.0,0.0,0.0,0.0,0.0,0.0,0.0,0.0,0.0,0.0,0.0,0.0,0.0,0.0,0.0,0.0,0.0,0.0,0.0,0.0,0.0,0.0,0.0,0.0,0.0,0.0,0.0,0.0,0.0,0.0,0.0,0.0,0.0,0.0,0.0,0.0,0.0,0.0,0.0,0.0,0.0,0.0,0.0,0.0,0.0,0.0,0.0,0.0,0.0,0.0,0.0,0.0,0.0,0.0,0.0,0.0,0.0,0.0,0.0,0.0,0.0,0.0,0.0,0.0,0.0,0.0,0.0,0.0,0.0,0.0,0.0,0.0,0.0,0.0,0.0,0.0,0.0,0.0,0.0,0.0,0.0,0.0,0.0,0.0,0.0,0.0,0.0,0.0,0.0,0.0,0.0,0.0,0.0,0.0,0.0,0.0,0.0,0.0,0.0,0.0,0.0,1.3885,1.3659,1.3595,1.3701,1.332,1.3149,1.3271,0.0,0.0,0.0,0.0,0.0,0.0,0.0,0.0,0.0,0.0,0.0,0.0,0.0,0.0,0.0,0.0,0.0,0.0,0.0,0.0,0.0,0.0,0.0,0.0,0.0,0.0,0.0,0.0,0.0,0.0,0.0,0.0,0.0,0.0,0.0,0.0,0.0,0.0,0.0,0.0,0.0,0.0,0.0,0.0,0.0,0.0,0.0,0.0,0.0,0.0,0.0,0.0,0.0,0.0,0.0,0.0,0.0,0.0,0.0,0.0,0.0,0.0,0.0,0.0,0.0,0.0,0.0,0.0,0.0,0.0,0.0,0.0,0.0,0.0,0.0,0.0,0.0,0.0,0.0,0.0,0.0,0.0,0.0,0.0,0.0,0.0,0.0,0.0,0.0,0.0,0.0,0.0,0.0,0.0,0.0,0.0,0.0,0.0,0.0,0.0,0.0,0.0,0.0,0.0,0.0,0.0,0.0,0.0,1.4411,1.3823,1.3541,1.3499,1.3295,1.3157,0.0,0.0,0.0,0.0,0.0,0.0,0.0,0.0,0.0,0.0,0.0,0.0,0.0,0.0,0.0,0.0,0.0,0.0,0.0,0.0,0.0,0.0,0.0,0.0,0.0,0.0,0.0,0.0,0.0,0.0,0.0,0.0,0.0,0.0,0.0,0.0,0.0,0.0,0.0,0.0,0.0,0.0,0.0,0.0,0.0,0.0,0.0,0.0,0.0,0.0,0.0,0.0,0.0,0.0,0.0,0.0,0.0,0.0,0.0,0.0,0.0,0.0,0.0,0.0,0.0,0.0,0.0,0.0,0.0,0.0,0.0,0.0,0.0,0.0,0.0,0.0,0.0,0.0,0.0,0.0,0.0,0.0,0.0,0.0,0.0,0.0,0.0,0.0,0.0,0.0,0.0,0.0,0.0,0.0,0.0,0.0,0.0,0.0,0.0,0.0,0.0,0.0,0.0,0.0,0.0,0.0,0.0,0.0,0.0,1.4608,1.4838,1.4849,1.4591,1.4245,1.386,0.0,0.0,0.0,0.0,0.0,0.0,0.0,0.0,0.0,0.0,0.0,0.0,0.0,0.0,0.0,0.0,0.0,0.0,0.0,0.0,0.0,0.0,0.0,0.0,0.0,0.0,0.0,0.0,0.0,0.0,0.0,0.0,0.0,0.0,0.0,0.0,0.0,0.0,0.0,0.0,0.0,0.0,0.0,0.0,0.0,0.0,0.0,0.0,0.0,0.0,0.0,0.0,0.0,0.0,0.0,0.0,0.0,0.0,0.0,0.0,0.0,0.0,0.0,0.0,0.0,0.0,0.0,0.0,0.0,0.0,0.0,0.0,0.0,0.0,0.0,0.0,0.0,0.0,0.0,0.0,0.0,0.0,0.0,0.0,0.0,0.0,0.0,0.0,0.0,0.0,0.0,0.0,0.0,0.0,0.0,0.0,0.0,0.0,0.0,0.0,0.0,0.0,0.0,0.0,0.0,0.0,0.0,0.0,1.4971,1.5182,1.5829,1.6377,1.6795,1.546,1.4411,0.0,0.0,0.0,0.0,0.0,0.0,0.0,0.0,0.0,0.0,0.0,0.0,0.0,0.0,0.0,0.0,0.0,0.0,0.0,0.0,0.0,0.0,0.0,0.0,0.0,0.0,0.0,0.0,0.0,0.0,0.0,0.0,0.0,0.0,0.0,0.0,0.0,0.0,0.0,0.0,0.0,0.0,0.0,0.0,0.0,0.0,0.0,0.0,0.0,0.0,0.0,0.0,0.0,0.0,0.0,0.0,0.0,0.0,0.0,0.0,0.0,0.0,0.0,0.0,0.0,0.0,0.0,0.0,0.0,0.0,0.0,0.0,0.0,0.0,0.0,0.0,0.0,0.0,0.0,0.0,0.0,0.0,0.0,0.0,0.0,0.0,0.0,0.0,0.0,0.0,0.0,0.0,0.0,0.0,0.0,0.0,0.0,0.0,0.0,0.0,0.0,0.0,0.0,0.0,0.0,0.0,0.0,0.0,1.6071,1.6174,1.6965,1.8027,1.9222,1.6837,1.5099,0.0,0.0,0.0,0.0,0.0,0.0,0.0,0.0,0.0,0.0,0.0,0.0,0.0,0.0,0.0,0.0,0.0,0.0,0.0,0.0,0.0,0.0,0.0,0.0,0.0,0.0,0.0,0.0,0.0,0.0,0.0,0.0,0.0,0.0,0.0,0.0,0.0,0.0,0.0,0.0,0.0,0.0,0.0,0.0,0.0,0.0,0.0,0.0,0.0,0.0,0.0,0.0,0.0,0.0,0.0,0.0,0.0,0.0,0.0,0.0,0.0,0.0,0.0,0.0,0.0,0.0,0.0,0.0,0.0,0.0,0.0,0.0,0.0,0.0,0.0,0.0,0.0,0.0,0.0,0.0,0.0,0.0,0.0,0.0,0.0,0.0,0.0,0.0,0.0,0.0,0.0,0.0,0.0,0.0,0.0,0.0,0.0,0.0,0.0,0.0,0.0,0.0,0.0,0.0,0.0,0.0,0.0,0.0,1.7836,1.8476,1.9014,1.9467,1.9828,1.8268,1.7128,0.0,0.0,0.0,0.0,0.0,0.0,0.0,0.0,0.0,0.0,0.0,0.0,0.0,0.0,0.0,0.0,0.0,0.0,0.0,0.0,0.0,0.0,0.0,0.0,0.0,0.0,0.0,0.0,0.0,0.0,0.0,0.0,0.0,0.0,0.0,0.0,0.0,0.0,0.0,0.0,0.0,0.0,0.0,0.0,0.0,0.0,0.0,0.0,1.2783,0.0,0.0,0.0,0.0,0.0,0.0,0.0,0.0,0.0,0.0,0.0,0.0,0.0,0.0,0.0,0.0,0.0,0.0,0.0,0.0,0.0,0.0,0.0,0.0,0.0,0.0,0.0,0.0,0.0,0.0,0.0,0.0,0.0,0.0,0.0,0.0,0.0,0.0,0.0,0.0,0.0,0.0,0.0,0.0,0.0,0.0,0.0,0.0,0.0,0.0,0.0,0.0,0.0,0.0,0.0,0.0,0.0,0.0,0.0,1.9844,2.0742,2.1387,2.2085,2.2781,2.1513,1.9332,0.0,0.0,0.0,0.0,0.0,0.0,0.0,0.0,0.0,0.0,0.0,0.0,0.0,0.0,0.0,0.0,0.0,0.0,0.0,0.0,0.0,0.0,0.0,0.0,0.0,0.0,0.0,0.0,0.0,0.0,0.0,0.0,0.0,0.0,0.0,0.0,0.0,0.0,0.0,0.0,0.0,0.0,0.0,0.0,0.0,0.0,0.0,0.0,0.0,0.0,0.0,0.0,0.0,0.0,0.0,0.0,0.0,0.0,0.0,0.0,0.0,0.0,0.0,0.0,0.0,0.0,0.0,0.0,0.0,0.0,0.0,0.0,0.0,0.0,0.0,0.0,0.0,0.0,0.0,0.0,0.0,0.0,0.0,0.0,0.0,0.0,0.0,0.0,0.0,0.0,0.0,0.0,0.0,0.0,0.0,0.0,0.0,0.0,0.0,0.0,0.0,0.0,0.0,0.0,0.0,0.0,0.0,1.9806,2.1718,2.2945,2.3721,2.4754,2.606,2.4657,2.1357,1.6108,0.0,0.0,0.0,0.0,0.0,0.0,0.0,0.0,0.0,0.0,0.0,0.0,0.0,0.0,0.0,0.0,0.0,0.0,0.0,0.0,0.0,0.0,0.0,0.0,0.0,0.0,0.0,0.0,0.0,0.0,0.0,0.0,0.0,0.0,0.0,0.0,0.0,0.0,1.2572,1.2702,0.0,0.0,0.0,0.0,0.0,0.0,0.0,0.0,1.2791,0.0,0.0,0.0,0.0,0.0,0.0,0.0,0.0,0.0,0.0,0.0,0.0,0.0,0.0,0.0,0.0,0.0,0.0,0.0,0.0,0.0,0.0,0.0,0.0,0.0,0.0,0.0,0.0,0.0,0.0,0.0,0.0,0.0,0.0,0.0,0.0,0.0,0.0,0.0,0.0,0.0,0.0,0.0,0.0,0.0,0.0,0.0,0.0,0.0,0.0,0.0,0.0,0.0,0.0,0.0,0.0,1.7586,2.0219,2.2737,2.5086,2.5363,2.5727,2.619,2.4581,2.2381,1.9809,0.0,0.0,0.0,0.0,0.0,0.0,0.0,0.0,0.0,0.0,0.0,0.0,0.0,0.0,0.0,0.0,0.0,0.0,0.0,0.0,0.0,0.0,0.0,0.0,0.0,0.0,0.0,0.0,0.0,0.0,0.0,0.0,0.0,0.0,0.0,0.0,0.0,0.0,0.0,1.2621,1.2661,0.0,0.0,0.0,0.0,0.0,0.0,0.0,0.0,1.2767,0.0,0.0,0.0,0.0,0.0,0.0,0.0,0.0,0.0,0.0,0.0,0.0,0.0,0.0,0.0,0.0,0.0,0.0,0.0,0.0,0.0,0.0,0.0,0.0,0.0,0.0,0.0,0.0,0.0,0.0,0.0,0.0,0.0,0.0,0.0,0.0,0.0,0.0,0.0,0.0,0.0,0.0,0.0,0.0,0.0,0.0,0.0,0.0,0.0,0.0,0.0,0.0,0.0,0.0,0.0,1.9551,2.2715,2.5426,2.7585,2.7817,2.785,2.7684,2.6122,2.4212,0.0,0.0,0.0,0.0,0.0,0.0,0.0,0.0,0.0,0.0,0.0,0.0,0.0,0.0,0.0,0.0,0.0,0.0,0.0,0.0,0.0,0.0,0.0,0.0,0.0,0.0,0.0,0.0,0.0,0.0,0.0,0.0,0.0,0.0,0.0,0.0,0.0,0.0,0.0,0.0,1.2751,1.2889,1.2945,0.0,0.0,0.0,0.0,0.0,0.0,1.3011,1.3101,0.0,0.0,0.0,0.0,0.0,0.0,0.0,0.0,0.0,0.0,0.0,0.0,0.0,0.0,0.0,0.0,0.0,0.0,0.0,0.0,0.0,0.0,0.0,0.0,0.0,0.0,0.0,0.0,0.0,0.0,0.0,0.0,0.0,0.0,0.0,0.0,0.0,0.0,0.0,0.0,0.0,0.0,0.0,0.0,0.0,0.0,0.0,0.0,0.0,0.0,0.0,0.0,0.0,0.0,0.0,2.1633,2.4791,2.7465,2.9524,2.9779,2.9667,2.9271,2.785,2.6063,0.0,0.0,0.0,0.0,0.0,0.0,0.0,0.0,0.0,0.0,0.0,0.0,0.0,0.0,0.0,0.0,0.0,0.0,0.0,0.0,0.0,0.0,0.0,0.0,0.0,0.0,0.0,0.0,0.0,0.0,0.0,0.0,0.0,0.0,0.0,0.0,0.0,0.0,0.0,0.0,0.0,1.3587,1.3595,1.3663,0.0,0.0,0.0,0.0,1.3125,1.3353,0.0,0.0,0.0,0.0,0.0,0.0,0.0,0.0,0.0,0.0,0.0,0.0,0.0,0.0,0.0,0.0,0.0,0.0,0.0,0.0,0.0,0.0,0.0,0.0,0.0,0.0,0.0,0.0,0.0,0.0,0.0,0.0,0.0,0.0,0.0,0.0,0.0,0.0,0.0,0.0,0.0,0.0,0.0,0.0,0.0,0.0,0.0,0.0,0.0,0.0,0.0,0.0,0.0,0.0,0.0,0.0,2.2913,2.4424,2.6735,2.9893,2.9858,2.9882,3.0218,2.8743,2.7288,0.0,0.0,0.0,0.0,0.0,0.0,0.0,0.0,0.0,0.0,0.0,0.0,0.0,0.0,0.0,0.0,0.0,0.0,0.0,0.0,0.0,0.0,0.0,0.0,0.0,0.0,0.0,0.0,0.0,0.0,0.0,0.0,0.0,0.0,0.0,0.0,0.0,0.0,0.0,0.0,0.0,1.5238,1.53,1.5573,1.5664,0.0,0.0,1.3431,1.3141,1.367,0.0,0.0,0.0,0.0,0.0,0.0,0.0,0.0,0.0,0.0,0.0,0.0,0.0,0.0,0.0,0.0,0.0,0.0,0.0,0.0,0.0,0.0,0.0,0.0,0.0,0.0,0.0,0.0,0.0,0.0,0.0,0.0,0.0,0.0,0.0,0.0,0.0,0.0,0.0,0.0,0.0,0.0,0.0,0.0,0.0,0.0,0.0,0.0,0.0,0.0,0.0,0.0,0.0,0.0,0.0,2.1249,2.3759,2.6232,2.853,3.0505,3.0457,3.0392,3.0384,2.8719,2.7401,0.0,0.0,0.0,0.0,0.0,0.0,0.0,0.0,0.0,0.0,0.0,0.0,0.0,0.0,0.0,0.0,0.0,0.0,0.0,0.0,0.0,0.0,0.0,0.0,0.0,0.0,0.0,0.0,0.0,0.0,0.0,0.0,0.0,0.0,0.0,0.0,0.0,0.0,0.0,0.0,0.0,0.0,1.5792,1.6025,0.0,0.0,0.0,1.56,1.6136,0.0,0.0,0.0,0.0,0.0,0.0,0.0,0.0,0.0,0.0,0.0,0.0,0.0,0.0,0.0,0.0,0.0,0.0,0.0,0.0,0.0,0.0,0.0,0.0,0.0,0.0,0.0,0.0,0.0,0.0,0.0,0.0,0.0,0.0,0.0,0.0,0.0,0.0,0.0,0.0,0.0,0.0,0.0,0.0,0.0,0.0,0.0,0.0,0.0,0.0,0.0,0.0,0.0,0.0,0.0,0.0,0.0,2.4765,2.7818,2.9951,3.1113,3.1107,3.0989,3.0701,2.8995,0.0,0.0,0.0,0.0,0.0,0.0,0.0,0.0,0.0,0.0,0.0,0.0,0.0,0.0,0.0,0.0,0.0,0.0,0.0,0.0,0.0,0.0,0.0,0.0,0.0,0.0,0.0,1.2369,0.0,0.0,0.0,0.0,0.0,0.0,0.0,0.0,0.0,0.0,0.0,0.0,0.0,0.0,1.7102,1.7206,1.7498,1.8014,0.0,0.0,1.7673,1.8519,1.9062,1.9137,0.0,0.0,0.0,0.0,0.0,0.0,0.0,0.0,0.0,0.0,0.0,0.0,0.0,0.0,0.0,0.0,0.0,0.0,0.0,0.0,0.0,0.0,0.0,0.0,0.0,0.0,0.0,0.0,0.0,0.0,0.0,0.0,0.0,0.0,0.0,0.0,0.0,0.0,0.0,0.0,0.0,0.0,0.0,0.0,0.0,0.0,0.0,0.0,0.0,0.0,0.0,0.0,0.0,0.0,0.0,2.6473,2.8256,3.0057,3.1829,3.1674,3.1591,3.1676,3.0141,2.851,0.0,0.0,0.0,0.0,0.0,0.0,0.0,0.0,0.0,0.0,0.0,0.0,0.0,0.0,0.0,0.0,0.0,0.0,0.0,0.0,0.0,0.0,0.0,0.0,0.0,0.0,0.0,0.0,0.0,0.0,0.0,0.0,0.0,0.0,0.0,0.0,0.0,0.0,0.0,0.0,0.0,1.9573,2.0615,2.1252,2.1516,0.0,0.0,1.8921,1.8817,1.9258,1.9204,1.8118,0.0,0.0,0.0,0.0,0.0,0.0,0.0,0.0,0.0,0.0,0.0,0.0,0.0,0.0,0.0,0.0,0.0,0.0,0.0,0.0,0.0,0.0,0.0,0.0,0.0,0.0,0.0,0.0,0.0,0.0,0.0,0.0,0.0,0.0,0.0,0.0,0.0,0.0,0.0,0.0,0.0,0.0,0.0,0.0,0.0,0.0,0.0,0.0,0.0,0.0,0.0,0.0,0.0,2.5571,2.707,2.9532,3.1209,3.2142,3.2091,3.1961,3.1812,3.0443,2.9104,0.0,0.0,0.0,0.0,0.0,0.0,0.0,0.0,0.0,0.0,0.0,0.0,0.0,0.0,0.0,0.0,0.0,0.0,0.0,0.0,0.0,0.0,0.0,0.0,0.0,0.0,0.0,0.0,1.3036,1.3068,1.3263,0.0,0.0,0.0,0.0,0.0,0.0,0.0,0.0,0.0,0.0,2.1088,2.1305,2.2074,0.0,0.0,2.257,2.2215,2.2456,2.2983,2.2959,2.177,2.0092,0.0,0.0,0.0,0.0,0.0,0.0,0.0,0.0,0.0,0.0,0.0,0.0,0.0,0.0,0.0,0.0,0.0,0.0,0.0,0.0,0.0,0.0,0.0,0.0,0.0,0.0,0.0,0.0,0.0,0.0,0.0,0.0,0.0,0.0,0.0,0.0,0.0,0.0,0.0,0.0,0.0,0.0,0.0,0.0,0.0,0.0,0.0,0.0,0.0,0.0,0.0,0.0,2.6834,2.7744,3.0346,3.2002,3.2705,3.2617,3.2427,3.2083,3.0786,2.9539,0.0,0.0,0.0,0.0,0.0,0.0,0.0,0.0,0.0,0.0,0.0,0.0,0.0,0.0,0.0,0.0,0.0,0.0,0.0,0.0,0.0,0.0,0.0,0.0,0.0,0.0,0.0,0.0,1.3303,1.3287,1.3402,0.0,0.0,0.0,0.0,0.0,0.0,0.0,0.0,0.0,0.0,2.2328,2.2385,2.3197,2.3952,2.4424,2.4396,2.4461,2.4833,2.5184,2.5066,2.4057,0.0,0.0,0.0,0.0,0.0,0.0,0.0,0.0,0.0,0.0,0.0,0.0,0.0,0.0,0.0,0.0,0.0,0.0,0.0,0.0,0.0,0.0,0.0,0.0,0.0,0.0,0.0,0.0,0.0,0.0,1.9018,0.0,0.0,0.0,0.0,0.0,0.0,0.0,0.0,0.0,0.0,0.0,0.0,0.0,0.0,0.0,0.0,0.0,0.0,0.0,0.0,0.0,0.0,2.7173,2.875,3.0464,3.2083,3.3589,3.3333,3.3056,3.2742,3.1225,2.9774,2.8426,0.0,0.0,0.0,0.0,0.0,0.0,0.0,0.0,0.0,0.0,0.0,0.0,0.0,0.0,0.0,0.0,0.0,0.0,0.0,0.0,0.0,0.0,0.0,0.0,0.0,0.0,1.3668,1.3548,1.359,0.0,0.0,0.0,0.0,0.0,0.0,0.0,0.0,0.0,0.0,2.2233,2.3402,2.4226,2.5075,2.5512,2.5244,2.5146,2.5115,2.5125,2.4941,2.4529,0.0,0.0,0.0,0.0,0.0,0.0,0.0,0.0,0.0,0.0,0.0,0.0,0.0,0.0,0.0,0.0,0.0,0.0,0.0,0.0,0.0,0.0,0.0,0.0,0.0,0.0,0.0,1.9872,1.9136,0.0,0.0,0.0,0.0,0.0,0.0,0.0,0.0,0.0,0.0,0.0,2.3841,2.4631,0.0,0.0,0.0,0.0,0.0,0.0,0.0,0.0,0.0,0.0,0.0,0.0,2.7645,2.8827,3.0892,3.2427,3.3341,3.326,3.3063,3.2785,3.1629,3.0083,2.8134,0.0,0.0,0.0,0.0,0.0,0.0,0.0,0.0,0.0,0.0,0.0,0.0,0.0,0.0,0.0,0.0,0.0,0.0,0.0,0.0,0.0,0.0,0.0,0.0,0.0,1.6977,0.0,0.0,0.0,0.0,0.0,0.0,0.0,0.0,0.0,0.0,0.0,2.038,2.1394,2.3276,2.4765,2.5252,2.598,2.6449,0.0,0.0,0.0,0.0,0.0,0.0,0.0,0.0,0.0,0.0,0.0,0.0,0.0,0.0,2.2722,1.956,1.9033,1.9061,1.9078,0.0,0.0,0.0,0.0,0.0,0.0,0.0,0.0,0.0,0.0,0.0,0.0,0.0,0.0,2.2246,0.0,2.2133,0.0,0.0,0.0,0.0,0.0,0.0,0.0,0.0,2.4361,2.5584,2.6964,2.7606,2.7635,0.0,2.7007,2.6717,0.0,0.0,0.0,0.0,0.0,0.0,0.0,0.0,2.8269,2.9393,3.1413,3.2866,3.3677,3.3619,3.3414,3.3108,3.1724,3.0188,2.8486,2.751,2.6793,0.0,0.0,0.0,0.0,0.0,0.0,0.0,0.0,0.0,0.0,0.0,0.0,0.0,0.0,0.0,0.0,0.0,0.0,0.0,0.0,0.0,0.0,0.0,1.8493,0.0,0.0,0.0,0.0,0.0,0.0,0.0,0.0,0.0,1.866,2.063,2.2453,2.313,2.4547,2.5701,2.6146,0.0,0.0,0.0,0.0,0.0,0.0,0.0,2.7721,2.6942,2.6692,2.6457,2.6076,2.6185,2.633,2.633,0.0,0.0,2.2558,2.2011,2.2078,2.2078,2.3111,2.4142,2.4566,2.5022,2.5458,0.0,0.0,0.0,0.0,0.0,0.0,0.0,0.0,2.5842,2.615,0.0,2.5959,0.0,0.0,0.0,0.0,0.0,2.5417,0.0,0.0,2.7564,2.8306,2.893,2.8988,2.9154,2.9418,2.909,2.893,2.8759,2.631,0.0,0.0,0.0,0.0,0.0,0.0,2.9085,3.0399,3.2016,3.3415,3.4592,3.4358,3.4013,3.3619,3.1585,3.0141,2.9418,2.7939,2.7056,2.7013,2.6398,0.0,0.0,0.0,0.0,0.0,0.0,0.0,0.0,0.0,0.0,0.0,0.0,0.0,0.0,0.0,0.0,0.0,0.0,0.0,0.0,1.884,0.0,0.0,0.0,0.0,0.0,0.0,0.0,0.0,0.0,0.0,2.2094,2.2714,2.4,2.5773,0.0,0.0,0.0,0.0,2.7125,2.7788,2.8027,2.8259,2.8575,2.8471,2.8362,2.83,0.0,0.0,2.7951,2.7951,2.7951,2.7951,2.7995,2.7707,2.6776,2.6591,2.6708,2.6755,2.6997,2.743,2.7506,2.7884,2.8395,2.7206,0.0,0.0,0.0,0.0,2.6327,2.6988,2.7649,2.7611,2.7454,2.7188,2.6524,0.0,0.0,0.0,0.0,0.0,0.0,2.6631,2.798,2.8629,2.9386,3.0255,3.0744,3.0773,3.0387,3.0299,3.0027,2.9593,2.8855,2.7936,2.6943,0.0,0.0,0.0,0.0,2.9754,3.1022,3.2376,3.3487,3.4344,3.4271,3.3846,3.3056,3.1995,3.0999,3.0141,2.9218,2.8373,2.7663,2.7038,0.0,0.0,0.0,0.0,0.0,0.0,0.0,0.0,0.0,0.0,0.0,0.0,0.0,0.0,0.0,0.0,0.0,0.0,0.0,2.193,2.1308,2.1577,0.0,0.0,0.0,0.0,0.0,0.0,0.0,0.0,0.0,2.5141,2.5354,2.5916,0.0,0.0,2.759,2.8256,2.8321,2.8536,2.9195,0.0,0.0,0.0,2.9319,2.9268,2.8797,2.8851,2.9047,2.93,2.933,2.933,2.933,2.967,2.9875,2.9583,2.8463,2.7702,2.7673,2.8245,2.8895,2.9177,2.9864,3.0539,3.02,2.835,2.7281,2.7027,2.733,2.7861,2.845,2.8998,2.8959,2.8852,2.8713,2.8057,2.743,2.6829,2.6406,0.0,0.0,0.0,2.8073,2.9558,2.9783,3.0487,3.1571,3.2002,3.1973,3.1601,3.1835,3.1505,3.0683,3.08,3.0164,2.8827,0.0,0.0,2.8275,2.952,3.0735,3.1892,3.3019,3.3911,3.4578,3.4212,3.3744,3.3158,3.228,3.1482,3.0779,3.0003,2.9193,2.834,2.7828,2.7199,0.0,0.0,0.0,0.0,0.0,0.0,0.0,0.0,0.0,0.0,0.0,2.2223,2.1854,0.0,0.0,0.0,2.3687,2.3897,2.4337,2.3667,0.0,0.0,0.0,0.0,0.0,0.0,0.0,2.5024,2.6078,2.6868,2.698,2.726,2.7617,2.7997,2.7974,2.8233,2.9169,0.0,2.9183,2.998,2.9915,2.9828,2.9939,3.0135,3.012,2.972,2.9945,3.015,3.0238,3.0267,3.0246,3.0311,3.0554,3.0796,3.0796,2.9831,2.9115,2.9246,2.9734,3.0252,3.0589,3.1321,3.1944,3.3363,3.2354,2.9859,2.9131,2.9583,2.9569,2.9839,3.0214,3.0208,3.0481,3.0928,3.034,2.9967,2.9758,2.8766,0.0,2.9514,2.9514,3.0217,3.152,3.1206,3.1739,3.2917,3.2947,3.2947,3.2983,3.3502,3.318,3.209,3.2339,3.2002,3.1074,3.0203,2.9725,2.9667,3.0832,3.1944,3.2947,3.3832,3.4601,3.5167,3.4271,3.3765,3.3669,3.2522,3.1739,3.1344,3.0487,2.9667,2.8959,2.8618,2.8018,2.7144,0.0,0.0,0.0,0.0,0.0,0.0,0.0,0.0,0.0,0.0,0.0,0.0,0.0,0.0,0.0,2.473,0.0,2.5909,2.5709,0.0,0.0,0.0,2.5172,2.5579,2.5963,2.629,2.6552,0.0,0.0,2.7911,0.0,2.8964,2.8959,2.8471,2.8559,2.9784,2.9462,2.9388,3.0317,3.0399,3.0522,3.0671,3.0738,3.0723,3.0694,3.106,3.106,3.0869,3.0782,3.0796,3.0826,3.084,3.0849,3.0884,3.084,3.0972,3.1256,3.1315,3.1417,3.1724,3.2273,3.272,3.5108,3.4792,3.3649,3.2412,3.1285,3.1777,3.2266,3.2807,3.2785,3.2741,3.2573,3.1739,3.079,2.9862,2.9601,3.0129,3.1217,3.1217,3.2047,3.3458,3.3429,3.37,3.4241,3.4241,3.4241,3.4256,3.4402,3.4314,3.4022,3.4095,3.3867,3.3399,3.3173,3.2441,3.1321,3.2244,3.3238,3.4241,3.4718,3.5049,3.5181,3.471,3.4218,3.3698,3.3143,3.2493,3.171,3.1206,3.0457,2.9344,2.8978,2.8427,2.7721,2.7261,0.0,0.0,0.0,0.0,0.0,0.0,0.0,0.0,0.0,2.4902,2.4336,0.0,2.5067,0.0,2.5741,2.5976,2.5584,2.5741,0.0,0.0,2.6098,2.6207,2.6601,2.7332,2.7694,2.7305,2.8027,2.8491,2.8306,2.8871,2.9374,2.9628,2.974,3.0003,3.051,3.0481,3.0416,3.0636,3.0679,3.0723,3.0761,3.0796,3.0811,3.0796,3.0869,3.0972,3.1147,3.0936,3.0884,3.1118,3.1177,3.1264,3.149,3.1563,3.1681,3.1959,3.1856,3.1783,3.2127,3.2522,3.2822,3.6314,3.628,3.5602,3.471,3.3692,3.3679,3.3832,3.413,3.3984,3.3896,3.3838,3.3151,3.2398,3.1629,3.1739,3.2214,3.2866,3.3027,3.3656,3.4607,3.4505,3.4592,3.4914,3.5084,3.507,3.4953,3.5339,3.5227,3.4753,3.5011,3.4885,3.4423,3.4563,3.4279,3.3576,3.3773,3.4227,3.4923,3.5231,3.5357,3.5172,3.4724,3.4314,3.3926,3.3326,3.2646,3.1827,3.1323,3.0568,2.9462,2.9227,2.8827,2.816,2.7813,2.755,0.0,0.0,0.0,0.0,0.0,0.0,0.0,0.0,0.0,0.0,0.0,2.6087,0.0,2.6714,0.0,2.6543,2.6722,2.6905,2.7041,2.7204,2.7327,2.74,2.812,2.8388,2.7755,2.8388,2.8847,2.8661,2.9193,2.9725,3.0082,3.0369,3.0627,3.0773,3.0796,3.0796,3.0796,3.0796,3.0796,3.0796,3.0928,3.0957,3.0855,3.0928,3.1045,3.1074,3.0907,3.0849,3.1051,3.1191,3.1359,3.1549,3.1731,3.19,3.2185,3.217,3.217,3.2463,3.2888,3.3202,3.7109,3.712,3.6495,3.6261,3.6246,3.5403,3.5002,3.4871,3.4555,3.4592,3.4812,3.4534,3.4174,3.383,3.413,3.4306,3.4417,3.4695,3.504,3.5357,3.5075,3.5105,3.546,3.567,3.5709,3.5562,3.6246,3.6085,3.5105,3.5568,3.5577,3.509,3.5275,3.5533,3.5782,3.5222,3.5099,3.5386,3.5665,3.565,3.5304,3.471,3.43,3.4057,3.3232,3.2434,3.1658,3.1066,3.0334,2.9462,2.9388,2.9105,2.8496,2.8442,2.8277,0.0,2.7715,0.0,0.0,0.0,0.0,0.0,0.0,0.0,0.0,2.6483,2.6925,2.7514,2.7539,2.7623,2.7882,2.7892,2.7892,2.7892,2.8204,2.8291,2.8028,2.8608,2.8783,2.816,2.8681,2.9095,2.9081,2.9579,3.0082,3.0346,3.0598,3.0767,3.0796,3.0796,3.0796,3.0796,3.0796,3.0811,3.0899,3.1103,3.1191,3.0957,3.1147,3.125,3.1037,3.1016,3.103,3.1118,3.1381,3.1549,3.1549,3.1827,3.209,3.2398,3.2485,3.2588,3.2807,3.3202,3.3611,3.7266,3.7471,3.709,3.709,3.731,3.7134,3.6583,3.5827,3.5768,3.5646,3.5518,3.5445,3.5084,3.4511,3.4578,3.4923,3.5416,3.5489,3.5802,3.6334,3.6275,3.6407,3.6724,3.6549,3.6695,3.7105,3.6773,3.6758,3.7022,3.6612,3.6626,3.7032,3.6593,3.6363,3.6422,0.0,0.0,0.0,3.6392,3.6275,3.5939,3.5597,3.4762,3.3458,3.2997,0.0,3.0756,3.0551,3.0155,2.9447,2.9388,0.0,0.0,0.0,0.0,0.0,0.0,0.0,0.0,0.0,0.0,0.0,2.7575,2.7462,2.7232,2.7477,2.7673,2.7809,2.7824,2.7853,2.7892,2.7892,2.7892,2.7907,2.8204,2.8379,2.8335,2.9154,2.9569,2.9198,2.9716,3.0009,2.9774,3.0068,3.0317,3.0405,3.0627,3.0782,3.0796,3.0796,3.0796,3.0796,3.0811,3.0899,3.1183,3.125,3.1256,3.125,3.149,3.1637,3.1593,3.1798,3.209,3.2302,3.2456,3.2559,3.2748,3.288,3.2931,3.2997,3.3238,3.337,3.318,3.3224,3.3362,3.79,0.0,3.7534,3.7544,0.0,3.7676,3.7325,3.6817,3.647,3.6173,3.5919,3.6065,3.5875,3.5388,3.5573,3.5719,3.5919,3.6065,3.6314,3.6612,3.6748,3.6934,3.712,3.708,3.7256,3.7588,3.7266,3.7281,3.7574,3.7241,3.7256,3.7603,3.7266,3.708,3.708,3.708,3.7032,3.6846,3.6524,3.6251,3.6114,3.567,3.4894,3.3736,0.0,0.0,0.0,0.0,0.0,0.0,0.0,0.0,0.0,0.0,0.0,2.8632,2.8486,2.8398,2.8398,2.8398,2.8379,2.8398,2.8564,2.8427,2.7974,2.7911,2.8116,2.8554,2.8335,2.8277,2.8588,2.8501,2.8417,2.8413,2.8691,2.89,2.8959,2.9491,2.9833,2.9716,2.9936,3.0141,3.0155,3.0273,3.0448,3.0574,3.0715,3.0796,3.0796,3.0796,3.084,3.1001,3.0884,3.0934,3.1191,3.1154,3.106,3.1089,3.1344,3.1534,3.1563,3.1827,3.217,3.2456,3.2668,3.2903,3.3151,3.3318,3.3435,3.3487,3.3721,3.3955,3.3911,3.3823,3.3736,3.8547,3.8547,3.8013,3.7954,3.8233,3.7885,3.7735,3.7647,0.0,0.0,0.0,3.6656,3.6626,3.6392,3.6656,3.6626,3.6368,3.6656,3.6773,3.6787,3.7051,3.7237,3.7295,3.7475,3.7662,3.7764,3.7636,3.7636,3.7764,3.7662,3.7662,3.7724,3.7636,3.7603,3.7603,3.7603,3.75,3.7266,3.6612,3.629,3.6275,3.5685,3.4997,3.4218,3.3415,3.258,3.1724,3.0706,2.9959,2.9579,2.9257,2.9052,2.8973,2.8949,2.8886,2.8886,2.8964,2.8993,2.8993,2.8993,2.8944,2.89,2.9213,2.9149,2.8618,2.8321,2.8486,2.9257,2.8808,2.8735,2.931,2.9095,2.8944,2.9066,2.9271,2.9432,2.9549,2.9818,3.0024,3.0047,3.0091,3.015,3.0413,3.0478,3.0566,3.0738,3.0796,3.0796,3.0796,3.0796,3.0884,3.1095,3.0922,3.0928,3.1235,3.1227,3.1001,3.1162,3.1417,3.1498,3.1476,3.1768,3.2127,3.2405,3.2698,3.3027,3.3268,3.3552,3.3727,3.3698,3.4013,3.4388,3.4607,3.449,3.4314,3.8667,3.8898,3.8532,3.8561,3.8839,3.8517,3.8251,3.8024,3.7618,3.7442,3.7373,3.7442,3.7417,3.7398,3.7442,3.7442,3.7398,3.7442,3.7471,0.0,3.7515,3.7676,3.794,3.772,3.787,3.8298,3.7841,3.787,3.8269,3.7856,3.7856,3.824,3.7856,3.7603,3.7603,3.7603,3.772,3.7925,3.731,3.6963,3.6948,3.6319,3.5388,3.4247,3.3794,3.2858,3.1446,3.1198,3.0853,3.0287,2.995,2.9643,2.9344,2.9081,2.8886,2.89,2.9169,2.933,2.933,2.935,2.9213,2.8964,2.9213,2.9359,2.9271,2.9227,2.9139,2.9022,2.8915,2.8973,2.933,2.9139,2.9183,2.9623,2.952,2.9608,3.0141,3.0258,3.0405,3.0612,3.0685,3.065,3.0694,3.0729,3.0723,3.0782,3.0796,3.0811,3.0826,3.0796,3.0826,3.0855,3.0819,3.106,3.149,3.1695,3.1695,3.2046,3.2273,3.2266,3.1841,3.2398,3.2851,3.2749,3.3173,3.3502,3.3611,3.3896,3.3984,3.3867,3.4233,3.4636,3.4739,3.468,3.471,3.9743,3.9526,3.9392,3.9292,3.9234,3.8912,3.8591,3.8309,3.8163,3.79,3.7618,3.7603,3.7603,3.7603,3.7603,3.7603,3.7603,3.7603,3.7603,3.7618,3.7793,3.794,3.8112,3.809,3.8251,3.8448,3.8225,3.8225,3.8459,3.821,3.8225,3.8474,3.8236,3.809,3.8104,3.8079,3.8163,3.8295,3.768,3.727,3.708,3.6626,3.5851,3.4753,3.4256,3.356,3.2639,3.1944,3.1432,3.116,3.0516,3.0185,3.0144,2.9886,2.9784,2.9925,3.0071,3.0159,3.0159,3.0159,3.008,2.9954,3.0071,3.0106,2.9965,2.9774,2.9687,2.9716,2.9716,2.9774,2.9936,2.9804,2.9754,2.9877,2.976,2.9877,3.0287,3.039,3.0522,3.0738,3.0796,3.0796,3.0796,3.0796,3.0796,3.0796,3.0796,3.0855,3.103,3.1074,3.106,3.1081,3.1095,3.1198,3.1505,3.1695,3.1768,3.1783,3.22,3.2434,3.2346,3.2873,3.3165,3.3282,3.3531,3.375,3.3911,3.4087,3.4174,3.4335,3.4607,3.4938,3.4967,3.4982,3.4967,4.0738,4.0226,4.0138,3.9875,3.9495,3.9173,3.8854,3.8594,3.8532,3.8225,3.7841,3.7797,3.7753,3.772,3.7753,3.7797,3.7797,3.7797,3.7823,3.7826,3.8046,3.8203,3.8218,3.84,3.8547,3.8605,3.8547,3.8591,3.8707,3.8664,3.8664,3.8707,3.8591,3.8591,3.8722,3.8664,3.8649,3.8693,3.8265,3.7808,3.7339,3.7017,3.6417,3.5553,3.4944,3.4408,3.3911,3.2887,3.228,3.2069,3.1292,3.0882,3.1001,3.0765,3.0662,3.0796,3.0943,3.0986,3.0928,3.0986,3.0957,3.0811,3.0869,3.0817,3.0618,3.0448,3.0287,3.0287,3.0229,3.0302,3.0399,3.0317,3.0287,3.0267,3.0106,3.0243,3.0624,3.0595,3.0604,3.084,3.0834,3.0796,3.0796,3.0796,3.0796,3.0796,3.0855,3.1016,3.1256,3.1337,3.1417,3.1417,3.1417,3.1476,3.152,3.1754,3.1841,3.1637,3.2149,3.2544,3.2778,3.3056,3.3304,3.3508,3.3611,3.3698,3.394,3.4116,3.4262,3.4475,3.485,3.5158,3.5158,3.5269,3.5211,4.1179,4.0883,4.059,4.008,3.9509,3.9161,3.9,3.8927,3.8649,3.8462,3.8415,3.8415,3.828,3.8115,3.8283,3.8386,3.84,3.8415,3.8415,3.84,3.8459,3.8448,3.8488,3.8517,3.8664,3.8883,3.8678,3.8839,3.9307,3.9088,3.9102,3.9292,3.881,3.881,3.9278,3.9102,3.9102,3.9395,3.9336,3.8895,3.8042,3.7676,3.7193,3.6495,3.6114,3.5514,3.4651,3.4189,3.3692,3.3107,3.2456,3.1973,3.1724,3.1417,3.1103,3.0899,3.1402,3.1578,3.1323,3.1549,3.149,3.0899,3.1133,3.1264,3.122,3.1446,3.111,3.0346,3.0009,3.0331,3.0656,3.0355,3.0516,3.1336,3.0859,3.0677,3.1365,3.1139,3.0884,3.1227,3.103,3.0811,3.0855,3.084,3.0805,3.0834,3.111,3.1294,3.1396,3.1607,3.1783,3.1768,3.1768,3.1885,3.2061,3.2193,3.2295,3.2551,3.2858,3.3004,3.3078,3.3319,3.3596,3.3552,3.3523,3.3625,3.3581,3.3736,3.4189,3.4335,3.4748,3.5196,3.524,3.5357,3.5386,4.1704,4.1223,4.1076,4.0535,3.9846,3.986,3.967,3.9304,3.9146,3.8985,3.8813,3.9,3.881,3.8353,3.8459,3.8517,3.8517,3.8517,3.8594,3.8781,3.8795,3.8898,3.9073,3.9088,3.9187,3.9263,3.9146,3.9219,3.9436,3.9351,3.9392,3.9453,3.9205,3.9219,3.9468,3.9568,3.967,3.976,3.9802,3.9597,3.9187,3.8488,3.7739,3.6963,3.6583,3.6056,3.5333,3.4783,3.43,3.3794,3.318,3.2858,3.2917,3.261,3.2463,3.2522,3.2756,3.2858,3.2727,3.2844,3.2712,3.2237,3.2193,3.2105,3.19,3.1841,3.1549,3.1175,3.1225,3.138,3.1388,3.135,3.1468,3.171,3.1432,3.1394,3.171,3.1542,3.1461,3.1578,3.149,3.13,3.1147,3.1089,3.1089,3.1133,3.1388,3.1637,3.1841,3.2024,3.217,3.2361,3.2515,3.239,3.2193,3.2375,3.261,3.2778,3.3019,3.318,3.3612,3.3773,3.394,3.3771,3.3713,3.3677,3.3567,3.3663,3.3955,3.4189,3.4505,3.4909,3.4909,3.5011,3.5002,4.207,4.1574,4.1429,4.0959,4.0285,4.0444,4.0168,3.967,3.9553,3.9351,3.9175,3.938,3.9234,3.881,3.8693,3.8678,3.8766,3.8693,3.8824,3.9102,3.9132,3.929,3.9468,3.9483,3.9612,3.9743,3.9685,3.9685,3.9758,3.9773,3.9773,3.9758,3.957,3.9597,3.9787,4.0021,4.0168,4.0297,4.0343,4.0314,4.0065,3.9409,3.8503,3.7471,3.6948,3.6461,3.5841,3.5275,3.4835,3.4475,3.3934,3.3677,3.3823,3.3596,3.3567,3.3809,3.3838,3.3794,3.3698,3.3794,3.3684,3.3362,3.3158,3.2939,3.2705,3.2456,3.2339,3.2339,3.2544,3.2485,3.2032,3.2061,3.2112,3.2046,3.1944,3.1878,3.2068,3.1944,3.1812,3.19,3.1812,3.171,3.1505,3.1446,3.1425,3.1454,3.1724,3.2009,3.2266,3.2412,3.2646,3.288,3.3136,3.2975,3.2295,3.2529,3.2837,3.2903,3.3085,3.3531,3.3999,3.4087,3.4189,3.3984,3.3838,3.3713,3.3692,3.3736,3.3999,3.4388,3.471,3.49,3.4944,3.4871,3.4812,4.2216,4.185,4.1544,4.1223,4.0942,4.0678,4.0356,4.0021,3.9714,3.9512,3.9568,3.9553,3.9509,3.9439,3.9175,3.9161,3.9377,3.9102,3.9161,3.948,3.9453,3.9495,3.9483,3.9497,3.9846,4.0343,4.0182,4.0182,4.0458,4.0431,4.0446,4.0444,3.989,3.9833,4.0358,4.049,4.0649,4.0956,4.115,4.1047,4.0534,4.0402,3.9565,3.8159,3.7427,3.6787,3.6144,3.5826,3.5489,3.5167,3.4783,3.4481,3.4218,3.4183,3.4145,3.4174,3.4174,3.4043,3.3838,3.4013,3.4043,3.3765,3.3677,3.3625,3.356,3.3472,3.3443,3.3575,3.3487,3.3195,3.2471,3.2222,3.2237,3.2624,3.22,3.22,3.2668,3.2193,3.2024,3.217,3.2017,3.1841,3.1783,3.1783,3.1783,3.1841,3.2083,3.2317,3.2405,3.2785,3.3107,3.3209,3.3399,3.3458,3.2895,3.291,3.2975,3.3041,3.3268,3.3677,3.3809,3.394,3.411,3.4124,3.3823,3.3692,3.375,3.3999,3.4364,3.4739,3.5099,3.526,3.4958,3.5146,3.5374,4.2216,4.1894,4.1749,4.153,4.1294,4.1353,4.1207,4.0901,4.0742,4.0711,4.0682,4.0534,4.0473,4.0458,4.0109,3.9787,3.9524,3.9366,3.9509,3.9802,3.9831,3.9934,4.0166,4.0371,4.0548,4.0795,4.0857,4.0959,4.1018,4.0899,4.0899,4.1016,4.0665,4.068,4.106,4.1294,4.1455,4.1558,4.169,4.1501,4.1033,4.0504,3.9685,3.8734,3.8072,3.7339,3.6451,3.6114,3.5817,3.5533,3.5401,3.5196,3.4865,3.4636,3.4511,3.4511,3.4534,3.4475,3.4364,3.4438,3.449,3.4335,3.413,3.4028,3.3984,3.3815,3.3684,3.3698,3.3684,3.3487,3.3312,3.3078,3.3019,3.3004,3.2858,3.2778,3.2924,3.2712,3.2493,3.2537,3.2332,3.2141,3.217,3.2141,3.2105,3.2163,3.2537,3.2741,3.2734,3.3144,3.345,3.3348,3.3648,3.3794,3.3151,3.3121,3.3172,3.3201,3.3377,3.3619,3.3794,3.397,3.413,3.4367,3.4025,3.4208,3.4486,3.5021,3.5287,3.5445,3.5794,3.6027,3.49,3.6245,3.6846,4.226,4.207,4.2055,4.1851,4.1603,4.1807,4.1705,4.1442,4.1413,4.1413,4.1369,4.1207,4.1119,4.109,4.0885,4.055,4.0097,3.9948,4.0065,4.0416,4.0255,4.0387,4.0753,4.0942,4.1103,4.1322,4.1602,4.1676,4.1544,4.1382,4.1338,4.1384,4.1221,4.1221,4.1442,4.172,4.1894,4.1909,4.1997,4.1865,4.1398,4.0784,4.0067,3.9351,3.8719,3.7881,3.6817,3.6553,3.6231,3.5914,3.5841,3.565,3.524,3.4997,3.4812,3.4724,3.471,3.4753,3.4865,3.4865,3.4841,3.4841,3.4651,3.449,3.435,3.4145,3.4043,3.4028,3.4013,3.3999,3.3911,3.394,3.3853,3.3464,3.3362,3.3385,3.3348,3.3195,3.3122,3.3071,3.2924,3.2793,3.2771,3.2763,3.2778,3.2771,3.3136,3.3253,3.3217,3.351,3.3809,3.3648,3.4139,3.4241,3.4254,3.4545,3.3962,3.3835,3.4074,3.4078,3.4332,3.4381,3.4594,3.4644,3.4811,3.5053,3.5447,3.6059,3.6429,3.6668,3.7342,3.796,3.7795,3.8148,3.8824,4.2377,4.2363,4.2377,4.2172,4.1924,4.1938,4.172,4.1515,4.1458,4.1515,4.1544,4.1442,4.1413,4.1413,4.1384,4.1369,4.1193,4.0768,4.0797,4.1193,4.0768,4.0799,4.131,4.1163,4.1396,4.185,4.2202,4.2187,4.1909,4.1836,4.1704,4.1472,4.1457,4.1457,4.1457,4.1807,4.1924,4.1982,4.223,4.2055,4.1472,4.1268,4.0799,3.995,3.9319,3.8426,3.7252,3.7095,3.6787,3.6251,3.6158,3.5846,3.5363,3.5225,3.5055,3.4865,3.4753,3.4909,3.5167,3.5211,3.5211,3.5128,3.5167,3.4967,3.468,3.4598,3.4607,3.4592,3.4569,3.4534,3.4291,3.4446,3.435,3.3838,3.3706,3.3706,3.3706,3.3669,3.3669,3.3633,3.356,3.364,3.3654,3.3546,3.3487,3.3516,3.3868,3.389,3.3854,3.4422,3.4537,3.4487,3.5449,3.6251,3.6189,3.6105,3.5243,3.463,3.491,3.5137,3.5669,3.5913,3.6568,3.6752,3.7165,3.7443,3.8314,3.8919,3.9517,3.9825,4.012,3.9992,4.0112,4.0385,4.1221,4.2377,4.2377,4.2377,4.2362,4.2231,4.2231,4.2172,4.2099,4.2099,4.2099,4.2055,4.185,4.1763,4.172,4.1734,4.1734,4.1733,4.1529,4.147,4.1398,4.1208,4.1208,4.1413,4.1558,4.1864,4.2216,4.2362,4.2333,4.2202,4.204,4.1938,4.1998,4.1837,4.1851,4.2055,4.2187,4.2231,4.2246,4.2362,4.2085,4.1457,4.1236,4.0753,4.0051,3.9582,3.9041,3.8441,3.7782,3.7344,3.7134,3.6905,3.6495,3.5924,3.5641,3.5504,3.5416,3.5401,3.543,3.5518,3.5533,3.5445,3.5269,3.5187,3.504,3.4753,3.471,3.471,3.471,3.471,3.4636,3.4569,3.4636,3.4481,3.4101,3.4043,3.4043,3.4013,3.3844,3.3698,3.3684,3.3684,3.3684,3.3721,3.3736,3.3765,3.3916,3.4864,3.5418,3.4469,3.6295,3.7616,3.6715,3.7862,3.8729,3.8755,3.9128,3.9126,3.8184,3.7807,3.7146,3.7431,3.7778,3.8422,3.9344,3.9699,4.043,4.1274,4.1796,4.239,4.2084,4.1678,4.1742,4.1947,4.2663,4.3638,4.331,4.252,4.3361,4.3162,4.2434,4.2377,4.2377,4.2377,4.2377,4.2377,4.2362,4.2201,4.2113,4.207,4.207,4.207,4.2113,4.207,4.1982,4.1734,4.1486,4.153,4.1734,4.1968,4.2186,4.2348,4.2377,4.2377,4.2377,4.2202,4.2216,4.2304,4.2172,4.2158,4.2363,4.2434,4.2692,4.3517,4.3745,4.346,4.3006,4.2762,4.1926,4.0607,4.0051,3.9714,3.9363,3.8675,3.8145,3.7779,3.7369,3.689,3.6495,3.6212,3.6046,3.6046,3.6046,3.6061,3.6022,3.6061,3.5875,3.5612,3.546,3.5231,3.4967,3.4797,3.471,3.471,3.471,3.471,3.471,3.471,3.4584,3.4408,3.4379,3.4379,3.435,3.4204,3.4101,3.4101,3.4101,3.4072,3.4095,3.4072,3.4095,3.4331,3.5369,3.6167,3.536,3.7408,3.8007,3.8765,3.9796,4.053,4.1199,4.1972,4.2934,4.2214,4.1384,4.0327,3.9754,3.9996,4.0475,4.246,4.3352,4.4723,4.5588,4.5138,4.5208,4.4342,4.3972,4.4846,4.5633,4.5601,4.6355,4.5016,4.2992,4.4933,4.4411,4.252,4.2377,4.2377,4.2377,4.2377,4.2377,4.2377,4.2348,4.2377,4.2363,4.2333,4.2333,4.2363,4.2333,4.2319,4.2158,4.1837,4.1808,4.2231,4.2304,4.2377,4.2377,4.2377,4.2549,4.2962,4.2933,4.2692,4.3346,4.3502,4.2962,4.3504,4.2962,4.4099,4.5357,4.5667,4.5449,4.4923,4.5253,4.4122,4.1525,4.1159,4.0905,4.0662,3.9899,3.9056,3.8233,3.7618,3.727,3.7095,3.6831,3.6656,3.667,3.6656,3.6626,3.6626,3.6583,3.6407,3.6041,3.5817,3.5562,3.5225,3.4938,3.4797,3.4783,3.4739,3.4724,3.4739,3.4768,3.4768,3.4768,3.471,3.4666,3.4695,3.4666,3.4592,3.4645,3.4704,3.49,3.5106,3.5199,3.5431,3.5593,3.6202,3.6807,3.7056,3.8752,3.9272,4.0584,4.2424,4.3549,4.4591,4.5169,4.6037,4.5833,4.5063,4.4097,4.3052,4.316,4.3445,4.5365,4.6572,4.8212,4.8746,4.7777,4.7755,4.7748,4.8052,4.8941,4.8735,4.8117,4.8076,4.7221,4.5131,4.5651,4.4552,4.2549,4.2377,4.2406,4.2406,4.2406,4.2434,4.2434,4.2377,4.2535,4.2406,4.2463,4.2377,4.2407,4.2392,4.2377,4.2363,4.2246,4.2202,4.2363,4.2434,4.2463,4.252,4.2835,4.3305,4.4864,4.4961,4.5808,4.7614,4.7223,4.7419,4.7642,4.7363,4.6859,4.6061,4.5961,4.5059,4.3784,4.501,4.5024,4.4176,4.3855,4.3734,4.3418,4.1417,3.9773,3.8824,3.8357,3.8006,3.7826,3.753,3.7329,3.7344,3.7314,3.7197,3.7022,3.6963,3.669,3.6187,3.6041,3.5773,3.5231,3.5128,3.5084,3.5026,3.4856,3.4812,3.5011,3.5055,3.5181,3.5343,3.5144,3.4856,3.4724,3.471,3.471,3.4827,3.5972,3.6684,3.7077,3.786,3.8618,3.8938,3.9832,4.0749,4.0207,4.2198,4.3705,4.471,4.6174,4.7238,4.8112,4.8594,4.8997,4.9108,4.8728,4.8314,4.7573,4.7389,4.7758,4.8703,4.8446,4.9562,4.9457,4.8857,4.9622,5.0159,4.9501,4.9107,4.9206,4.8941,4.9122,4.9435,4.628,4.7064,4.6061,4.3858,4.282,4.2949,4.3517,4.2806,4.3019,4.3659,4.3887,4.3963,4.4084,4.3948,4.3366,4.2668,4.2479,4.2377,4.2606,4.3445,4.3346,4.2892,4.3191,4.3858,4.4029,4.4892,4.6129,4.7223,4.7402,4.8256,4.9062,4.9505,4.9505,4.9256,4.9477,4.946,4.8961,4.8861,4.7994,4.6857,4.7867,4.7611,4.7071,4.6648,4.6325,4.488,4.2236,4.0226,3.9366,3.8898,3.8719,3.8672,3.8221,3.8046,3.8148,3.8061,3.7797,3.7402,3.7285,3.6992,3.6451,3.6207,3.5953,3.5655,3.5494,3.5392,3.5363,3.5225,3.5255,3.5357,3.5416,3.5504,3.5658,3.5936,3.5755,3.5073,3.5573,3.5871,3.6375,3.7522,3.8814,3.8837,4.0055,4.0601,4.0963,4.1683,4.2084,4.2326,4.5564,4.7519,4.7497,4.7878,4.8528,4.8765,4.9122,4.949,4.9836,5.0244,5.0299,5.0161,4.9939,4.9817,4.979,5.012,5.0269,5.0076,5.0022,5.0441,5.0462,4.9632,4.9374,4.9613,4.9743,4.9971,5.1733,4.7519,4.9271,4.8573,4.6161,4.4188,4.4684,4.5639,4.4411,4.4612,4.6068,4.6378,4.6586,4.683,4.665,4.5541,4.3972,4.4158,4.3752,4.4374,4.5234,4.5473,4.4405,4.5598,4.623,4.6523,4.8562,4.9339,4.9709,4.9847,5.0175,5.0962,5.088,5.0541,5.12,5.0807,5.1414,5.2182,5.2182,5.1644,5.1153,5.1518,5.1085,4.9727,4.9402,4.7763,4.5369,4.2864,4.1089,3.9714,3.9319,3.929,3.9395,3.8912,3.8722,3.881,3.8605,3.8265,3.7695,3.7544,3.727,3.667,3.6319,3.6119,3.6027,3.5846,3.5714,3.5738,3.5709,3.5842,3.6334,3.6204,3.6672,3.72,3.8048,3.7586,3.6686,3.7156,3.7966,3.8111,3.9732,4.0752,4.1087,4.1407,4.1956,4.3471,4.4108,4.4525,4.4883,4.6614,4.7674,4.7618,4.8253,4.914,4.9225,4.9268,4.9553,4.9877,5.0389,5.0579,5.0547,5.0402,5.0333,5.0398,5.0725,5.0858,5.0812,5.0962,5.1141,5.096,5.0267,5.0231,5.032,5.0363,5.0509,5.5177,5.225,5.2965,5.1513,4.8969,4.8511,4.8523,4.8662,4.8189,4.8204,4.9071,4.9206,4.9453,4.9831,4.9701,4.9441,4.8691,4.8252,4.8465,4.8499,4.8467,4.8747,4.8343,4.8919,4.8756,4.8978,4.92,5.0509,5.1772,5.2454,5.3373,5.5041,5.4731,5.547,5.5214,5.474,5.4438,5.3444,5.3099,5.2336,5.1543,5.25,5.2826,5.1937,5.1955,4.9657,4.6292,4.4877,4.3296,4.1271,4.0232,4.01,3.9856,3.9453,3.9175,3.9015,3.8912,3.85,3.7823,3.7588,3.7339,3.6758,3.6568,3.6392,3.6129,3.61,3.6027,3.5968,3.588,3.6739,3.8239,3.8478,3.9204,4.036,4.1083,4.1208,4.0838,4.0531,4.0447,4.087,4.2353,4.3863,4.3908,4.5144,4.5709,4.6201,4.6557,4.7127,4.757,4.7972,4.8111,4.814,4.8665,4.9436,4.9436,4.9394,4.9504,4.9801,5.029,5.0671,5.0667,5.0967,5.0915,5.1069,5.1303,5.1312,5.1127,5.1167,5.1218,5.1062,5.0943,5.0713,5.0631,5.0798,5.0984,5.6526,5.4081,5.4182,5.3078,5.1246,5.0657,5.0831,5.1171,5.0442,5.0866,5.1889,5.2092,5.2295,5.2642,5.2472,5.2004,5.1084,5.0668,5.1029,5.1613,5.172,5.2229,5.3229,5.2873,5.2409,5.1588,5.2663,5.3791,5.4485,5.4895,5.5569,5.676,5.6953,5.656,5.6914,5.6933,5.6059,5.5133,5.4679,5.4004,5.3353,5.3931,5.3904,5.3235,5.2863,5.1072,4.7806,4.722,4.6311,4.4765,4.3064,4.1442,4.0343,3.9787,3.9436,3.9249,3.8883,3.8543,3.7998,3.7793,3.7632,3.7095,3.6934,3.6861,3.6744,3.6685,3.6583,3.6785,3.7476,3.8757,4.0884,4.1219,4.2124,4.2976,4.3793,4.404,4.4114,4.3484,4.2889,4.3308,4.4785,4.5749,4.6662,4.7518,4.7675,4.7351,4.7634,4.8186,4.8276,4.8656,4.8911,4.9036,4.9334,4.9593,4.9593,4.9551,4.9444,4.9716,5.0048,5.0404,5.0539,5.1036,5.156,5.1541,5.1438,5.1293,5.115,5.121,5.1375,5.1419,5.1315,5.1003,5.1065,5.1543,5.1605,5.7179,5.494,5.4996,5.4551,5.3603,5.2627,5.3042,5.3934,5.2615,5.3345,5.4634,5.494,5.5135,5.5366,5.5237,5.4004,5.2932,5.2508,5.3603,5.4552,5.432,5.5011,5.6116,5.5936,5.5175,5.3941,5.5483,5.6595,5.6723,5.7082,5.6995,5.6999,5.6863,5.7019,5.6902,5.6699,5.6592,5.6234,5.6188,5.6188,5.6054,5.6215,5.5318,5.4301,5.385,5.2645,5.0487,4.9764,4.9302,4.8889,4.6483,4.4099,4.2066,4.0171,3.9568,3.9497,3.9029,3.8573,3.8174,3.8028,3.791,3.7632,3.7369,3.7612,3.7877,3.8104,3.8263,3.8826,3.9794,4.1467,4.3617,4.4004,4.4406,4.5257,4.6136,4.6679,4.6883,4.6242,4.5873,4.5846,4.6951,4.7885,4.8023,4.8455,4.8486,4.8556,4.8822,4.9055,4.9094,4.9143,4.9246,4.9267,4.937,4.9412,4.9412,4.9474,4.9412,4.9619,4.9908,5.0239,5.0486,5.0941,5.1398,5.1439,5.1357,5.1294,5.1336,5.1501,5.1646,5.1771,5.1688,5.1396,5.175,5.2329,5.2247,5.8586,5.7829,5.8233,5.7865,5.7125,5.7117,5.6968,5.7164,5.6598,5.7084,5.7633,5.7735,5.7856,5.8181,5.839,5.7842,5.6747,5.6437,5.6691,5.6936,5.6532,5.6882,5.694,5.6828,5.6292,5.6331,5.6989,5.7356,5.7527,5.7762,5.782,5.8008,5.7715,5.7566,5.7429,5.7285,5.6855,5.6726,5.6687,5.6687,5.6687,5.6575,5.6188,5.5417,5.5391,5.4382,5.2854,5.2164,5.133,4.9213,4.823,4.7434,4.5891,4.2809,4.0806,4.0226,4.0053,3.98,3.918,3.8571,3.8093,3.7691,3.8074,3.8857,3.9818,4.0365,4.0885,4.1954,4.2681,4.3836,4.575,4.6429,4.752,4.8649,4.9151,4.9462,4.9512,4.9241,4.8882,4.8617,4.9323,4.9622,4.9285,4.8995,4.8918,4.8922,4.9067,4.9192,4.9242,4.9226,4.9204,4.9184,4.9143,4.9164,4.9164,4.9267,4.933,4.9536,4.9846,5.0239,5.0549,5.0858,5.1106,5.1398,5.1564,5.1646,5.1708,5.1791,5.1833,5.1915,5.1853,5.1791,5.2143,5.2495,5.2681,5.9121,5.8566,5.9004,5.8699,5.8094,5.8594,5.8613,5.8281,5.8465,5.8699,5.8828,5.8887,5.8965,5.9168,5.9227,5.8945,5.8605,5.8507,5.8281,5.7879,5.7441,5.718,5.7207,5.6973,5.709,5.7305,5.7648,5.7722,5.7598,5.8008,5.8183,5.8035,5.7762,5.7519,5.7422,5.7051,5.6953,5.6882,5.6914,5.6894,5.6875,5.6719,5.6154,5.531,5.5893,5.5264,5.3768,5.4463,5.4261,5.2967,5.146,5.0536,4.9004,4.6825,4.4023,4.3417,4.2982,4.2764,4.2399,4.2355,4.2445,4.2233,4.1872,4.2192,4.2936,4.3348,4.3923,4.5107,4.5848,4.6676,4.8713,4.9016,4.9862,5.0666,5.0903,5.0893,5.1003,5.0871,5.072,5.0525,5.0121,4.988,4.9677,4.947,4.9307,4.9287,4.935,4.9412,4.9475,4.9475,4.9432,4.9453,4.9453,4.9536,4.9536,4.9577,4.9557,4.9701,4.9949,5.0363,5.0715,5.1108,5.1398,5.1667,5.1812,5.1833,5.1978,5.2019,5.204,5.206,5.2081,5.2143,5.2327,5.2555,5.2826,5.9277,5.8664,5.9023,5.8797,5.8328,5.8895,5.8984,5.8761,5.9004,5.914,5.9227,5.918,5.916,5.9227,5.916,5.8984,5.8652,5.8585,5.8281,5.7879,5.7422,5.718,5.7207,5.7401,5.7626,5.8061,5.8677,5.8395,5.8047,5.8359,5.8398,5.8262,5.7754,5.7453,5.748,5.7265,5.7148,5.7226,5.7344,5.7324,5.7148,5.6787,5.5844,5.4012,5.5606,5.5659,5.4409,5.5391,5.6215,5.5551,5.4416,5.306,5.2433,5.0596,4.9133,4.8367,4.7235,4.6501,4.6123,4.596,4.5463,4.5507,4.5951,4.6162,4.67,4.6833,4.7264,4.8268,4.8637,4.9102,5.0377,5.1046,5.1316,5.1524,5.1455,5.1334,5.1475,5.1479,5.1394,5.1062,5.0487,5.0199,5.0033,5.0095,4.9991,4.9619,4.966,4.9867,4.9909,4.9909,4.9909,4.9909,4.995,5.0052,5.0094,5.0113,5.0115,5.0094,5.0404,5.0798,5.1108,5.1419,5.1646,5.1791,5.1791,5.1853,5.204,5.2166,5.2019,5.2019,5.2247,5.2392,5.2454,5.2826,5.322,5.9199,5.9101,5.9188,5.9149,5.9051,5.9168,5.916,5.9121,5.9168,5.9207,5.9227,5.9227,5.9227,5.9227,5.9227,5.914,5.8945,5.8755,5.8344,5.791,5.7604,5.7474,5.7381,5.7793,5.8338,5.8862,5.9623,5.9576,5.9126,5.912,5.9126,5.8986,5.8614,5.834,5.8254,5.7789,5.7781,5.7801,5.7801,5.7578,5.7246,5.7082,5.6587,5.6285,5.6295,5.6375,5.5793,5.6368,5.6582,5.6516,5.5933,5.5442,5.5313,5.4898,5.4264,5.2534,4.9887,4.6673,4.694,4.736,4.7592,4.8002,4.762,4.8126,4.9219,5.0437,5.0916,5.111,5.1189,5.1085,5.1354,5.1557,5.1719,5.1849,5.1915,5.1812,5.1874,5.1915,5.1853,5.1667,5.115,5.0715,5.0446,5.0591,5.0673,5.0259,5.0011,5.0218,5.0342,5.0342,5.0342,5.0342,5.0384,5.0508,5.0694,5.0713,5.0693,5.061,5.0858,5.1189,5.1377,5.1584,5.1688,5.1791,5.1791,5.1791,5.1895,5.1936,5.1853,5.1957,5.2122,5.2288,5.2454,5.293,5.3468,5.9394,5.9227,5.9227,5.9227,5.9227,5.9227,5.9227,5.9227,5.9227,5.9227,5.9227,5.9227,5.9227,5.9207,5.9227,5.8914,5.8638,5.8815,5.8618,5.8341,5.8278,5.8507,5.8735,5.9084,5.9499,5.9741,6.0232,6.0477,6.0207,6.0163,6.0135,6.002,5.9387,5.9,5.8949,5.8278,5.8121,5.8086,5.7988,5.7664,5.7265,5.6992,5.6797,5.6601,5.6628,5.6628,5.6609,5.6609,5.6609,5.6589,5.6367,5.6172,5.595,5.5644,5.539,5.4837,5.3201,5.1723,5.1348,5.1279,5.1325,5.1625,5.16,5.1941,5.2449,5.2867,5.3161,5.2532,5.2755,5.2642,5.2338,5.2484,5.2532,5.2601,5.2456,5.2497,5.2435,5.2269,5.2207,5.1998,5.1791,5.1313,5.0879,5.0775,5.0818,5.0549,5.0466,5.0736,5.0818,5.0818,5.0818,5.0818,5.086,5.0943,5.1191,5.1357,5.1336,5.1251,5.1294,5.1543,5.1564,5.1688,5.1771,5.1791,5.1791,5.1791,5.1791,5.1812,5.1853,5.1915,5.1978,5.2288,5.2621,5.3015,5.3592,5.9473,5.9227,5.9325,5.9277,5.9227,5.9227,5.9227,5.9227,5.9227,5.9227,5.9227,5.9207,5.9263,5.9344,5.9302,5.9059,5.8626,5.9048,5.8934,5.8911,5.9087,5.945,5.9745,6.0169,6.0542,6.0683,6.1221,6.1376,6.1396,6.1306,6.1195,6.0919,5.994,5.9706,5.9505,5.8898,5.8398,5.8418,5.8359,5.8016,5.75,5.7265,5.7031,5.6836,5.6738,5.668,5.6628,5.6609,5.6609,5.6609,5.6589,5.6387,5.6172,5.6272,5.6162,5.5946,5.5338,5.5435,5.4954,5.4874,5.5623,5.5663,5.5621,5.4642,5.4425,5.4679,5.4402,5.3545,5.3699,5.3602,5.3323,5.3137,5.3054,5.3056,5.3077,5.316,5.3139,5.2766,5.2456,5.2226,5.2019,5.1833,5.1419,5.1067,5.088,5.0736,5.0901,5.1212,5.1294,5.1315,5.1294,5.1294,5.1315,5.1357,5.1481,5.1708,5.1771,5.1791,5.1791,5.1771,5.1729,5.1729,5.1771,5.1791,5.1791,5.1791,5.1791,5.1833,5.1874,5.1936,5.206,5.2474,5.2849,5.3284,5.3843,5.9219,5.9219,5.959,5.9512,5.9227,5.9227,5.9227,5.9227,5.9227,5.9227,5.9207,5.9263,5.9523,5.9739,5.9608,5.959,5.9876,5.9235,5.9269,5.9296,5.9317,5.9888,6.0408,6.0985,6.1366,6.1686,6.2049,6.2323,6.2488,6.2241,6.1774,6.0982,6.0522,6.0479,6.0266,5.9628,5.8885,5.8783,5.8708,5.8465,5.8094,5.789,5.7812,5.7246,5.7109,5.6992,5.6648,5.6609,5.6609,5.6609,5.6609,5.6689,5.6632,5.6852,5.682,5.6906,5.732,5.7312,5.6928,5.6275,5.5951,5.6211,5.6341,5.621,5.575,5.5781,5.5365,5.4546,5.4494,5.4127,5.3613,5.3222,5.3429,5.3447,5.353,5.353,5.3385,5.2992,5.2681,5.2454,5.2309,5.2226,5.2185,5.1874,5.1543,5.1398,5.1439,5.175,5.1812,5.1812,5.1791,5.1791,5.1771,5.175,5.1708,5.1791,5.1791,5.1791,5.1791,5.1791,5.1771,5.1791,5.1791,5.1791,5.1791,5.1791,5.1791,5.1812,5.1853,5.1936,5.2164,5.264,5.3489,5.4257,5.4692,5.9258,5.882,5.9512,5.957,5.9227,5.9227,5.9227,5.9227,5.9227,5.9227,5.9235,5.9531,5.9652,5.9711,5.987,5.9641,5.9571,6.0172,6.0132,6.0497,6.0842,6.14,6.1865,6.1912,6.2234,6.2358,6.2597,6.2679,6.2652,6.2679,6.2543,6.1912,6.1333,6.1306,6.105,6.0345,5.96,5.9115,5.8874,5.8465,5.8094,5.7976,5.7832,5.7305,5.718,5.6992,5.6687,5.6628,5.6609,5.6635,5.6635,5.6796,5.7062,5.7355,5.7548,5.7692,5.8272,5.8219,5.7965,5.7281,5.694,5.6527,5.6718,5.6801,5.6494,5.6246,5.6018,5.5517,5.5103,5.471,5.4544,5.4192,5.4045,5.4003,5.3941,5.3923,5.3758,5.3406,5.3261,5.3155,5.2971,5.2829,5.2808,5.2766,5.2392,5.2102,5.2185,5.2226,5.2288,5.2329,5.2309,5.2205,5.2164,5.1998,5.1936,5.1874,5.1812,5.1833,5.1853,5.1936,5.1978,5.1812,5.1812,5.1812,5.1812,5.1833,5.1833,5.1812,5.1895,5.2122,5.2454,5.2865,5.3882,5.5086,5.55,5.9132,5.8789,5.921,5.9336,5.9227,5.9227,5.9227,5.9227,5.9227,5.9319,5.9467,5.9846,6.0123,6.0167,6.0275,6.0395,6.0294,6.0713,6.095,6.1303,6.1808,6.2534,6.2638,6.2652,6.2556,6.2679,6.2679,6.2679,6.2679,6.2679,6.2625,6.2488,6.2317,6.2124,6.185,6.112,6.0257,5.969,5.9414,5.9,5.8728,5.8615,5.8434,5.7979,5.7831,5.7317,5.7012,5.6863,5.6879,5.6881,5.6956,5.7149,5.7515,5.786,5.8125,5.8427,5.8732,5.88,5.8628,5.8274,5.7831,5.7475,5.7496,5.7235,5.6801,5.6784,5.6718,5.6142,5.5769,5.5521,5.5331,5.4813,5.4479,5.4376,5.4314,5.4272,5.4231,5.4003,5.3959,5.3897,5.3734,5.3592,5.3613,5.3592,5.322,5.2868,5.2661,5.2702,5.2723,5.2785,5.287,5.2725,5.2516,5.2309,5.2081,5.1978,5.1936,5.2143,5.2164,5.2267,5.2247,5.2122,5.204,5.2102,5.2081,5.1957,5.1957,5.1998,5.2185,5.2412,5.2971,5.3672,5.4565,5.5686,5.6125,5.8828,5.9101,5.8742,5.8848,5.9235,5.9227,5.9227,5.9227,5.9227,5.9467,5.9893,6.004,6.0658,6.1234,6.1107,6.1121,6.1302,6.1346,6.1462,6.182,6.208,6.2369,6.2555,6.2679,6.2679,6.2679,6.27,6.27,6.2741,6.27,6.27,6.2721,6.2632,6.2543,6.2597,6.2069,6.1241,6.0498,6.0635,6.0337,6.0087,5.9849,5.9544,5.9157,5.8784,5.8246,5.7617,5.744,5.7451,5.7415,5.7408,5.7701,5.8178,5.8627,5.8891,5.9081,5.958,5.9615,5.9295,5.8845,5.856,5.8312,5.8203,5.8038,5.7852,5.7728,5.7484,5.6759,5.6477,5.6038,5.5624,5.521,5.4979,5.4727,5.4665,5.4624,5.4603,5.4583,5.452,5.4665,5.4579,5.4455,5.4479,5.4396,5.4027,5.3675,5.3302,5.3178,5.322,5.3323,5.3427,5.322,5.2992,5.2764,5.2516,5.2143,5.206,5.2309,5.2516,5.2621,5.2766,5.2787,5.2661,5.2536,5.2454,5.2433,5.2309,5.2226,5.2681,5.324,5.4068,5.4813,5.5624,5.6204,5.6577,5.9043,5.9207,5.9023,5.9246,5.9643,5.9347,5.9227,5.9227,5.9235,5.9495,6.0032,6.0373,6.0801,6.1257,6.1625,6.167,6.1564,6.1886,6.1949,6.2011,6.2259,6.2514,6.2659,6.2679,6.2679,6.2707,6.2727,6.2935,6.3155,6.2907,6.2948,6.3038,6.281,6.27,6.2515,6.2152,6.1555,6.1281,6.108,6.0811,6.0718,6.0625,6.0415,6.0014,5.9767,5.9212,5.8456,5.8363,5.8312,5.8099,5.8093,5.8324,5.8747,5.9195,5.9312,5.9569,5.9962,5.9947,5.9781,5.9533,5.9202,5.8912,5.8659,5.8622,5.8394,5.8063,5.7753,5.7401,5.695,5.6515,5.6204,5.5811,5.5496,5.5124,5.5,5.5,5.4979,5.5,5.502,5.5355,5.5434,5.5434,5.539,5.5286,5.4958,5.4689,5.4379,5.3858,5.3755,5.3941,5.4089,5.3755,5.3486,5.3238,5.2992,5.2702,5.2661,5.295,5.3013,5.2994,5.3139,5.3471,5.324,5.3075,5.2992,5.2932,5.2992,5.3157,5.361,5.421,5.5041,5.5559,5.608,5.6577,5.6945,5.9003,5.8973,5.9196,5.9335,5.9446,5.9269,5.9291,5.9439,5.9495,5.9865,6.0615,6.1037,6.1303,6.1557,6.1897,6.199,6.1638,6.2011,6.2238,6.2286,6.2514,6.2638,6.2679,6.2679,6.2679,6.2721,6.2914,6.3142,6.3328,6.31,6.3017,6.2997,6.2845,6.2721,6.2543,6.2296,6.2131,6.1981,6.1802,6.1644,6.1513,6.1348,6.1102,6.0845,6.0546,6.0148,5.9632,5.9384,5.935,5.9087,5.8978,5.9082,5.9411,5.9572,5.9668,5.991,5.9988,5.9988,5.9947,5.9947,5.9595,5.9264,5.9098,5.8995,5.8871,5.8643,5.8203,5.7836,5.7318,5.6929,5.6598,5.6246,5.5976,5.5579,5.5455,5.5455,5.5521,5.5521,5.5769,5.608,5.6308,5.6304,5.6242,5.6163,5.5956,5.5703,5.5455,5.4893,5.4314,5.4355,5.4479,5.4231,5.3918,5.3672,5.3507,5.3362,5.3403,5.3613,5.3696,5.376,5.4113,5.4485,5.4048,5.3633,5.3551,5.3571,5.3861,5.4192,5.471,5.531,5.6035,5.6432,5.6598,5.6842,5.7169,5.8638,5.8606,5.915,5.9134,5.8724,5.9199,5.9607,5.9985,6.0012,6.067,6.1712,6.1684,6.181,6.2061,6.2472,6.241,6.2135,6.2472,6.2576,6.2617,6.2659,6.2679,6.2679,6.2679,6.2741,6.2886,6.31,6.3328,6.3411,6.3307,6.3121,6.2893,6.2783,6.27,6.2625,6.2597,6.2543,6.246,6.2406,6.2323,6.2241,6.2022,6.1836,6.1597,6.1364,6.0928,6.055,6.0415,6.0395,6.0212,6.0059,6.0235,6.0294,6.0237,6.0097,5.9988,5.9988,5.9988,5.9988,5.9988,5.9988,5.974,5.9823,5.9678,5.9429,5.914,5.8705,5.8224,5.7728,5.7235,5.6805,5.6618,5.6432,5.6204,5.6018,5.6038,5.6055,5.6246,5.6556,5.6825,5.7028,5.707,5.6904,5.678,5.6511,5.6387,5.6097,5.5769,5.5165,5.45,5.4583,5.4624,5.4334,5.4086,5.4003,5.4148,5.4317,5.4565,5.4793,5.492,5.5272,5.5314,5.4941,5.4524,5.4169,5.421,5.4627,5.5207,5.5869,5.6449,5.6738,5.6863,5.6904,5.6987,5.721,5.8784,5.917,5.9632,5.9766,5.978,6.0214,6.0282,6.0068,6.0449,6.1113,6.1795,6.1795,6.2036,6.2507,6.2665,6.2555,6.2555,6.2597,6.2659,6.2679,6.2679,6.2679,6.2679,6.27,6.2866,6.3121,6.3328,6.3535,6.3721,6.3618,6.339,6.3204,6.2831,6.2721,6.2679,6.2679,6.2679,6.2679,6.2679,6.2679,6.2679,6.246,6.2371,6.2241,6.2159,6.1748,6.155,6.1428,6.1371,6.1041,6.0674,6.0613,6.0624,6.0284,5.9988,5.9988,5.9988,5.9988,5.9988,5.9988,5.9988,5.9988,5.9988,5.9968,5.974,5.9471,5.9036,5.8514,5.8162,5.7732,5.7318,5.709,5.697,5.6825,5.6738,5.6842,5.6883,5.6883,5.7173,5.7339,5.7587,5.7334,5.721,5.7107,5.6883,5.6842,5.6676,5.6349,5.5914,5.5207,5.4872,5.4938,5.4938,5.4731,5.5062,5.5293,5.5372,5.5496,5.5683,5.5766,5.5811,5.579,5.5645,5.5414,5.5082,5.5165,5.5455,5.6055,5.6594,5.6805,5.7074,5.7152,5.7231,5.7314,5.7397,5.8746,5.8976,5.9859,6.0263,6.0387,6.0806,6.074,6.0568,6.1004,6.1602,6.2104,6.1947,6.2076,6.2335,6.239,6.239,6.241,6.2597,6.2679,6.2679,6.2679,6.2679,6.2679,6.27,6.2831,6.31,6.3349,6.3514,6.3763,6.3618,6.3349,6.3059,6.279,6.2721,6.2679,6.2679,6.2679,6.2679,6.2679,6.2679,6.2679,6.2679,6.2679,6.2679,6.2679,6.2514,6.2327,6.2259,6.2073,6.1742,6.1355,6.0961,6.0816,6.0402,6.0009,5.9988,5.9988,5.9988,5.9988,5.9988,5.9988,5.9988,5.9988,5.9988,5.9926,5.9719,5.9202,5.8705,5.8519,5.8291,5.7939,5.7583,5.7525,5.7467,5.7608,5.7728,5.7666,5.7541,5.7691,5.7836,5.7732,5.7459,5.7314,5.7252,5.7148,5.7049,5.6842,5.6556,5.6229,5.5749,5.5455,5.5434,5.55,5.5479,5.5852,5.6101,5.6101,5.6159,5.6387,5.6449,5.6366,5.6246,5.6101,5.6059,5.5997,5.6121,5.6266,5.6656,5.7111,5.7297,5.7509,5.7649,5.7707,5.7666,5.7769,5.8573,5.8337,5.9835,6.0618,6.0713,6.1019,6.1135,6.1257,6.1625,6.2138,6.2515,6.2232,6.2101,6.2286,6.2259,6.2238,6.2369,6.2555,6.2679,6.2679,6.2679,6.2679,6.27,6.2769,6.3038,6.3059,6.3328,6.3859,6.3659,6.3514,6.3245,6.281,6.2727,6.2707,6.2679,6.2679,6.2679,6.2679,6.2679,6.2679,6.2679,6.2679,6.2679,6.2679,6.2679,6.2659,6.2659,6.2659,6.2679,6.2369,6.1913,6.1328,6.079,6.0444,6.0092,6.0071,6.0092,6.005,6.0097,6.0118,6.005,6.003,5.9988,5.9988,5.9947,5.9906,5.9471,5.9036,5.8829,5.8581,5.8224,5.8141,5.8105,5.8146,5.8291,5.8415,5.8436,5.8208,5.7976,5.8063,5.7898,5.7624,5.7541,5.7521,5.7748,5.7442,5.7277,5.7053,5.6701,5.6349,5.6101,5.5997,5.5956,5.6038,5.6287,5.6494,5.6618,5.6738,5.6925,5.6962,5.6796,5.6676,5.6556,5.6701,5.6863,5.6908,5.7028,5.7504,5.7815,5.7877,5.8063,5.8208,5.8224,5.8162,5.8245,5.8445,5.8827,5.9996,6.1086,6.2014,6.1394,6.1578,6.2254,6.2021,6.2226,6.259,6.2576,6.2514,6.2472,6.2431,6.241,6.2534,6.2576,6.2659,6.2679,6.2679,6.2679,6.2762,6.2955,6.3266,6.3804,6.417,6.4273,6.4273,6.3887,6.3514,6.3597,6.3183,6.2679,6.2679,6.2679,6.2679,6.2679,6.2679,6.2679,6.2679,6.2679,6.2679,6.2679,6.2679,6.2679,6.2679,6.2679,6.2679,6.2534,6.1762,6.1038,6.032,6.0113,6.0009,6.005,6.0257,6.0222,6.0133,6.0201,6.0242,6.0071,5.9988,5.9988,5.9988,5.9988,5.9802,5.9409,5.9119,5.8871,5.8684,5.8659,5.87,5.8829,5.8933,5.9036,5.9119,5.8746,5.8374,5.8141,5.7997,5.7914,5.7831,5.7934,5.8183,5.8245,5.8245,5.8084,5.767,5.7277,5.6784,5.6618,5.6453,5.6515,5.6697,5.6801,5.6883,5.6966,5.7065,5.7148,5.721,5.7318,5.7359,5.7629,5.7769,5.7711,5.7877,5.8498,5.8726,5.856,5.8581,5.8726,5.8808,5.8788,5.8891,5.8726,5.9132,6.0166,6.0942,6.1398,6.1247,6.1548,6.1984,6.2011,6.2286,6.2597,6.2514,6.2493,6.2576,6.2493,6.2576,6.2638,6.2679,6.2679,6.2679,6.2679,6.2679,6.2824,6.3017,6.3059,6.3507,6.3673,6.3859,6.4377,6.3756,6.3245,6.3618,6.3079,6.27,6.27,6.2679,6.2679,6.2679,6.2679,6.2679,6.2679,6.2679,6.2679,6.2679,6.2679,6.2679,6.2679,6.2679,6.2679,6.2452,6.1783,6.11,6.0506,6.018,6.0009,6.005,6.0154,6.0257,6.0175,6.0195,6.0325,6.0092,5.9988,5.9988,5.9988,5.9968,5.9781,5.945,5.9595,5.9409,5.9222,5.9135,5.9326,5.9471,5.9471,5.9492,5.9367,5.9078,5.8705,5.8348,5.8312,5.8332,5.8245,5.8245,5.8477,5.8477,5.8581,5.8452,5.8162,5.8059,5.7587,5.7198,5.7012,5.6883,5.6987,5.7045,5.7086,5.7169,5.7252,5.7376,5.7541,5.7934,5.825,5.8312,5.8348,5.8369,5.8684,5.9078,5.916,5.8953,5.9057,5.9222,5.9285,5.9326,5.9409,5.9189,5.9429,6.0294,6.0527,6.032,6.0949,6.1363,6.1487,6.1818,6.2259,6.2617,6.2327,6.239,6.2431,6.2348,6.2472,6.2576,6.2659,6.2679,6.2679,6.2679,6.2679,6.2721,6.2831,6.3079,6.3224,6.3383,6.3535,6.3756,6.3425,6.3404,6.3349,6.3079,6.2769,6.27,6.2679,6.2679,6.2679,6.2679,6.2679,6.2679,6.2679,6.2679,6.2679,6.2679,6.2679,6.2679,6.2679,6.2679,6.241,6.1928,6.1328,6.0873,6.0527,6.0402,6.0402,6.0397,6.0361,6.0195,6.0216,6.0154,6.003,6.0009,5.9988,5.9988,5.9906,5.9699,5.9719,5.9885,5.9864,5.9657,5.9616,5.9802,5.9906,5.9885,5.9781,5.9533,5.9326,5.8995,5.8617,5.8643,5.8684,5.8726,5.8705,5.8767,5.8767,5.8664,5.8457,5.8332,5.8369,5.8208,5.7794,5.7484,5.7401,5.7252,5.7231,5.7252,5.7417,5.7521,5.7666,5.7893,5.8374,5.8664,5.8726,5.8788,5.8953,5.8974,5.9181,5.9222,5.9305,5.945,5.9621,5.9678,5.9719,5.9843,5.9616,6.0415,6.0624,6.0796,6.1038,6.1218,6.1514,6.1866,6.1942,6.2259,6.2576,6.2638,6.2638,6.2686,6.2617,6.2638,6.2638,6.2679,6.2679,6.2679,6.2679,6.2679,6.2741,6.2914,6.3432,6.3639,6.3776,6.4087,6.3839,6.4004,6.3921,6.3411,6.3349,6.3038,6.27,6.2679,6.2679,6.2679,6.2679,6.2679,6.2679,6.2679,6.2679,6.2679,6.2679,6.2679,6.2679,6.2679,6.2679,6.2514,6.2155,6.1659,6.1286,6.1017,6.0873,6.0754,6.0748,6.0609,6.0464,6.0387,6.0237,6.0009,5.9988,5.9988,5.9988,5.9988,5.9885,5.9885,5.9968,5.9968,5.9843,5.9843,5.9968,5.9968,5.9947,5.974,5.9512,5.9367,5.9181,5.9036,5.9015,5.9098,5.9181,5.9305,5.9554,5.9533,5.9512,5.9285,5.8891,5.885,5.8788,5.8374,5.796,5.7562,5.7293,5.7314,5.7376,5.7583,5.7852,5.8121,5.8431,5.8871,5.9098,5.916,5.9409,5.9636,5.9636,5.9429,5.9595,5.9719,5.9823,5.9952,5.9988,5.9988,5.9988]}]]